
Distance (Route):
Temperature : 0°C
Humidity : 0%
Pressure : 0hPa| Receiver | Frames | First received | Last received |
|---|---|---|---|
| MIELECB | 773 | 2026-08-31 11:26:11 | 2026-08-31 13:22:20 |
| SQ9PSP-11 | 266 | 2026-08-31 11:21:22 | 2026-08-31 13:22:36 |
| AKAW68 | 192 | 2026-08-31 11:28:26 | 2026-08-31 13:23:19 |
| AKAW682 | 141 | 2026-08-31 11:38:17 | 2026-08-31 12:53:49 |
| SP9KGR-15 | 136 | 2026-08-31 11:21:24 | 2026-08-31 12:54:04 |
| OM5KV | 26 | 2026-08-31 12:36:30 | 2026-08-31 12:39:39 |
| SQ9EZE-12 | 13 | 2026-08-31 11:22:50 | 2026-08-31 11:49:20 |
| SQ9EZE-15 | 7 | 2026-08-31 11:21:58 | 2026-08-31 12:10:18 |
| SQ9EZE-14 | 3 | 2026-08-31 11:58:18 | 2026-08-31 12:03:46 |
| OE3JTB-15 | 1 | 2026-08-31 11:41:50 | 2026-08-31 11:41:50 |
| SP8MDH-15 | 1 | 2026-08-31 12:44:29 | 2026-08-31 12:44:29 |
| Receiver | Date | Latitude | Longitude | Direction | Speed | Altitude | Climb | Temperature | Humidity | Pressure | Voltage | Killtimer | Uptime | BKT | XDATA |
|---|---|---|---|---|---|---|---|---|---|---|---|---|---|---|---|
| AKAW68 | 2026-08-31 13:23:19 | 50.25065 | 21.99066 | 53° | 42km/h | 2828m | -13.5m/s | 0°C | 0% | 0hPa | 0V | 00:00:00 | 00:00:00 | 00:00:00 | |
| AKAW68 | 2026-08-31 13:22:50 | 50.24940 | 21.98697 | 71° | 35km/h | 3199m | -11.7m/s | 0°C | 0% | 0hPa | 0V | 00:00:00 | 00:00:00 | 00:00:00 | |
| SQ9PSP-11 | 2026-08-31 13:22:36 | 50.24900 | 21.98529 | 67° | 33km/h | 3373m | -11.6m/s | 0°C | 0% | 0hPa | 0V | 00:00:00 | 00:00:00 | 00:00:00 | |
| MIELECB | 2026-08-31 13:22:20 | 50.24831 | 21.98334 | 59° | 33km/h | 3567m | -11.7m/s | 0°C | 0% | 0hPa | 0V | 00:00:00 | 00:00:00 | 00:00:00 | |
| SQ9PSP-11 | 2026-08-31 13:22:18 | 50.24822 | 21.98310 | 65° | 37km/h | 3590m | -11.4m/s | 0°C | 0% | 0hPa | 0V | 00:00:00 | 00:00:00 | 00:00:00 | |
| SQ9PSP-11 | 2026-08-31 13:22:03 | 50.24767 | 21.98116 | 73° | 42km/h | 3769m | -12.3m/s | 0°C | 0% | 0hPa | 0V | 00:00:00 | 00:00:00 | 00:00:00 | |
| MIELECB | 2026-08-31 13:21:53 | 50.24743 | 21.97947 | 80° | 40km/h | 3880m | -10.2m/s | 0°C | 0% | 0hPa | 0V | 00:00:00 | 00:00:00 | 00:00:00 | |
| SQ9PSP-11 | 2026-08-31 13:21:47 | 50.24728 | 21.97850 | 78° | 42km/h | 3946m | -11.7m/s | 0°C | 0% | 0hPa | 0V | 00:00:00 | 00:00:00 | 00:00:00 | |
| MIELECB | 2026-08-31 13:21:35 | 50.24683 | 21.97670 | 68° | 38km/h | 4093m | -8.9m/s | 0°C | 0% | 0hPa | 0V | 00:00:00 | 00:00:00 | 00:00:00 | |
| AKAW68 | 2026-08-31 13:21:27 | 50.24649 | 21.97568 | 63° | 31km/h | 4182m | -12.7m/s | 0°C | 0% | 0hPa | 0V | 00:00:00 | 00:00:00 | 00:00:00 | |
| AKAW68 | 2026-08-31 13:20:52 | 50.24525 | 21.97256 | 69° | 26km/h | 4606m | -12.3m/s | 0°C | 0% | 0hPa | 0V | 00:00:00 | 00:00:00 | 00:00:00 | |
| MIELECB | 2026-08-31 13:20:40 | 50.24471 | 21.97114 | 61° | 40km/h | 4782m | -14.0m/s | 0°C | 0% | 0hPa | 0V | 00:00:00 | 00:00:00 | 00:00:00 | |
| AKAW68 | 2026-08-31 13:20:31 | 50.24417 | 21.96964 | 54° | 42km/h | 4950m | -14.4m/s | 0°C | 0% | 0hPa | 0V | 00:00:00 | 00:00:00 | 00:00:00 | |
| MIELECB | 2026-08-31 13:20:30 | 50.24412 | 21.96942 | 52° | 44km/h | 4980m | -10.1m/s | 0°C | 0% | 0hPa | 0V | 00:00:00 | 00:00:00 | 00:00:00 | |
| AKAW68 | 2026-08-31 13:20:12 | 50.24277 | 21.96693 | 43° | 38km/h | 5250m | -10.6m/s | 0°C | 0% | 0hPa | 0V | 00:00:00 | 00:00:00 | 00:00:00 | |
| SP9KGR-15 | 2026-08-31 12:54:04 | 50.18557 | 21.71899 | 36° | 24km/h | 32377m | 3.3m/s | 0°C | 0% | 0hPa | 0V | 00:00:00 | 00:00:00 | 00:00:00 | |
| MIELECB | 2026-08-31 12:54:03 | 50.18555 | 21.71895 | 3° | 22km/h | 32372m | 4.4m/s | 0°C | 0% | 0hPa | 0V | 00:00:00 | 00:00:00 | 00:00:00 | |
| MIELECB | 2026-08-31 12:53:58 | 50.18530 | 21.71884 | 40° | 33km/h | 32345m | 7.6m/s | 0°C | 0% | 0hPa | 0V | 00:00:00 | 00:00:00 | 00:00:00 | |
| MIELECB | 2026-08-31 12:53:52 | 50.18494 | 21.71841 | 340° | 11km/h | 32301m | 2.5m/s | 0°C | 0% | 0hPa | 0V | 00:00:00 | 00:00:00 | 00:00:00 | |
| AKAW682 | 2026-08-31 12:53:49 | 50.18487 | 21.71836 | 48° | 22km/h | 32285m | 8.4m/s | 0°C | 0% | 0hPa | 0V | 00:00:00 | 00:00:00 | 00:00:00 | |
| MIELECB | 2026-08-31 12:53:46 | 50.18472 | 21.71814 | 41° | 22km/h | 32261m | 8.9m/s | 0°C | 0% | 0hPa | 0V | 00:00:00 | 00:00:00 | 00:00:00 | |
| MIELECB | 2026-08-31 12:53:40 | 50.18460 | 21.71784 | 66° | 24km/h | 32220m | 6.3m/s | 0°C | 0% | 0hPa | 0V | 00:00:00 | 00:00:00 | 00:00:00 | |
| AKAW68 | 2026-08-31 12:53:38 | 50.18453 | 21.71773 | 22° | 24km/h | 32205m | 7.2m/s | 0°C | 0% | 0hPa | 0V | 00:00:00 | 00:00:00 | 00:00:00 | |
| MIELECB | 2026-08-31 12:53:36 | 50.18441 | 21.71759 | 61° | 26km/h | 32178m | 7.0m/s | 0°C | 0% | 0hPa | 0V | 00:00:00 | 00:00:00 | 00:00:00 | |
| MIELECB | 2026-08-31 12:53:29 | 50.18425 | 21.71733 | 13° | 24km/h | 32139m | 6.1m/s | 0°C | 0% | 0hPa | 0V | 00:00:00 | 00:00:00 | 00:00:00 | |
| AKAW682 | 2026-08-31 12:53:25 | 50.18405 | 21.71710 | 49° | 22km/h | 32107m | 6.4m/s | 0°C | 0% | 0hPa | 0V | 00:00:00 | 00:00:00 | 00:00:00 | |
| MIELECB | 2026-08-31 12:53:23 | 50.18399 | 21.71702 | 359° | 13km/h | 32093m | 5.0m/s | 0°C | 0% | 0hPa | 0V | 00:00:00 | 00:00:00 | 00:00:00 | |
| AKAW68 | 2026-08-31 12:53:18 | 50.18366 | 21.71682 | 36° | 42km/h | 32065m | 4.0m/s | 0°C | 0% | 0hPa | 0V | 00:00:00 | 00:00:00 | 00:00:00 | |
| MIELECB | 2026-08-31 12:53:12 | 50.18334 | 21.71667 | 47° | 13km/h | 32028m | 5.8m/s | 0°C | 0% | 0hPa | 0V | 00:00:00 | 00:00:00 | 00:00:00 | |
| SP9KGR-15 | 2026-08-31 12:53:11 | 50.18332 | 21.71661 | 71° | 24km/h | 32022m | 7.9m/s | 0°C | 0% | 0hPa | 0V | 00:00:00 | 00:00:00 | 00:00:00 | |
| MIELECB | 2026-08-31 12:53:06 | 50.18310 | 21.71631 | 3° | 26km/h | 31994m | 3.8m/s | 0°C | 0% | 0hPa | 0V | 00:00:00 | 00:00:00 | 00:00:00 | |
| AKAW682 | 2026-08-31 12:53:04 | 50.18295 | 21.71627 | 29° | 27km/h | 31984m | 6.9m/s | 0°C | 0% | 0hPa | 0V | 00:00:00 | 00:00:00 | 00:00:00 | |
| MIELECB | 2026-08-31 12:53:02 | 50.18288 | 21.71607 | 80° | 13km/h | 31970m | 6.2m/s | 0°C | 0% | 0hPa | 0V | 00:00:00 | 00:00:00 | 00:00:00 | |
| MIELECB | 2026-08-31 12:52:56 | 50.18283 | 21.71590 | 74° | 27km/h | 31942m | 6.5m/s | 0°C | 0% | 0hPa | 0V | 00:00:00 | 00:00:00 | 00:00:00 | |
| MIELECB | 2026-08-31 12:52:51 | 50.18268 | 21.71564 | 12° | 18km/h | 31908m | 5.8m/s | 0°C | 0% | 0hPa | 0V | 00:00:00 | 00:00:00 | 00:00:00 | |
| MIELECB | 2026-08-31 12:52:45 | 50.18267 | 21.71507 | 79° | 20km/h | 31865m | 7.1m/s | 0°C | 0% | 0hPa | 0V | 00:00:00 | 00:00:00 | 00:00:00 | |
| MIELECB | 2026-08-31 12:52:39 | 50.18250 | 21.71465 | 96° | 37km/h | 31831m | 4.7m/s | 0°C | 0% | 0hPa | 0V | 00:00:00 | 00:00:00 | 00:00:00 | |
| MIELECB | 2026-08-31 12:52:33 | 50.18249 | 21.71410 | 63° | 24km/h | 31801m | 7.7m/s | 0°C | 0% | 0hPa | 0V | 00:00:00 | 00:00:00 | 00:00:00 | |
| AKAW68 | 2026-08-31 12:52:31 | 50.18242 | 21.71389 | 78° | 26km/h | 31787m | 7.1m/s | 0°C | 0% | 0hPa | 0V | 00:00:00 | 00:00:00 | 00:00:00 | |
| SP9KGR-15 | 2026-08-31 12:52:30 | 50.18241 | 21.71380 | 79° | 20km/h | 31781m | 5.9m/s | 0°C | 0% | 0hPa | 0V | 00:00:00 | 00:00:00 | 00:00:00 | |
| MIELECB | 2026-08-31 12:52:27 | 50.18244 | 21.71367 | 152° | 7km/h | 31764m | 3.7m/s | 0°C | 0% | 0hPa | 0V | 00:00:00 | 00:00:00 | 00:00:00 | |
| MIELECB | 2026-08-31 12:52:23 | 50.18241 | 21.71319 | 55° | 33km/h | 31728m | 6.2m/s | 0°C | 0% | 0hPa | 0V | 00:00:00 | 00:00:00 | 00:00:00 | |
| MIELECB | 2026-08-31 12:52:18 | 50.18228 | 21.71312 | 151° | 11km/h | 31693m | 2.8m/s | 0°C | 0% | 0hPa | 0V | 00:00:00 | 00:00:00 | 00:00:00 | |
| AKAW682 | 2026-08-31 12:52:14 | 50.18232 | 21.71279 | 82° | 47km/h | 31675m | 4.7m/s | 0°C | 0% | 0hPa | 0V | 00:00:00 | 00:00:00 | 00:00:00 | |
| MIELECB | 2026-08-31 12:52:11 | 50.18219 | 21.71244 | 19° | 20km/h | 31660m | 6.6m/s | 0°C | 0% | 0hPa | 0V | 00:00:00 | 00:00:00 | 00:00:00 | |
| AKAW68 | 2026-08-31 12:52:10 | 50.18214 | 21.71244 | 348° | 20km/h | 31653m | 5.7m/s | 0°C | 0% | 0hPa | 0V | 00:00:00 | 00:00:00 | 00:00:00 | |
| MIELECB | 2026-08-31 12:52:06 | 50.18201 | 21.71232 | 55° | 37km/h | 31625m | 5.8m/s | 0°C | 0% | 0hPa | 0V | 00:00:00 | 00:00:00 | 00:00:00 | |
| MIELECB | 2026-08-31 12:52:01 | 50.18178 | 21.71187 | 34° | 18km/h | 31591m | 6.6m/s | 0°C | 0% | 0hPa | 0V | 00:00:00 | 00:00:00 | 00:00:00 | |
| MIELECB | 2026-08-31 12:51:55 | 50.18156 | 21.71145 | 52° | 18km/h | 31546m | 7.1m/s | 0°C | 0% | 0hPa | 0V | 00:00:00 | 00:00:00 | 00:00:00 | |
| MIELECB | 2026-08-31 12:51:50 | 50.18128 | 21.71121 | 57° | 44km/h | 31514m | 5.8m/s | 0°C | 0% | 0hPa | 0V | 00:00:00 | 00:00:00 | 00:00:00 | |
| MIELECB | 2026-08-31 12:51:44 | 50.18085 | 21.71075 | 5° | 26km/h | 31476m | 5.0m/s | 0°C | 0% | 0hPa | 0V | 00:00:00 | 00:00:00 | 00:00:00 | |
| AKAW68 | 2026-08-31 12:51:42 | 50.18073 | 21.71067 | 44° | 29km/h | 31464m | 4.8m/s | 0°C | 0% | 0hPa | 0V | 00:00:00 | 00:00:00 | 00:00:00 | |
| AKAW682 | 2026-08-31 12:51:41 | 50.18068 | 21.71058 | 50° | 33km/h | 31459m | 6.2m/s | 0°C | 0% | 0hPa | 0V | 00:00:00 | 00:00:00 | 00:00:00 | |
| MIELECB | 2026-08-31 12:51:38 | 50.18050 | 21.71035 | 19° | 26km/h | 31438m | 4.9m/s | 0°C | 0% | 0hPa | 0V | 00:00:00 | 00:00:00 | 00:00:00 | |
| MIELECB | 2026-08-31 12:51:33 | 50.18022 | 21.71016 | 357° | 16km/h | 31405m | 7.9m/s | 0°C | 0% | 0hPa | 0V | 00:00:00 | 00:00:00 | 00:00:00 | |
| MIELECB | 2026-08-31 12:51:22 | 50.17965 | 21.70972 | 352° | 7km/h | 31342m | 8.4m/s | 0°C | 0% | 0hPa | 0V | 00:00:00 | 00:00:00 | 00:00:00 | |
| MIELECB | 2026-08-31 12:51:16 | 50.17942 | 21.70942 | 361° | 31km/h | 31295m | 5.5m/s | 0°C | 0% | 0hPa | 0V | 00:00:00 | 00:00:00 | 00:00:00 | |
| AKAW682 | 2026-08-31 12:51:14 | 50.17929 | 21.70932 | 71° | 16km/h | 31276m | 8.8m/s | 0°C | 0% | 0hPa | 0V | 00:00:00 | 00:00:00 | 00:00:00 | |
| AKAW68 | 2026-08-31 12:51:13 | 50.17929 | 21.70932 | 71° | 16km/h | 31276m | 8.8m/s | 0°C | 0% | 0hPa | 0V | 00:00:00 | 00:00:00 | 00:00:00 | |
| MIELECB | 2026-08-31 12:51:05 | 50.17915 | 21.70902 | 65° | 16km/h | 31223m | 6.5m/s | 0°C | 0% | 0hPa | 0V | 00:00:00 | 00:00:00 | 00:00:00 | |
| MIELECB | 2026-08-31 12:51:00 | 50.17903 | 21.70891 | 53° | 9km/h | 31190m | 8.4m/s | 0°C | 0% | 0hPa | 0V | 00:00:00 | 00:00:00 | 00:00:00 | |
| SQ9PSP-11 | 2026-08-31 12:50:54 | 50.17894 | 21.70866 | 6° | 15km/h | 31148m | 4.2m/s | 0°C | 0% | 0hPa | 0V | 00:00:00 | 00:00:00 | 00:00:00 | |
| MIELECB | 2026-08-31 12:50:49 | 50.17886 | 21.70841 | 25° | 18km/h | 31124m | 7.3m/s | 0°C | 0% | 0hPa | 0V | 00:00:00 | 00:00:00 | 00:00:00 | |
| MIELECB | 2026-08-31 12:50:43 | 50.17861 | 21.70830 | 69° | 16km/h | 31089m | 7.0m/s | 0°C | 0% | 0hPa | 0V | 00:00:00 | 00:00:00 | 00:00:00 | |
| MIELECB | 2026-08-31 12:50:38 | 50.17843 | 21.70817 | 31° | 18km/h | 31057m | 7.3m/s | 0°C | 0% | 0hPa | 0V | 00:00:00 | 00:00:00 | 00:00:00 | |
| MIELECB | 2026-08-31 12:50:33 | 50.17830 | 21.70808 | 308° | 18km/h | 31023m | 6.0m/s | 0°C | 0% | 0hPa | 0V | 00:00:00 | 00:00:00 | 00:00:00 | |
| MIELECB | 2026-08-31 12:50:27 | 50.17804 | 21.70788 | 38° | 26km/h | 30986m | 5.6m/s | 0°C | 0% | 0hPa | 0V | 00:00:00 | 00:00:00 | 00:00:00 | |
| MIELECB | 2026-08-31 12:50:22 | 50.17789 | 21.70785 | 103° | 7km/h | 30958m | 8.9m/s | 0°C | 0% | 0hPa | 0V | 00:00:00 | 00:00:00 | 00:00:00 | |
| AKAW68 | 2026-08-31 12:50:17 | 50.17789 | 21.70765 | 49° | 16km/h | 30926m | 7.1m/s | 0°C | 0% | 0hPa | 0V | 00:00:00 | 00:00:00 | 00:00:00 | |
| SQ9PSP-11 | 2026-08-31 12:50:16 | 50.17787 | 21.70760 | 58° | 15km/h | 30917m | 8.5m/s | 0°C | 0% | 0hPa | 0V | 00:00:00 | 00:00:00 | 00:00:00 | |
| MIELECB | 2026-08-31 12:50:11 | 50.17788 | 21.70754 | 242° | 9km/h | 30881m | 4.2m/s | 0°C | 0% | 0hPa | 0V | 00:00:00 | 00:00:00 | 00:00:00 | |
| MIELECB | 2026-08-31 12:50:05 | 50.17782 | 21.70728 | 58° | 16km/h | 30847m | 6.8m/s | 0°C | 0% | 0hPa | 0V | 00:00:00 | 00:00:00 | 00:00:00 | |
| AKAW682 | 2026-08-31 12:50:00 | 50.17784 | 21.70726 | 142° | 9km/h | 30810m | 5.4m/s | 0°C | 0% | 0hPa | 0V | 00:00:00 | 00:00:00 | 00:00:00 | |
| MIELECB | 2026-08-31 12:49:59 | 50.17786 | 21.70723 | 131° | 5km/h | 30805m | 5.1m/s | 0°C | 0% | 0hPa | 0V | 00:00:00 | 00:00:00 | 00:00:00 | |
| SQ9PSP-11 | 2026-08-31 12:49:55 | 50.17781 | 21.70710 | 69° | 15km/h | 30777m | 6.2m/s | 0°C | 0% | 0hPa | 0V | 00:00:00 | 00:00:00 | 00:00:00 | |
| MIELECB | 2026-08-31 12:49:53 | 50.17781 | 21.70698 | 121° | 13km/h | 30764m | 5.8m/s | 0°C | 0% | 0hPa | 0V | 00:00:00 | 00:00:00 | 00:00:00 | |
| MIELECB | 2026-08-31 12:49:47 | 50.17778 | 21.70704 | 61° | 9km/h | 30725m | 6.2m/s | 0°C | 0% | 0hPa | 0V | 00:00:00 | 00:00:00 | 00:00:00 | |
| MIELECB | 2026-08-31 12:49:42 | 50.17774 | 21.70666 | 10° | 7km/h | 30698m | 7.9m/s | 0°C | 0% | 0hPa | 0V | 00:00:00 | 00:00:00 | 00:00:00 | |
| SQ9PSP-11 | 2026-08-31 12:49:40 | 50.17768 | 21.70672 | 328° | 5km/h | 30678m | 7.3m/s | 0°C | 0% | 0hPa | 0V | 00:00:00 | 00:00:00 | 00:00:00 | |
| MIELECB | 2026-08-31 12:49:36 | 50.17763 | 21.70671 | 30° | 16km/h | 30660m | 6.3m/s | 0°C | 0% | 0hPa | 0V | 00:00:00 | 00:00:00 | 00:00:00 | |
| MIELECB | 2026-08-31 12:49:31 | 50.17750 | 21.70642 | 115° | 7km/h | 30627m | 5.7m/s | 0°C | 0% | 0hPa | 0V | 00:00:00 | 00:00:00 | 00:00:00 | |
| MIELECB | 2026-08-31 12:49:26 | 50.17742 | 21.70666 | 311° | 26km/h | 30595m | 4.9m/s | 0°C | 0% | 0hPa | 0V | 00:00:00 | 00:00:00 | 00:00:00 | |
| SQ9PSP-11 | 2026-08-31 12:49:24 | 50.17736 | 21.70667 | 85° | 11km/h | 30581m | 7.0m/s | 0°C | 0% | 0hPa | 0V | 00:00:00 | 00:00:00 | 00:00:00 | |
| MIELECB | 2026-08-31 12:49:20 | 50.17726 | 21.70650 | 323° | 11km/h | 30552m | 4.2m/s | 0°C | 0% | 0hPa | 0V | 00:00:00 | 00:00:00 | 00:00:00 | |
| AKAW682 | 2026-08-31 12:49:18 | 50.17723 | 21.70659 | 277° | 16km/h | 30541m | 7.2m/s | 0°C | 0% | 0hPa | 0V | 00:00:00 | 00:00:00 | 00:00:00 | |
| MIELECB | 2026-08-31 12:49:14 | 50.17729 | 21.70681 | 301° | 15km/h | 30516m | 8.0m/s | 0°C | 0% | 0hPa | 0V | 00:00:00 | 00:00:00 | 00:00:00 | |
| MIELECB | 2026-08-31 12:49:09 | 50.17726 | 21.70683 | 198° | 15km/h | 30485m | 5.1m/s | 0°C | 0% | 0hPa | 0V | 00:00:00 | 00:00:00 | 00:00:00 | |
| SQ9PSP-11 | 2026-08-31 12:49:07 | 50.17730 | 21.70695 | 263° | 26km/h | 30471m | 6.6m/s | 0°C | 0% | 0hPa | 0V | 00:00:00 | 00:00:00 | 00:00:00 | |
| MIELECB | 2026-08-31 12:49:04 | 50.17725 | 21.70716 | 336° | 11km/h | 30457m | 7.8m/s | 0°C | 0% | 0hPa | 0V | 00:00:00 | 00:00:00 | 00:00:00 | |
| AKAW68 | 2026-08-31 12:49:03 | 50.17722 | 21.70715 | 51° | 15km/h | 30448m | 7.0m/s | 0°C | 0% | 0hPa | 0V | 00:00:00 | 00:00:00 | 00:00:00 | |
| MIELECB | 2026-08-31 12:48:58 | 50.17703 | 21.70698 | 312° | 13km/h | 30414m | 6.2m/s | 0°C | 0% | 0hPa | 0V | 00:00:00 | 00:00:00 | 00:00:00 | |
| MIELECB | 2026-08-31 12:48:53 | 50.17704 | 21.70726 | 344° | 22km/h | 30373m | 7.6m/s | 0°C | 0% | 0hPa | 0V | 00:00:00 | 00:00:00 | 00:00:00 | |
| SQ9PSP-11 | 2026-08-31 12:48:51 | 50.17699 | 21.70727 | 11° | 16km/h | 30366m | 5.6m/s | 0°C | 0% | 0hPa | 0V | 00:00:00 | 00:00:00 | 00:00:00 | |
| MIELECB | 2026-08-31 12:48:47 | 50.17697 | 21.70709 | 141° | 9km/h | 30343m | 6.2m/s | 0°C | 0% | 0hPa | 0V | 00:00:00 | 00:00:00 | 00:00:00 | |
| MIELECB | 2026-08-31 12:48:41 | 50.17684 | 21.70743 | 291° | 15km/h | 30301m | 4.0m/s | 0°C | 0% | 0hPa | 0V | 00:00:00 | 00:00:00 | 00:00:00 | |
| MIELECB | 2026-08-31 12:48:35 | 50.17678 | 21.70749 | 246° | 7km/h | 30264m | 7.6m/s | 0°C | 0% | 0hPa | 0V | 00:00:00 | 00:00:00 | 00:00:00 | |
| SQ9PSP-11 | 2026-08-31 12:48:32 | 50.17683 | 21.70766 | 262° | 20km/h | 30242m | 5.9m/s | 0°C | 0% | 0hPa | 0V | 00:00:00 | 00:00:00 | 00:00:00 | |
| MIELECB | 2026-08-31 12:48:29 | 50.17677 | 21.70784 | 349° | 29km/h | 30218m | 6.8m/s | 0°C | 0% | 0hPa | 0V | 00:00:00 | 00:00:00 | 00:00:00 | |
| AKAW682 | 2026-08-31 12:48:27 | 50.17669 | 21.70783 | 47° | 5km/h | 30204m | 8.5m/s | 0°C | 0% | 0hPa | 0V | 00:00:00 | 00:00:00 | 00:00:00 | |
| MIELECB | 2026-08-31 12:48:23 | 50.17680 | 21.70785 | 230° | 11km/h | 30176m | 7.1m/s | 0°C | 0% | 0hPa | 0V | 00:00:00 | 00:00:00 | 00:00:00 | |
| MIELECB | 2026-08-31 12:48:17 | 50.17671 | 21.70810 | 171° | 13km/h | 30142m | 6.3m/s | 0°C | 0% | 0hPa | 0V | 00:00:00 | 00:00:00 | 00:00:00 | |
| MIELECB | 2026-08-31 12:48:12 | 50.17679 | 21.70821 | 306° | 13km/h | 30108m | 5.9m/s | 0°C | 0% | 0hPa | 0V | 00:00:00 | 00:00:00 | 00:00:00 | |
| MIELECB | 2026-08-31 12:48:06 | 50.17688 | 21.70814 | 149° | 11km/h | 30064m | 6.1m/s | 0°C | 0% | 0hPa | 0V | 00:00:00 | 00:00:00 | 00:00:00 | |
| MIELECB | 2026-08-31 12:48:01 | 50.17706 | 21.70819 | 181° | 9km/h | 30034m | 4.7m/s | 0°C | 0% | 0hPa | 0V | 00:00:00 | 00:00:00 | 00:00:00 | |
| AKAW68 | 2026-08-31 12:47:59 | 50.17706 | 21.70819 | 23° | 7km/h | 30023m | 7.4m/s | 0°C | 0% | 0hPa | 0V | 00:00:00 | 00:00:00 | 00:00:00 | |
| AKAW682 | 2026-08-31 12:47:56 | 50.17705 | 21.70808 | 126° | 18km/h | 30005m | 8.3m/s | 0°C | 0% | 0hPa | 0V | 00:00:00 | 00:00:00 | 00:00:00 | |
| MIELECB | 2026-08-31 12:47:55 | 50.17709 | 21.70803 | 157° | 31km/h | 29997m | 8.1m/s | 0°C | 0% | 0hPa | 0V | 00:00:00 | 00:00:00 | 00:00:00 | |
| MIELECB | 2026-08-31 12:47:49 | 50.17723 | 21.70794 | 76° | 11km/h | 29956m | 6.6m/s | 0°C | 0% | 0hPa | 0V | 00:00:00 | 00:00:00 | 00:00:00 | |
| MIELECB | 2026-08-31 12:47:43 | 50.17735 | 21.70765 | 193° | 24km/h | 29916m | 5.6m/s | 0°C | 0% | 0hPa | 0V | 00:00:00 | 00:00:00 | 00:00:00 | |
| MIELECB | 2026-08-31 12:47:37 | 50.17758 | 21.70758 | 4° | 13km/h | 29870m | 5.5m/s | 0°C | 0% | 0hPa | 0V | 00:00:00 | 00:00:00 | 00:00:00 | |
| MIELECB | 2026-08-31 12:47:31 | 50.17789 | 21.70749 | 173° | 37km/h | 29833m | 4.8m/s | 0°C | 0% | 0hPa | 0V | 00:00:00 | 00:00:00 | 00:00:00 | |
| AKAW682 | 2026-08-31 12:47:30 | 50.17797 | 21.70747 | 168° | 26km/h | 29828m | 6.9m/s | 0°C | 0% | 0hPa | 0V | 00:00:00 | 00:00:00 | 00:00:00 | |
| MIELECB | 2026-08-31 12:47:26 | 50.17796 | 21.70731 | 73° | 24km/h | 29801m | 5.9m/s | 0°C | 0% | 0hPa | 0V | 00:00:00 | 00:00:00 | 00:00:00 | |
| MIELECB | 2026-08-31 12:47:21 | 50.17817 | 21.70706 | 201° | 13km/h | 29768m | 7.8m/s | 0°C | 0% | 0hPa | 0V | 00:00:00 | 00:00:00 | 00:00:00 | |
| MIELECB | 2026-08-31 12:47:15 | 50.17819 | 21.70690 | 102° | 35km/h | 29728m | 5.2m/s | 0°C | 0% | 0hPa | 0V | 00:00:00 | 00:00:00 | 00:00:00 | |
| AKAW68 | 2026-08-31 12:47:13 | 50.17819 | 21.70664 | 78° | 27km/h | 29715m | 6.9m/s | 0°C | 0% | 0hPa | 0V | 00:00:00 | 00:00:00 | 00:00:00 | |
| MIELECB | 2026-08-31 12:47:10 | 50.17816 | 21.70645 | 138° | 9km/h | 29695m | 6.5m/s | 0°C | 0% | 0hPa | 0V | 00:00:00 | 00:00:00 | 00:00:00 | |
| AKAW682 | 2026-08-31 12:47:08 | 50.17821 | 21.70638 | 132° | 18km/h | 29684m | 3.9m/s | 0°C | 0% | 0hPa | 0V | 00:00:00 | 00:00:00 | 00:00:00 | |
| MIELECB | 2026-08-31 12:47:04 | 50.17814 | 21.70601 | 50° | 38km/h | 29656m | 5.8m/s | 0°C | 0% | 0hPa | 0V | 00:00:00 | 00:00:00 | 00:00:00 | |
| MIELECB | 2026-08-31 12:46:59 | 50.17804 | 21.70556 | 93° | 22km/h | 29627m | 6.4m/s | 0°C | 0% | 0hPa | 0V | 00:00:00 | 00:00:00 | 00:00:00 | |
| MIELECB | 2026-08-31 12:46:54 | 50.17804 | 21.70502 | 102° | 27km/h | 29596m | 4.2m/s | 0°C | 0% | 0hPa | 0V | 00:00:00 | 00:00:00 | 00:00:00 | |
| MIELECB | 2026-08-31 12:46:48 | 50.17787 | 21.70453 | 79° | 22km/h | 29561m | 7.9m/s | 0°C | 0% | 0hPa | 0V | 00:00:00 | 00:00:00 | 00:00:00 | |
| MIELECB | 2026-08-31 12:46:43 | 50.17784 | 21.70392 | 57° | 27km/h | 29527m | 2.7m/s | 0°C | 0% | 0hPa | 0V | 00:00:00 | 00:00:00 | 00:00:00 | |
| AKAW682 | 2026-08-31 12:46:38 | 50.17782 | 21.70356 | 99° | 18km/h | 29500m | 7.5m/s | 0°C | 0% | 0hPa | 0V | 00:00:00 | 00:00:00 | 00:00:00 | |
| MIELECB | 2026-08-31 12:46:37 | 50.17782 | 21.70348 | 89° | 20km/h | 29492m | 9.4m/s | 0°C | 0% | 0hPa | 0V | 00:00:00 | 00:00:00 | 00:00:00 | |
| AKAW68 | 2026-08-31 12:46:33 | 50.17781 | 21.70322 | 120° | 11km/h | 29462m | 3.0m/s | 0°C | 0% | 0hPa | 0V | 00:00:00 | 00:00:00 | 00:00:00 | |
| MIELECB | 2026-08-31 12:46:32 | 50.17782 | 21.70318 | 128° | 13km/h | 29459m | 4.1m/s | 0°C | 0% | 0hPa | 0V | 00:00:00 | 00:00:00 | 00:00:00 | |
| MIELECB | 2026-08-31 12:46:28 | 50.17790 | 21.70283 | 132° | 20km/h | 29423m | 6.6m/s | 0°C | 0% | 0hPa | 0V | 00:00:00 | 00:00:00 | 00:00:00 | |
| SQ9PSP-11 | 2026-08-31 12:46:22 | 50.17799 | 21.70257 | 86° | 13km/h | 29394m | 4.6m/s | 0°C | 0% | 0hPa | 0V | 00:00:00 | 00:00:00 | 00:00:00 | |
| MIELECB | 2026-08-31 12:46:21 | 50.17799 | 21.70251 | 102° | 16km/h | 29388m | 5.4m/s | 0°C | 0% | 0hPa | 0V | 00:00:00 | 00:00:00 | 00:00:00 | |
| MIELECB | 2026-08-31 12:46:15 | 50.17812 | 21.70210 | 95° | 22km/h | 29349m | 5.3m/s | 0°C | 0% | 0hPa | 0V | 00:00:00 | 00:00:00 | 00:00:00 | |
| AKAW68 | 2026-08-31 12:46:13 | 50.17820 | 21.70183 | 114° | 31km/h | 29330m | 3.8m/s | 0°C | 0% | 0hPa | 0V | 00:00:00 | 00:00:00 | 00:00:00 | |
| AKAW682 | 2026-08-31 12:46:12 | 50.17822 | 21.70173 | 103° | 27km/h | 29325m | 5.4m/s | 0°C | 0% | 0hPa | 0V | 00:00:00 | 00:00:00 | 00:00:00 | |
| MIELECB | 2026-08-31 12:46:10 | 50.17823 | 21.70160 | 90° | 33km/h | 29319m | 7.9m/s | 0°C | 0% | 0hPa | 0V | 00:00:00 | 00:00:00 | 00:00:00 | |
| SQ9PSP-11 | 2026-08-31 12:46:07 | 50.17821 | 21.70125 | 94° | 31km/h | 29300m | 6.7m/s | 0°C | 0% | 0hPa | 0V | 00:00:00 | 00:00:00 | 00:00:00 | |
| MIELECB | 2026-08-31 12:46:04 | 50.17828 | 21.70093 | 108° | 24km/h | 29281m | 7.5m/s | 0°C | 0% | 0hPa | 0V | 00:00:00 | 00:00:00 | 00:00:00 | |
| MIELECB | 2026-08-31 12:45:58 | 50.17823 | 21.70032 | 105° | 37km/h | 29247m | 4.1m/s | 0°C | 0% | 0hPa | 0V | 00:00:00 | 00:00:00 | 00:00:00 | |
| MIELECB | 2026-08-31 12:45:52 | 50.17807 | 21.69947 | 70° | 24km/h | 29211m | 6.0m/s | 0°C | 0% | 0hPa | 0V | 00:00:00 | 00:00:00 | 00:00:00 | |
| AKAW68 | 2026-08-31 12:45:51 | 50.17807 | 21.69939 | 110° | 20km/h | 29205m | 6.3m/s | 0°C | 0% | 0hPa | 0V | 00:00:00 | 00:00:00 | 00:00:00 | |
| SQ9PSP-11 | 2026-08-31 12:45:50 | 50.17809 | 21.69931 | 121° | 22km/h | 29200m | 3.8m/s | 0°C | 0% | 0hPa | 0V | 00:00:00 | 00:00:00 | 00:00:00 | |
| MIELECB | 2026-08-31 12:45:46 | 50.17798 | 21.69887 | 55° | 40km/h | 29180m | 4.8m/s | 0°C | 0% | 0hPa | 0V | 00:00:00 | 00:00:00 | 00:00:00 | |
| MIELECB | 2026-08-31 12:45:41 | 50.17779 | 21.69837 | 52° | 27km/h | 29148m | 7.1m/s | 0°C | 0% | 0hPa | 0V | 00:00:00 | 00:00:00 | 00:00:00 | |
| MIELECB | 2026-08-31 12:45:36 | 50.17765 | 21.69801 | 77° | 15km/h | 29119m | 4.7m/s | 0°C | 0% | 0hPa | 0V | 00:00:00 | 00:00:00 | 00:00:00 | |
| SQ9PSP-11 | 2026-08-31 12:45:35 | 50.17763 | 21.69794 | 53° | 20km/h | 29113m | 6.0m/s | 0°C | 0% | 0hPa | 0V | 00:00:00 | 00:00:00 | 00:00:00 | |
| AKAW68 | 2026-08-31 12:45:31 | 50.17741 | 21.69768 | 56° | 24km/h | 29089m | 7.3m/s | 0°C | 0% | 0hPa | 0V | 00:00:00 | 00:00:00 | 00:00:00 | |
| MIELECB | 2026-08-31 12:45:30 | 50.17739 | 21.69761 | 94° | 15km/h | 29081m | 7.9m/s | 0°C | 0% | 0hPa | 0V | 00:00:00 | 00:00:00 | 00:00:00 | |
| MIELECB | 2026-08-31 12:45:24 | 50.17736 | 21.69744 | 48° | 20km/h | 29041m | 6.3m/s | 0°C | 0% | 0hPa | 0V | 00:00:00 | 00:00:00 | 00:00:00 | |
| AKAW682 | 2026-08-31 12:45:23 | 50.17734 | 21.69737 | 71° | 20km/h | 29034m | 7.7m/s | 0°C | 0% | 0hPa | 0V | 00:00:00 | 00:00:00 | 00:00:00 | |
| MIELECB | 2026-08-31 12:45:19 | 50.17731 | 21.69686 | 81° | 15km/h | 29003m | 6.5m/s | 0°C | 0% | 0hPa | 0V | 00:00:00 | 00:00:00 | 00:00:00 | |
| MIELECB | 2026-08-31 12:45:12 | 50.17724 | 21.69669 | 30° | 33km/h | 28965m | 3.1m/s | 0°C | 0% | 0hPa | 0V | 00:00:00 | 00:00:00 | 00:00:00 | |
| AKAW68 | 2026-08-31 12:45:11 | 50.17718 | 21.69661 | 48° | 35km/h | 28962m | 5.1m/s | 0°C | 0% | 0hPa | 0V | 00:00:00 | 00:00:00 | 00:00:00 | |
| MIELECB | 2026-08-31 12:45:06 | 50.17715 | 21.69640 | 325° | 5km/h | 28931m | 7.2m/s | 0°C | 0% | 0hPa | 0V | 00:00:00 | 00:00:00 | 00:00:00 | |
| MIELECB | 2026-08-31 12:45:00 | 50.17704 | 21.69644 | 82° | 20km/h | 28897m | 6.4m/s | 0°C | 0% | 0hPa | 0V | 00:00:00 | 00:00:00 | 00:00:00 | |
| AKAW682 | 2026-08-31 12:44:59 | 50.17702 | 21.69635 | 69° | 24km/h | 28890m | 7.2m/s | 0°C | 0% | 0hPa | 0V | 00:00:00 | 00:00:00 | 00:00:00 | |
| MIELECB | 2026-08-31 12:44:55 | 50.17704 | 21.69632 | 226° | 26km/h | 28857m | 6.4m/s | 0°C | 0% | 0hPa | 0V | 00:00:00 | 00:00:00 | 00:00:00 | |
| MIELECB | 2026-08-31 12:44:48 | 50.17702 | 21.69636 | 103° | 22km/h | 28816m | 5.5m/s | 0°C | 0% | 0hPa | 0V | 00:00:00 | 00:00:00 | 00:00:00 | |
| AKAW68 | 2026-08-31 12:44:47 | 50.17705 | 21.69630 | 152° | 20km/h | 28810m | 5.6m/s | 0°C | 0% | 0hPa | 0V | 00:00:00 | 00:00:00 | 00:00:00 | |
| MIELECB | 2026-08-31 12:44:43 | 50.17722 | 21.69648 | 256° | 27km/h | 28784m | 4.4m/s | 0°C | 0% | 0hPa | 0V | 00:00:00 | 00:00:00 | 00:00:00 | |
| MIELECB | 2026-08-31 12:44:37 | 50.17739 | 21.69659 | 94° | 20km/h | 28750m | 6.5m/s | 0°C | 0% | 0hPa | 0V | 00:00:00 | 00:00:00 | 00:00:00 | |
| AKAW682 | 2026-08-31 12:44:34 | 50.17745 | 21.69641 | 157° | 18km/h | 28731m | 6.3m/s | 0°C | 0% | 0hPa | 0V | 00:00:00 | 00:00:00 | 00:00:00 | |
| MIELECB | 2026-08-31 12:44:32 | 50.17759 | 21.69644 | 202° | 27km/h | 28716m | 4.4m/s | 0°C | 0% | 0hPa | 0V | 00:00:00 | 00:00:00 | 00:00:00 | |
| SP8MDH-15 | 2026-08-31 12:44:29 | 50.17772 | 21.69658 | 205° | 9km/h | 28703m | 4.5m/s | 0°C | 0% | 0hPa | 0V | 00:00:00 | 00:00:00 | 00:00:00 | |
| AKAW68 | 2026-08-31 12:44:27 | 50.17777 | 21.69656 | 143° | 20km/h | 28691m | 9.0m/s | 0°C | 0% | 0hPa | 0V | 00:00:00 | 00:00:00 | 00:00:00 | |
| MIELECB | 2026-08-31 12:44:26 | 50.17782 | 21.69649 | 137° | 29km/h | 28683m | 5.9m/s | 0°C | 0% | 0hPa | 0V | 00:00:00 | 00:00:00 | 00:00:00 | |
| MIELECB | 2026-08-31 12:44:20 | 50.17804 | 21.69636 | 181° | 22km/h | 28644m | 6.0m/s | 0°C | 0% | 0hPa | 0V | 00:00:00 | 00:00:00 | 00:00:00 | |
| SQ9PSP-11 | 2026-08-31 12:44:15 | 50.17826 | 21.69597 | 108° | 27km/h | 28616m | 3.8m/s | 0°C | 0% | 0hPa | 0V | 00:00:00 | 00:00:00 | 00:00:00 | |
| MIELECB | 2026-08-31 12:44:14 | 50.17828 | 21.69587 | 114° | 26km/h | 28611m | 7.0m/s | 0°C | 0% | 0hPa | 0V | 00:00:00 | 00:00:00 | 00:00:00 | |
| MIELECB | 2026-08-31 12:44:09 | 50.17848 | 21.69583 | 182° | 9km/h | 28579m | 4.5m/s | 0°C | 0% | 0hPa | 0V | 00:00:00 | 00:00:00 | 00:00:00 | |
| AKAW68 | 2026-08-31 12:44:07 | 50.17855 | 21.69575 | 145° | 35km/h | 28569m | 7.2m/s | 0°C | 0% | 0hPa | 0V | 00:00:00 | 00:00:00 | 00:00:00 | |
| MIELECB | 2026-08-31 12:44:03 | 50.17876 | 21.69523 | 110° | 29km/h | 28545m | 7.1m/s | 0°C | 0% | 0hPa | 0V | 00:00:00 | 00:00:00 | 00:00:00 | |
| MIELECB | 2026-08-31 12:43:58 | 50.17886 | 21.69499 | 151° | 27km/h | 28514m | 8.2m/s | 0°C | 0% | 0hPa | 0V | 00:00:00 | 00:00:00 | 00:00:00 | |
| SQ9PSP-11 | 2026-08-31 12:43:57 | 50.17893 | 21.69490 | 133° | 46km/h | 28507m | 7.1m/s | 0°C | 0% | 0hPa | 0V | 00:00:00 | 00:00:00 | 00:00:00 | |
| MIELECB | 2026-08-31 12:43:53 | 50.17907 | 21.69419 | 103° | 26km/h | 28470m | 8.7m/s | 0°C | 0% | 0hPa | 0V | 00:00:00 | 00:00:00 | 00:00:00 | |
| SQ9PSP-11 | 2026-08-31 12:43:42 | 50.17927 | 21.69265 | 78° | 40km/h | 28405m | 6.5m/s | 0°C | 0% | 0hPa | 0V | 00:00:00 | 00:00:00 | 00:00:00 | |
| MIELECB | 2026-08-31 12:43:41 | 50.17925 | 21.69250 | 71° | 37km/h | 28398m | 7.3m/s | 0°C | 0% | 0hPa | 0V | 00:00:00 | 00:00:00 | 00:00:00 | |
| MIELECB | 2026-08-31 12:43:36 | 50.17930 | 21.69180 | 100° | 46km/h | 28367m | 6.5m/s | 0°C | 0% | 0hPa | 0V | 00:00:00 | 00:00:00 | 00:00:00 | |
| MIELECB | 2026-08-31 12:43:30 | 50.17919 | 21.69107 | 75° | 46km/h | 28321m | 4.9m/s | 0°C | 0% | 0hPa | 0V | 00:00:00 | 00:00:00 | 00:00:00 | |
| SQ9PSP-11 | 2026-08-31 12:43:26 | 50.17915 | 21.69049 | 87° | 27km/h | 28297m | 7.2m/s | 0°C | 0% | 0hPa | 0V | 00:00:00 | 00:00:00 | 00:00:00 | |
| MIELECB | 2026-08-31 12:43:24 | 50.17913 | 21.69028 | 68° | 27km/h | 28283m | 7.0m/s | 0°C | 0% | 0hPa | 0V | 00:00:00 | 00:00:00 | 00:00:00 | |
| AKAW68 | 2026-08-31 12:43:23 | 50.17909 | 21.69017 | 60° | 33km/h | 28276m | 7.4m/s | 0°C | 0% | 0hPa | 0V | 00:00:00 | 00:00:00 | 00:00:00 | |
| MIELECB | 2026-08-31 12:43:18 | 50.17892 | 21.68968 | 64° | 37km/h | 28238m | 8.4m/s | 0°C | 0% | 0hPa | 0V | 00:00:00 | 00:00:00 | 00:00:00 | |
| AKAW682 | 2026-08-31 12:43:16 | 50.17886 | 21.68942 | 72° | 31km/h | 28224m | 7.5m/s | 0°C | 0% | 0hPa | 0V | 00:00:00 | 00:00:00 | 00:00:00 | |
| MIELECB | 2026-08-31 12:43:12 | 50.17873 | 21.68929 | 355° | 22km/h | 28196m | 5.1m/s | 0°C | 0% | 0hPa | 0V | 00:00:00 | 00:00:00 | 00:00:00 | |
| SQ9PSP-11 | 2026-08-31 12:43:10 | 50.17865 | 21.68919 | 70° | 31km/h | 28185m | 6.3m/s | 0°C | 0% | 0hPa | 0V | 00:00:00 | 00:00:00 | 00:00:00 | |
| MIELECB | 2026-08-31 12:43:06 | 50.17867 | 21.68867 | 98° | 24km/h | 28157m | 5.4m/s | 0°C | 0% | 0hPa | 0V | 00:00:00 | 00:00:00 | 00:00:00 | |
| AKAW68 | 2026-08-31 12:43:03 | 50.17863 | 21.68839 | 60° | 29km/h | 28135m | 5.6m/s | 0°C | 0% | 0hPa | 0V | 00:00:00 | 00:00:00 | 00:00:00 | |
| MIELECB | 2026-08-31 12:43:01 | 50.17857 | 21.68819 | 60° | 24km/h | 28122m | 5.6m/s | 0°C | 0% | 0hPa | 0V | 00:00:00 | 00:00:00 | 00:00:00 | |
| MIELECB | 2026-08-31 12:42:56 | 50.17856 | 21.68757 | 82° | 40km/h | 28094m | 5.9m/s | 0°C | 0% | 0hPa | 0V | 00:00:00 | 00:00:00 | 00:00:00 | |
| SQ9PSP-11 | 2026-08-31 12:42:55 | 50.17853 | 21.68742 | 73° | 35km/h | 28088m | 7.5m/s | 0°C | 0% | 0hPa | 0V | 00:00:00 | 00:00:00 | 00:00:00 | |
| MIELECB | 2026-08-31 12:42:50 | 50.17846 | 21.68686 | 79° | 37km/h | 28052m | 6.0m/s | 0°C | 0% | 0hPa | 0V | 00:00:00 | 00:00:00 | 00:00:00 | |
| MIELECB | 2026-08-31 12:42:37 | 50.17826 | 21.68540 | 81° | 44km/h | 27966m | 8.1m/s | 0°C | 0% | 0hPa | 0V | 00:00:00 | 00:00:00 | 00:00:00 | |
| MIELECB | 2026-08-31 12:42:31 | 50.17808 | 21.68483 | 49° | 24km/h | 27928m | 6.3m/s | 0°C | 0% | 0hPa | 0V | 00:00:00 | 00:00:00 | 00:00:00 | |
| MIELECB | 2026-08-31 12:42:27 | 50.17790 | 21.68428 | 76° | 31km/h | 27891m | 7.4m/s | 0°C | 0% | 0hPa | 0V | 00:00:00 | 00:00:00 | 00:00:00 | |
| SQ9PSP-11 | 2026-08-31 12:42:24 | 50.17786 | 21.68403 | 74° | 33km/h | 27876m | 6.8m/s | 0°C | 0% | 0hPa | 0V | 00:00:00 | 00:00:00 | 00:00:00 | |
| MIELECB | 2026-08-31 12:42:21 | 50.17777 | 21.68381 | 15° | 13km/h | 27858m | 7.3m/s | 0°C | 0% | 0hPa | 0V | 00:00:00 | 00:00:00 | 00:00:00 | |
| AKAW68 | 2026-08-31 12:42:17 | 50.17748 | 21.68349 | 63° | 51km/h | 27828m | 6.5m/s | 0°C | 0% | 0hPa | 0V | 00:00:00 | 00:00:00 | 00:00:00 | |
| MIELECB | 2026-08-31 12:42:15 | 50.17743 | 21.68334 | 68° | 40km/h | 27821m | 5.4m/s | 0°C | 0% | 0hPa | 0V | 00:00:00 | 00:00:00 | 00:00:00 | |
| MIELECB | 2026-08-31 12:42:09 | 50.17719 | 21.68302 | 33° | 26km/h | 27784m | 3.6m/s | 0°C | 0% | 0hPa | 0V | 00:00:00 | 00:00:00 | 00:00:00 | |
| MIELECB | 2026-08-31 12:42:03 | 50.17699 | 21.68272 | 51° | 26km/h | 27747m | 5.7m/s | 0°C | 0% | 0hPa | 0V | 00:00:00 | 00:00:00 | 00:00:00 | |
| MIELECB | 2026-08-31 12:41:58 | 50.17680 | 21.68269 | 340° | 24km/h | 27717m | 4.4m/s | 0°C | 0% | 0hPa | 0V | 00:00:00 | 00:00:00 | 00:00:00 | |
| MIELECB | 2026-08-31 12:41:53 | 50.17666 | 21.68249 | 109° | 9km/h | 27684m | 6.5m/s | 0°C | 0% | 0hPa | 0V | 00:00:00 | 00:00:00 | 00:00:00 | |
| SQ9PSP-11 | 2026-08-31 12:41:52 | 50.17667 | 21.68247 | 108° | 5km/h | 27678m | 5.4m/s | 0°C | 0% | 0hPa | 0V | 00:00:00 | 00:00:00 | 00:00:00 | |
| MIELECB | 2026-08-31 12:41:47 | 50.17653 | 21.68245 | 339° | 16km/h | 27652m | 6.4m/s | 0°C | 0% | 0hPa | 0V | 00:00:00 | 00:00:00 | 00:00:00 | |
| MIELECB | 2026-08-31 12:41:42 | 50.17653 | 21.68255 | 77° | 11km/h | 27623m | 8.1m/s | 0°C | 0% | 0hPa | 0V | 00:00:00 | 00:00:00 | 00:00:00 | |
| MIELECB | 2026-08-31 12:41:36 | 50.17651 | 21.68239 | 314° | 4km/h | 27585m | 7.4m/s | 0°C | 0% | 0hPa | 0V | 00:00:00 | 00:00:00 | 00:00:00 | |
| MIELECB | 2026-08-31 12:41:31 | 50.17649 | 21.68242 | 260° | 4km/h | 27554m | 5.0m/s | 0°C | 0% | 0hPa | 0V | 00:00:00 | 00:00:00 | 00:00:00 | |
| AKAW682 | 2026-08-31 12:41:29 | 50.17647 | 21.68242 | 49° | 9km/h | 27541m | 8.1m/s | 0°C | 0% | 0hPa | 0V | 00:00:00 | 00:00:00 | 00:00:00 | |
| MIELECB | 2026-08-31 12:41:25 | 50.17644 | 21.68227 | 0° | 0km/h | 27517m | 6.6m/s | 0°C | 0% | 0hPa | 0V | 00:00:00 | 00:00:00 | 00:00:00 | |
| AKAW68 | 2026-08-31 12:41:23 | 50.17642 | 21.68229 | 350° | 9km/h | 27505m | 6.5m/s | 0°C | 0% | 0hPa | 0V | 00:00:00 | 00:00:00 | 00:00:00 | |
| SQ9PSP-11 | 2026-08-31 12:41:21 | 50.17636 | 21.68229 | 357° | 16km/h | 27491m | 4.3m/s | 0°C | 0% | 0hPa | 0V | 00:00:00 | 00:00:00 | 00:00:00 | |
| MIELECB | 2026-08-31 12:41:20 | 50.17633 | 21.68229 | 354° | 11km/h | 27484m | 3.9m/s | 0°C | 0% | 0hPa | 0V | 00:00:00 | 00:00:00 | 00:00:00 | |
| MIELECB | 2026-08-31 12:41:15 | 50.17635 | 21.68205 | 89° | 20km/h | 27453m | 4.8m/s | 0°C | 0% | 0hPa | 0V | 00:00:00 | 00:00:00 | 00:00:00 | |
| MIELECB | 2026-08-31 12:41:09 | 50.17626 | 21.68205 | 358° | 16km/h | 27420m | 7.1m/s | 0°C | 0% | 0hPa | 0V | 00:00:00 | 00:00:00 | 00:00:00 | |
| SQ9PSP-11 | 2026-08-31 12:41:06 | 50.17620 | 21.68191 | 100° | 15km/h | 27401m | 6.4m/s | 0°C | 0% | 0hPa | 0V | 00:00:00 | 00:00:00 | 00:00:00 | |
| MIELECB | 2026-08-31 12:41:04 | 50.17622 | 21.68183 | 118° | 7km/h | 27391m | 5.4m/s | 0°C | 0% | 0hPa | 0V | 00:00:00 | 00:00:00 | 00:00:00 | |
| AKAW68 | 2026-08-31 12:41:00 | 50.17610 | 21.68180 | 343° | 18km/h | 27367m | 6.8m/s | 0°C | 0% | 0hPa | 0V | 00:00:00 | 00:00:00 | 00:00:00 | |
| MIELECB | 2026-08-31 12:40:58 | 50.17605 | 21.68188 | 293° | 11km/h | 27355m | 5.8m/s | 0°C | 0% | 0hPa | 0V | 00:00:00 | 00:00:00 | 00:00:00 | |
| AKAW682 | 2026-08-31 12:40:56 | 50.17605 | 21.68189 | 93° | 5km/h | 27345m | 7.0m/s | 0°C | 0% | 0hPa | 0V | 00:00:00 | 00:00:00 | 00:00:00 | |
| MIELECB | 2026-08-31 12:40:52 | 50.17606 | 21.68171 | 173° | 9km/h | 27324m | 7.2m/s | 0°C | 0% | 0hPa | 0V | 00:00:00 | 00:00:00 | 00:00:00 | |
| SQ9PSP-11 | 2026-08-31 12:40:50 | 50.17611 | 21.68173 | 213° | 11km/h | 27312m | 5.7m/s | 0°C | 0% | 0hPa | 0V | 00:00:00 | 00:00:00 | 00:00:00 | |
| MIELECB | 2026-08-31 12:40:47 | 50.17610 | 21.68172 | 34° | 15km/h | 27294m | 5.8m/s | 0°C | 0% | 0hPa | 0V | 00:00:00 | 00:00:00 | 00:00:00 | |
| MIELECB | 2026-08-31 12:40:42 | 50.17610 | 21.68179 | 194° | 11km/h | 27263m | 7.2m/s | 0°C | 0% | 0hPa | 0V | 00:00:00 | 00:00:00 | 00:00:00 | |
| AKAW68 | 2026-08-31 12:40:39 | 50.17614 | 21.68178 | 129° | 5km/h | 27251m | 5.9m/s | 0°C | 0% | 0hPa | 0V | 00:00:00 | 00:00:00 | 00:00:00 | |
| SQ9PSP-11 | 2026-08-31 12:40:35 | 50.17622 | 21.68180 | 195° | 15km/h | 27227m | 6.5m/s | 0°C | 0% | 0hPa | 0V | 00:00:00 | 00:00:00 | 00:00:00 | |
| MIELECB | 2026-08-31 12:40:30 | 50.17639 | 21.68190 | 195° | 22km/h | 27194m | 5.7m/s | 0°C | 0% | 0hPa | 0V | 00:00:00 | 00:00:00 | 00:00:00 | |
| MIELECB | 2026-08-31 12:40:24 | 50.17657 | 21.68176 | 170° | 18km/h | 27159m | 7.1m/s | 0°C | 0% | 0hPa | 0V | 00:00:00 | 00:00:00 | 00:00:00 | |
| MIELECB | 2026-08-31 12:40:19 | 50.17677 | 21.68167 | 131° | 18km/h | 27131m | 5.4m/s | 0°C | 0% | 0hPa | 0V | 00:00:00 | 00:00:00 | 00:00:00 | |
| AKAW68 | 2026-08-31 12:40:16 | 50.17691 | 21.68156 | 169° | 24km/h | 27114m | 5.7m/s | 0°C | 0% | 0hPa | 0V | 00:00:00 | 00:00:00 | 00:00:00 | |
| MIELECB | 2026-08-31 12:40:13 | 50.17701 | 21.68146 | 91° | 13km/h | 27098m | 6.8m/s | 0°C | 0% | 0hPa | 0V | 00:00:00 | 00:00:00 | 00:00:00 | |
| MIELECB | 2026-08-31 12:40:08 | 50.17702 | 21.68135 | 150° | 18km/h | 27074m | 4.8m/s | 0°C | 0% | 0hPa | 0V | 00:00:00 | 00:00:00 | 00:00:00 | |
| AKAW682 | 2026-08-31 12:40:07 | 50.17706 | 21.68130 | 140° | 26km/h | 27068m | 7.0m/s | 0°C | 0% | 0hPa | 0V | 00:00:00 | 00:00:00 | 00:00:00 | |
| SQ9PSP-11 | 2026-08-31 12:40:04 | 50.17719 | 21.68101 | 123° | 29km/h | 27046m | 7.6m/s | 0°C | 0% | 0hPa | 0V | 00:00:00 | 00:00:00 | 00:00:00 | |
| MIELECB | 2026-08-31 12:40:02 | 50.17726 | 21.68090 | 137° | 13km/h | 27032m | 5.8m/s | 0°C | 0% | 0hPa | 0V | 00:00:00 | 00:00:00 | 00:00:00 | |
| MIELECB | 2026-08-31 12:39:56 | 50.17727 | 21.68058 | 121° | 26km/h | 26995m | 4.2m/s | 0°C | 0% | 0hPa | 0V | 00:00:00 | 00:00:00 | 00:00:00 | |
| AKAW68 | 2026-08-31 12:39:51 | 50.17731 | 21.68014 | 71° | 15km/h | 26967m | 5.3m/s | 0°C | 0% | 0hPa | 0V | 00:00:00 | 00:00:00 | 00:00:00 | |
| MIELECB | 2026-08-31 12:39:50 | 50.17730 | 21.68009 | 96° | 11km/h | 26963m | 6.4m/s | 0°C | 0% | 0hPa | 0V | 00:00:00 | 00:00:00 | 00:00:00 | |
| SQ9PSP-11 | 2026-08-31 12:39:47 | 50.17726 | 21.67996 | 56° | 18km/h | 26946m | 6.8m/s | 0°C | 0% | 0hPa | 0V | 00:00:00 | 00:00:00 | 00:00:00 | |
| MIELECB | 2026-08-31 12:39:45 | 50.17721 | 21.67980 | 70° | 27km/h | 26933m | 5.8m/s | 0°C | 0% | 0hPa | 0V | 00:00:00 | 00:00:00 | 00:00:00 | |
| AKAW682 | 2026-08-31 12:39:40 | 50.17716 | 21.67949 | 29° | 22km/h | 26903m | 5.9m/s | 0°C | 0% | 0hPa | 0V | 00:00:00 | 00:00:00 | 00:00:00 | |
| OM5KV | 2026-08-31 12:39:39 | 50.17701 | 21.67940 | 19° | 31km/h | 26891m | 4.5m/s | 0°C | 0% | 0hPa | 0V | 00:00:00 | 00:00:00 | 00:00:00 | |
| OM5KV | 2026-08-31 12:39:37 | 50.17694 | 21.67936 | 21° | 27km/h | 26886m | 5.0m/s | 0°C | 0% | 0hPa | 0V | 00:00:00 | 00:00:00 | 00:00:00 | |
| MIELECB | 2026-08-31 12:39:33 | 50.17682 | 21.67917 | 48° | 20km/h | 26866m | 6.8m/s | 0°C | 0% | 0hPa | 0V | 00:00:00 | 00:00:00 | 00:00:00 | |
| OM5KV | 2026-08-31 12:39:32 | 50.17678 | 21.67911 | 37° | 20km/h | 26860m | 6.0m/s | 0°C | 0% | 0hPa | 0V | 00:00:00 | 00:00:00 | 00:00:00 | |
| AKAW68 | 2026-08-31 12:39:31 | 50.17673 | 21.67907 | 27° | 22km/h | 26855m | 6.0m/s | 0°C | 0% | 0hPa | 0V | 00:00:00 | 00:00:00 | 00:00:00 | |
| MIELECB | 2026-08-31 12:39:28 | 50.17659 | 21.67905 | 350° | 18km/h | 26838m | 4.8m/s | 0°C | 0% | 0hPa | 0V | 00:00:00 | 00:00:00 | 00:00:00 | |
| OM5KV | 2026-08-31 12:39:26 | 50.17648 | 21.67903 | 16° | 27km/h | 26825m | 5.6m/s | 0°C | 0% | 0hPa | 0V | 00:00:00 | 00:00:00 | 00:00:00 | |
| MIELECB | 2026-08-31 12:39:22 | 50.17632 | 21.67883 | 137° | 15km/h | 26801m | 6.6m/s | 0°C | 0% | 0hPa | 0V | 00:00:00 | 00:00:00 | 00:00:00 | |
| OM5KV | 2026-08-31 12:39:21 | 50.17633 | 21.67879 | 91° | 7km/h | 26795m | 7.1m/s | 0°C | 0% | 0hPa | 0V | 00:00:00 | 00:00:00 | 00:00:00 | |
| AKAW682 | 2026-08-31 12:39:20 | 50.17633 | 21.67877 | 53° | 5km/h | 26787m | 6.2m/s | 0°C | 0% | 0hPa | 0V | 00:00:00 | 00:00:00 | 00:00:00 | |
| MIELECB | 2026-08-31 12:39:18 | 50.17617 | 21.67874 | 357° | 35km/h | 26768m | 4.3m/s | 0°C | 0% | 0hPa | 0V | 00:00:00 | 00:00:00 | 00:00:00 | |
| SQ9PSP-11 | 2026-08-31 12:39:15 | 50.17603 | 21.67880 | 335° | 26km/h | 26757m | 6.4m/s | 0°C | 0% | 0hPa | 0V | 00:00:00 | 00:00:00 | 00:00:00 | |
| MIELECB | 2026-08-31 12:39:11 | 50.17601 | 21.67878 | 98° | 18km/h | 26737m | 6.4m/s | 0°C | 0% | 0hPa | 0V | 00:00:00 | 00:00:00 | 00:00:00 | |
| MIELECB | 2026-08-31 12:39:05 | 50.17590 | 21.67880 | 328° | 26km/h | 26701m | 7.2m/s | 0°C | 0% | 0hPa | 0V | 00:00:00 | 00:00:00 | 00:00:00 | |
| OM5KV | 2026-08-31 12:39:03 | 50.17582 | 21.67888 | 330° | 5km/h | 26689m | 8.6m/s | 0°C | 0% | 0hPa | 0V | 00:00:00 | 00:00:00 | 00:00:00 | |
| AKAW68 | 2026-08-31 12:39:01 | 50.17584 | 21.67890 | 190° | 15km/h | 26672m | 8.0m/s | 0°C | 0% | 0hPa | 0V | 00:00:00 | 00:00:00 | 00:00:00 | |
| SQ9PSP-11 | 2026-08-31 12:39:00 | 50.17589 | 21.67892 | 187° | 16km/h | 26665m | 7.2m/s | 0°C | 0% | 0hPa | 0V | 00:00:00 | 00:00:00 | 00:00:00 | |
| MIELECB | 2026-08-31 12:38:59 | 50.17591 | 21.67893 | 245° | 7km/h | 26657m | 8.0m/s | 0°C | 0% | 0hPa | 0V | 00:00:00 | 00:00:00 | 00:00:00 | |
| OM5KV | 2026-08-31 12:38:57 | 50.17589 | 21.67902 | 314° | 18km/h | 26642m | 6.0m/s | 0°C | 0% | 0hPa | 0V | 00:00:00 | 00:00:00 | 00:00:00 | |
| AKAW682 | 2026-08-31 12:38:56 | 50.17586 | 21.67908 | 302° | 20km/h | 26635m | 7.0m/s | 0°C | 0% | 0hPa | 0V | 00:00:00 | 00:00:00 | 00:00:00 | |
| MIELECB | 2026-08-31 12:38:54 | 50.17583 | 21.67924 | 301° | 20km/h | 26622m | 5.3m/s | 0°C | 0% | 0hPa | 0V | 00:00:00 | 00:00:00 | 00:00:00 | |
| OM5KV | 2026-08-31 12:38:51 | 50.17580 | 21.67931 | 162° | 9km/h | 26604m | 7.2m/s | 0°C | 0% | 0hPa | 0V | 00:00:00 | 00:00:00 | 00:00:00 | |
| MIELECB | 2026-08-31 12:38:49 | 50.17588 | 21.67930 | 186° | 22km/h | 26588m | 5.9m/s | 0°C | 0% | 0hPa | 0V | 00:00:00 | 00:00:00 | 00:00:00 | |
| OM5KV | 2026-08-31 12:38:44 | 50.17590 | 21.67946 | 301° | 18km/h | 26556m | 6.3m/s | 0°C | 0% | 0hPa | 0V | 00:00:00 | 00:00:00 | 00:00:00 | |
| MIELECB | 2026-08-31 12:38:43 | 50.17589 | 21.67951 | 259° | 15km/h | 26550m | 7.1m/s | 0°C | 0% | 0hPa | 0V | 00:00:00 | 00:00:00 | 00:00:00 | |
| MIELECB | 2026-08-31 12:38:38 | 50.17605 | 21.67960 | 194° | 13km/h | 26520m | 5.6m/s | 0°C | 0% | 0hPa | 0V | 00:00:00 | 00:00:00 | 00:00:00 | |
| AKAW68 | 2026-08-31 12:38:37 | 50.17612 | 21.67969 | 239° | 24km/h | 26506m | 6.7m/s | 0°C | 0% | 0hPa | 0V | 00:00:00 | 00:00:00 | 00:00:00 | |
| OM5KV | 2026-08-31 12:38:35 | 50.17614 | 21.67978 | 252° | 22km/h | 26500m | 5.2m/s | 0°C | 0% | 0hPa | 0V | 00:00:00 | 00:00:00 | 00:00:00 | |
| MIELECB | 2026-08-31 12:38:32 | 50.17616 | 21.67992 | 166° | 7km/h | 26481m | 5.2m/s | 0°C | 0% | 0hPa | 0V | 00:00:00 | 00:00:00 | 00:00:00 | |
| OM5KV | 2026-08-31 12:38:27 | 50.17637 | 21.67983 | 171° | 9km/h | 26448m | 6.0m/s | 0°C | 0% | 0hPa | 0V | 00:00:00 | 00:00:00 | 00:00:00 | |
| MIELECB | 2026-08-31 12:38:26 | 50.17639 | 21.67984 | 218° | 7km/h | 26442m | 6.3m/s | 0°C | 0% | 0hPa | 0V | 00:00:00 | 00:00:00 | 00:00:00 | |
| OM5KV | 2026-08-31 12:38:21 | 50.17655 | 21.68008 | 199° | 22km/h | 26415m | 4.0m/s | 0°C | 0% | 0hPa | 0V | 00:00:00 | 00:00:00 | 00:00:00 | |
| MIELECB | 2026-08-31 12:38:20 | 50.17659 | 21.68010 | 185° | 16km/h | 26411m | 4.7m/s | 0°C | 0% | 0hPa | 0V | 00:00:00 | 00:00:00 | 00:00:00 | |
| MIELECB | 2026-08-31 12:38:15 | 50.17678 | 21.68022 | 206° | 13km/h | 26375m | 7.3m/s | 0°C | 0% | 0hPa | 0V | 00:00:00 | 00:00:00 | 00:00:00 | |
| OM5KV | 2026-08-31 12:38:13 | 50.17680 | 21.68022 | 170° | 5km/h | 26367m | 5.6m/s | 0°C | 0% | 0hPa | 0V | 00:00:00 | 00:00:00 | 00:00:00 | |
| SQ9PSP-11 | 2026-08-31 12:38:10 | 50.17689 | 21.68015 | 170° | 24km/h | 26349m | 7.2m/s | 0°C | 0% | 0hPa | 0V | 00:00:00 | 00:00:00 | 00:00:00 | |
| MIELECB | 2026-08-31 12:38:08 | 50.17700 | 21.68014 | 171° | 20km/h | 26337m | 4.7m/s | 0°C | 0% | 0hPa | 0V | 00:00:00 | 00:00:00 | 00:00:00 | |
| AKAW68 | 2026-08-31 12:38:07 | 50.17705 | 21.68012 | 172° | 20km/h | 26331m | 6.4m/s | 0°C | 0% | 0hPa | 0V | 00:00:00 | 00:00:00 | 00:00:00 | |
| MIELECB | 2026-08-31 12:38:02 | 50.17714 | 21.68003 | 181° | 11km/h | 26301m | 6.7m/s | 0°C | 0% | 0hPa | 0V | 00:00:00 | 00:00:00 | 00:00:00 | |
| OM5KV | 2026-08-31 12:38:01 | 50.17716 | 21.68003 | 162° | 9km/h | 26295m | 5.9m/s | 0°C | 0% | 0hPa | 0V | 00:00:00 | 00:00:00 | 00:00:00 | |
| MIELECB | 2026-08-31 12:37:57 | 50.17725 | 21.67982 | 138° | 24km/h | 26267m | 6.9m/s | 0°C | 0% | 0hPa | 0V | 00:00:00 | 00:00:00 | 00:00:00 | |
| OM5KV | 2026-08-31 12:37:56 | 50.17731 | 21.67977 | 158° | 26km/h | 26260m | 5.7m/s | 0°C | 0% | 0hPa | 0V | 00:00:00 | 00:00:00 | 00:00:00 | |
| SQ9PSP-11 | 2026-08-31 12:37:54 | 50.17740 | 21.67971 | 141° | 16km/h | 26247m | 6.8m/s | 0°C | 0% | 0hPa | 0V | 00:00:00 | 00:00:00 | 00:00:00 | |
| MIELECB | 2026-08-31 12:37:51 | 50.17742 | 21.67956 | 101° | 13km/h | 26230m | 6.7m/s | 0°C | 0% | 0hPa | 0V | 00:00:00 | 00:00:00 | 00:00:00 | |
| AKAW682 | 2026-08-31 12:37:50 | 50.17742 | 21.67951 | 110° | 13km/h | 26222m | 7.1m/s | 0°C | 0% | 0hPa | 0V | 00:00:00 | 00:00:00 | 00:00:00 | |
| MIELECB | 2026-08-31 12:37:46 | 50.17754 | 21.67934 | 91° | 15km/h | 26197m | 6.3m/s | 0°C | 0% | 0hPa | 0V | 00:00:00 | 00:00:00 | 00:00:00 | |
| OM5KV | 2026-08-31 12:37:40 | 50.17754 | 21.67901 | 117° | 18km/h | 26160m | 5.3m/s | 0°C | 0% | 0hPa | 0V | 00:00:00 | 00:00:00 | 00:00:00 | |
| OM5KV | 2026-08-31 12:37:39 | 50.17755 | 21.67894 | 100° | 18km/h | 26154m | 6.9m/s | 0°C | 0% | 0hPa | 0V | 00:00:00 | 00:00:00 | 00:00:00 | |
| OM5KV | 2026-08-31 12:37:36 | 50.17757 | 21.67872 | 106° | 15km/h | 26133m | 5.1m/s | 0°C | 0% | 0hPa | 0V | 00:00:00 | 00:00:00 | 00:00:00 | |
| OM5KV | 2026-08-31 12:37:34 | 50.17758 | 21.67861 | 97° | 18km/h | 26121m | 6.1m/s | 0°C | 0% | 0hPa | 0V | 00:00:00 | 00:00:00 | 00:00:00 | |
| AKAW682 | 2026-08-31 12:37:30 | 50.17756 | 21.67843 | 96° | 15km/h | 26104m | 8.4m/s | 0°C | 0% | 0hPa | 0V | 00:00:00 | 00:00:00 | 00:00:00 | |
| OM5KV | 2026-08-31 12:37:29 | 50.17756 | 21.67838 | 104° | 11km/h | 26096m | 7.9m/s | 0°C | 0% | 0hPa | 0V | 00:00:00 | 00:00:00 | 00:00:00 | |
| OM5KV | 2026-08-31 12:37:27 | 50.17756 | 21.67833 | 70° | 9km/h | 26086m | 5.8m/s | 0°C | 0% | 0hPa | 0V | 00:00:00 | 00:00:00 | 00:00:00 | |
| AKAW68 | 2026-08-31 12:37:25 | 50.17751 | 21.67818 | 59° | 29km/h | 26075m | 6.2m/s | 0°C | 0% | 0hPa | 0V | 00:00:00 | 00:00:00 | 00:00:00 | |
| MIELECB | 2026-08-31 12:37:24 | 50.17747 | 21.67810 | 53° | 26km/h | 26069m | 4.5m/s | 0°C | 0% | 0hPa | 0V | 00:00:00 | 00:00:00 | 00:00:00 | |
| SQ9PSP-11 | 2026-08-31 12:37:23 | 50.17744 | 21.67803 | 68° | 18km/h | 26064m | 6.0m/s | 0°C | 0% | 0hPa | 0V | 00:00:00 | 00:00:00 | 00:00:00 | |
| OM5KV | 2026-08-31 12:37:19 | 50.17745 | 21.67788 | 75° | 13km/h | 26039m | 5.0m/s | 0°C | 0% | 0hPa | 0V | 00:00:00 | 00:00:00 | 00:00:00 | |
| MIELECB | 2026-08-31 12:37:18 | 50.17744 | 21.67782 | 61° | 16km/h | 26035m | 4.7m/s | 0°C | 0% | 0hPa | 0V | 00:00:00 | 00:00:00 | 00:00:00 | |
| MIELECB | 2026-08-31 12:37:13 | 50.17727 | 21.67767 | 64° | 13km/h | 26010m | 6.0m/s | 0°C | 0% | 0hPa | 0V | 00:00:00 | 00:00:00 | 00:00:00 | |
| OM5KV | 2026-08-31 12:37:09 | 50.17719 | 21.67749 | 17° | 16km/h | 25989m | 8.4m/s | 0°C | 0% | 0hPa | 0V | 00:00:00 | 00:00:00 | 00:00:00 | |
| AKAW682 | 2026-08-31 12:37:08 | 50.17714 | 21.67749 | 357° | 22km/h | 25981m | 6.9m/s | 0°C | 0% | 0hPa | 0V | 00:00:00 | 00:00:00 | 00:00:00 | |
| MIELECB | 2026-08-31 12:37:07 | 50.17708 | 21.67748 | 10° | 24km/h | 25975m | 6.9m/s | 0°C | 0% | 0hPa | 0V | 00:00:00 | 00:00:00 | 00:00:00 | |
| MIELECB | 2026-08-31 12:37:01 | 50.17677 | 21.67743 | 324° | 11km/h | 25942m | 7.1m/s | 0°C | 0% | 0hPa | 0V | 00:00:00 | 00:00:00 | 00:00:00 | |
| OM5KV | 2026-08-31 12:36:58 | 50.17663 | 21.67742 | 32° | 18km/h | 25921m | 5.2m/s | 0°C | 0% | 0hPa | 0V | 00:00:00 | 00:00:00 | 00:00:00 | |
| MIELECB | 2026-08-31 12:36:55 | 50.17651 | 21.67740 | 336° | 13km/h | 25903m | 5.2m/s | 0°C | 0% | 0hPa | 0V | 00:00:00 | 00:00:00 | 00:00:00 | |
| SQ9PSP-11 | 2026-08-31 12:36:53 | 50.17646 | 21.67747 | 330° | 13km/h | 25895m | 5.4m/s | 0°C | 0% | 0hPa | 0V | 00:00:00 | 00:00:00 | 00:00:00 | |
| MIELECB | 2026-08-31 12:36:49 | 50.17633 | 21.67756 | 308° | 15km/h | 25872m | 8.0m/s | 0°C | 0% | 0hPa | 0V | 00:00:00 | 00:00:00 | 00:00:00 | |
| AKAW682 | 2026-08-31 12:36:47 | 50.17628 | 21.67767 | 300° | 13km/h | 25860m | 5.3m/s | 0°C | 0% | 0hPa | 0V | 00:00:00 | 00:00:00 | 00:00:00 | |
| MIELECB | 2026-08-31 12:36:43 | 50.17620 | 21.67774 | 328° | 9km/h | 25833m | 7.9m/s | 0°C | 0% | 0hPa | 0V | 00:00:00 | 00:00:00 | 00:00:00 | |
| OM5KV | 2026-08-31 12:36:38 | 50.17618 | 21.67793 | 169° | 4km/h | 25801m | 4.4m/s | 0°C | 0% | 0hPa | 0V | 00:00:00 | 00:00:00 | 00:00:00 | |
| MIELECB | 2026-08-31 12:36:37 | 50.17619 | 21.67795 | 252° | 9km/h | 25796m | 5.1m/s | 0°C | 0% | 0hPa | 0V | 00:00:00 | 00:00:00 | 00:00:00 | |
| MIELECB | 2026-08-31 12:36:32 | 50.17625 | 21.67817 | 186° | 7km/h | 25764m | 6.6m/s | 0°C | 0% | 0hPa | 0V | 00:00:00 | 00:00:00 | 00:00:00 | |
| OM5KV | 2026-08-31 12:36:30 | 50.17628 | 21.67815 | 179° | 7km/h | 25752m | 4.6m/s | 0°C | 0% | 0hPa | 0V | 00:00:00 | 00:00:00 | 00:00:00 | |
| MIELECB | 2026-08-31 12:36:26 | 50.17636 | 21.67824 | 192° | 9km/h | 25734m | 7.1m/s | 0°C | 0% | 0hPa | 0V | 00:00:00 | 00:00:00 | 00:00:00 | |
| AKAW68 | 2026-08-31 12:36:23 | 50.17649 | 21.67823 | 186° | 26km/h | 25715m | 7.5m/s | 0°C | 0% | 0hPa | 0V | 00:00:00 | 00:00:00 | 00:00:00 | |
| AKAW682 | 2026-08-31 12:36:22 | 50.17656 | 21.67825 | 190° | 27km/h | 25707m | 4.2m/s | 0°C | 0% | 0hPa | 0V | 00:00:00 | 00:00:00 | 00:00:00 | |
| SQ9PSP-11 | 2026-08-31 12:36:21 | 50.17662 | 21.67826 | 181° | 27km/h | 25703m | 3.5m/s | 0°C | 0% | 0hPa | 0V | 00:00:00 | 00:00:00 | 00:00:00 | |
| MIELECB | 2026-08-31 12:36:20 | 50.17669 | 21.67825 | 170° | 22km/h | 25699m | 6.3m/s | 0°C | 0% | 0hPa | 0V | 00:00:00 | 00:00:00 | 00:00:00 | |
| MIELECB | 2026-08-31 12:36:15 | 50.17679 | 21.67816 | 217° | 13km/h | 25671m | 4.2m/s | 0°C | 0% | 0hPa | 0V | 00:00:00 | 00:00:00 | 00:00:00 | |
| SQ9PSP-11 | 2026-08-31 12:36:05 | 50.17731 | 21.67799 | 126° | 24km/h | 25617m | 6.2m/s | 0°C | 0% | 0hPa | 0V | 00:00:00 | 00:00:00 | 00:00:00 | |
| MIELECB | 2026-08-31 12:36:03 | 50.17738 | 21.67784 | 127° | 20km/h | 25606m | 6.8m/s | 0°C | 0% | 0hPa | 0V | 00:00:00 | 00:00:00 | 00:00:00 | |
| AKAW68 | 2026-08-31 12:36:01 | 50.17744 | 21.67773 | 141° | 16km/h | 25596m | 4.6m/s | 0°C | 0% | 0hPa | 0V | 00:00:00 | 00:00:00 | 00:00:00 | |
| MIELECB | 2026-08-31 12:35:57 | 50.17756 | 21.67750 | 140° | 18km/h | 25576m | 5.9m/s | 0°C | 0% | 0hPa | 0V | 00:00:00 | 00:00:00 | 00:00:00 | |
| MIELECB | 2026-08-31 12:35:52 | 50.17770 | 21.67720 | 121° | 29km/h | 25547m | 4.3m/s | 0°C | 0% | 0hPa | 0V | 00:00:00 | 00:00:00 | 00:00:00 | |
| SQ9PSP-11 | 2026-08-31 12:35:50 | 50.17775 | 21.67705 | 100° | 15km/h | 25536m | 6.2m/s | 0°C | 0% | 0hPa | 0V | 00:00:00 | 00:00:00 | 00:00:00 | |
| MIELECB | 2026-08-31 12:35:46 | 50.17776 | 21.67694 | 121° | 9km/h | 25514m | 6.4m/s | 0°C | 0% | 0hPa | 0V | 00:00:00 | 00:00:00 | 00:00:00 | |
| AKAW68 | 2026-08-31 12:35:41 | 50.17782 | 21.67667 | 83° | 18km/h | 25487m | 6.2m/s | 0°C | 0% | 0hPa | 0V | 00:00:00 | 00:00:00 | 00:00:00 | |
| MIELECB | 2026-08-31 12:35:36 | 50.17771 | 21.67640 | 311° | 7km/h | 25459m | 8.8m/s | 0°C | 0% | 0hPa | 0V | 00:00:00 | 00:00:00 | 00:00:00 | |
| SQ9PSP-11 | 2026-08-31 12:35:34 | 50.17772 | 21.67643 | 203° | 4km/h | 25446m | 5.8m/s | 0°C | 0% | 0hPa | 0V | 00:00:00 | 00:00:00 | 00:00:00 | |
| MIELECB | 2026-08-31 12:35:31 | 50.17767 | 21.67633 | 48° | 22km/h | 25429m | 6.7m/s | 0°C | 0% | 0hPa | 0V | 00:00:00 | 00:00:00 | 00:00:00 | |
| MIELECB | 2026-08-31 12:35:26 | 50.17753 | 21.67609 | 5° | 7km/h | 25397m | 5.4m/s | 0°C | 0% | 0hPa | 0V | 00:00:00 | 00:00:00 | 00:00:00 | |
| AKAW682 | 2026-08-31 12:35:20 | 50.17741 | 21.67614 | 91° | 11km/h | 25370m | 6.7m/s | 0°C | 0% | 0hPa | 0V | 00:00:00 | 00:00:00 | 00:00:00 | |
| AKAW68 | 2026-08-31 12:35:19 | 50.17740 | 21.67610 | 68° | 15km/h | 25363m | 7.2m/s | 0°C | 0% | 0hPa | 0V | 00:00:00 | 00:00:00 | 00:00:00 | |
| SQ9PSP-11 | 2026-08-31 12:35:18 | 50.17739 | 21.67605 | 58° | 13km/h | 25357m | 7.6m/s | 0°C | 0% | 0hPa | 0V | 00:00:00 | 00:00:00 | 00:00:00 | |
| MIELECB | 2026-08-31 12:35:13 | 50.17732 | 21.67595 | 110° | 7km/h | 25327m | 4.5m/s | 0°C | 0% | 0hPa | 0V | 00:00:00 | 00:00:00 | 00:00:00 | |
| MIELECB | 2026-08-31 12:35:08 | 50.17727 | 21.67587 | 44° | 11km/h | 25299m | 7.9m/s | 0°C | 0% | 0hPa | 0V | 00:00:00 | 00:00:00 | 00:00:00 | |
| MIELECB | 2026-08-31 12:35:02 | 50.17719 | 21.67584 | 48° | 5km/h | 25261m | 6.0m/s | 0°C | 0% | 0hPa | 0V | 00:00:00 | 00:00:00 | 00:00:00 | |
| AKAW682 | 2026-08-31 12:34:58 | 50.17723 | 21.67568 | 103° | 5km/h | 25235m | 8.1m/s | 0°C | 0% | 0hPa | 0V | 00:00:00 | 00:00:00 | 00:00:00 | |
| MIELECB | 2026-08-31 12:34:56 | 50.17722 | 21.67566 | 32° | 5km/h | 25222m | 5.2m/s | 0°C | 0% | 0hPa | 0V | 00:00:00 | 00:00:00 | 00:00:00 | |
| MIELECB | 2026-08-31 12:34:50 | 50.17723 | 21.67542 | 114° | 16km/h | 25186m | 5.8m/s | 0°C | 0% | 0hPa | 0V | 00:00:00 | 00:00:00 | 00:00:00 | |
| SQ9PSP-11 | 2026-08-31 12:34:47 | 50.17731 | 21.67519 | 130° | 15km/h | 25166m | 5.3m/s | 0°C | 0% | 0hPa | 0V | 00:00:00 | 00:00:00 | 00:00:00 | |
| MIELECB | 2026-08-31 12:34:44 | 50.17734 | 21.67514 | 0° | 0km/h | 25150m | 4.3m/s | 0°C | 0% | 0hPa | 0V | 00:00:00 | 00:00:00 | 00:00:00 | |
| AKAW68 | 2026-08-31 12:34:42 | 50.17734 | 21.67506 | 97° | 20km/h | 25138m | 6.1m/s | 0°C | 0% | 0hPa | 0V | 00:00:00 | 00:00:00 | 00:00:00 | |
| MIELECB | 2026-08-31 12:34:39 | 50.17740 | 21.67473 | 120° | 27km/h | 25122m | 7.6m/s | 0°C | 0% | 0hPa | 0V | 00:00:00 | 00:00:00 | 00:00:00 | |
| AKAW682 | 2026-08-31 12:34:37 | 50.17748 | 21.67459 | 153° | 27km/h | 25111m | 5.1m/s | 0°C | 0% | 0hPa | 0V | 00:00:00 | 00:00:00 | 00:00:00 | |
| MIELECB | 2026-08-31 12:34:34 | 50.17769 | 21.67445 | 159° | 26km/h | 25092m | 3.9m/s | 0°C | 0% | 0hPa | 0V | 00:00:00 | 00:00:00 | 00:00:00 | |
| SQ9PSP-11 | 2026-08-31 12:34:31 | 50.17772 | 21.67435 | 44° | 22km/h | 25072m | 4.8m/s | 0°C | 0% | 0hPa | 0V | 00:00:00 | 00:00:00 | 00:00:00 | |
| MIELECB | 2026-08-31 12:34:28 | 50.17767 | 21.67399 | 110° | 42km/h | 25056m | 5.8m/s | 0°C | 0% | 0hPa | 0V | 00:00:00 | 00:00:00 | 00:00:00 | |
| MIELECB | 2026-08-31 12:34:22 | 50.17797 | 21.67357 | 88° | 16km/h | 25023m | 5.2m/s | 0°C | 0% | 0hPa | 0V | 00:00:00 | 00:00:00 | 00:00:00 | |
| AKAW68 | 2026-08-31 12:34:21 | 50.17797 | 21.67347 | 89° | 29km/h | 25017m | 6.4m/s | 0°C | 0% | 0hPa | 0V | 00:00:00 | 00:00:00 | 00:00:00 | |
| MIELECB | 2026-08-31 12:34:16 | 50.17808 | 21.67282 | 108° | 22km/h | 24986m | 5.2m/s | 0°C | 0% | 0hPa | 0V | 00:00:00 | 00:00:00 | 00:00:00 | |
| SQ9PSP-11 | 2026-08-31 12:34:15 | 50.17809 | 21.67274 | 99° | 18km/h | 24982m | 3.6m/s | 0°C | 0% | 0hPa | 0V | 00:00:00 | 00:00:00 | 00:00:00 | |
| MIELECB | 2026-08-31 12:34:11 | 50.17814 | 21.67231 | 97° | 26km/h | 24962m | 7.1m/s | 0°C | 0% | 0hPa | 0V | 00:00:00 | 00:00:00 | 00:00:00 | |
| MIELECB | 2026-08-31 12:34:05 | 50.17818 | 21.67170 | 96° | 20km/h | 24923m | 6.0m/s | 0°C | 0% | 0hPa | 0V | 00:00:00 | 00:00:00 | 00:00:00 | |
| MIELECB | 2026-08-31 12:34:00 | 50.17812 | 21.67130 | 94° | 31km/h | 24895m | 5.1m/s | 0°C | 0% | 0hPa | 0V | 00:00:00 | 00:00:00 | 00:00:00 | |
| SQ9PSP-11 | 2026-08-31 12:33:59 | 50.17812 | 21.67118 | 92° | 29km/h | 24890m | 4.5m/s | 0°C | 0% | 0hPa | 0V | 00:00:00 | 00:00:00 | 00:00:00 | |
| MIELECB | 2026-08-31 12:33:55 | 50.17806 | 21.67086 | 84° | 18km/h | 24867m | 8.2m/s | 0°C | 0% | 0hPa | 0V | 00:00:00 | 00:00:00 | 00:00:00 | |
| MIELECB | 2026-08-31 12:33:49 | 50.17798 | 21.67040 | 75° | 27km/h | 24829m | 7.8m/s | 0°C | 0% | 0hPa | 0V | 00:00:00 | 00:00:00 | 00:00:00 | |
| MIELECB | 2026-08-31 12:33:44 | 50.17783 | 21.67006 | 9° | 11km/h | 24799m | 5.6m/s | 0°C | 0% | 0hPa | 0V | 00:00:00 | 00:00:00 | 00:00:00 | |
| SQ9PSP-11 | 2026-08-31 12:33:43 | 50.17781 | 21.67005 | 26° | 7km/h | 24793m | 6.8m/s | 0°C | 0% | 0hPa | 0V | 00:00:00 | 00:00:00 | 00:00:00 | |
| MIELECB | 2026-08-31 12:33:38 | 50.17769 | 21.66984 | 34° | 24km/h | 24764m | 4.7m/s | 0°C | 0% | 0hPa | 0V | 00:00:00 | 00:00:00 | 00:00:00 | |
| AKAW682 | 2026-08-31 12:33:33 | 50.17755 | 21.66956 | 14° | 11km/h | 24739m | 7.2m/s | 0°C | 0% | 0hPa | 0V | 00:00:00 | 00:00:00 | 00:00:00 | |
| MIELECB | 2026-08-31 12:33:32 | 50.17751 | 21.66956 | 349° | 13km/h | 24734m | 6.9m/s | 0°C | 0% | 0hPa | 0V | 00:00:00 | 00:00:00 | 00:00:00 | |
| AKAW68 | 2026-08-31 12:33:28 | 50.17736 | 21.66954 | 14° | 20km/h | 24710m | 5.7m/s | 0°C | 0% | 0hPa | 0V | 00:00:00 | 00:00:00 | 00:00:00 | |
| MIELECB | 2026-08-31 12:33:26 | 50.17724 | 21.66951 | 7° | 33km/h | 24697m | 7.1m/s | 0°C | 0% | 0hPa | 0V | 00:00:00 | 00:00:00 | 00:00:00 | |
| MIELECB | 2026-08-31 12:33:21 | 50.17697 | 21.66934 | 20° | 20km/h | 24666m | 8.6m/s | 0°C | 0% | 0hPa | 0V | 00:00:00 | 00:00:00 | 00:00:00 | |
| MIELECB | 2026-08-31 12:33:16 | 50.17680 | 21.66942 | 320° | 13km/h | 24635m | 5.7m/s | 0°C | 0% | 0hPa | 0V | 00:00:00 | 00:00:00 | 00:00:00 | |
| AKAW682 | 2026-08-31 12:33:13 | 50.17664 | 21.66946 | 7° | 26km/h | 24617m | 5.9m/s | 0°C | 0% | 0hPa | 0V | 00:00:00 | 00:00:00 | 00:00:00 | |
| SQ9PSP-11 | 2026-08-31 12:33:12 | 50.17658 | 21.66944 | 18° | 26km/h | 24611m | 7.3m/s | 0°C | 0% | 0hPa | 0V | 00:00:00 | 00:00:00 | 00:00:00 | |
| MIELECB | 2026-08-31 12:33:10 | 50.17647 | 21.66938 | 22° | 22km/h | 24600m | 5.5m/s | 0°C | 0% | 0hPa | 0V | 00:00:00 | 00:00:00 | 00:00:00 | |
| AKAW68 | 2026-08-31 12:33:07 | 50.17630 | 21.66934 | 3° | 22km/h | 24582m | 5.0m/s | 0°C | 0% | 0hPa | 0V | 00:00:00 | 00:00:00 | 00:00:00 | |
| MIELECB | 2026-08-31 12:33:04 | 50.17618 | 21.66932 | 8° | 15km/h | 24564m | 4.6m/s | 0°C | 0% | 0hPa | 0V | 00:00:00 | 00:00:00 | 00:00:00 | |
| MIELECB | 2026-08-31 12:32:59 | 50.17591 | 21.66932 | 29° | 18km/h | 24536m | 5.3m/s | 0°C | 0% | 0hPa | 0V | 00:00:00 | 00:00:00 | 00:00:00 | |
| SQ9PSP-11 | 2026-08-31 12:32:57 | 50.17581 | 21.66926 | 9° | 24km/h | 24525m | 6.5m/s | 0°C | 0% | 0hPa | 0V | 00:00:00 | 00:00:00 | 00:00:00 | |
| MIELECB | 2026-08-31 12:32:53 | 50.17554 | 21.66937 | 338° | 22km/h | 24501m | 6.5m/s | 0°C | 0% | 0hPa | 0V | 00:00:00 | 00:00:00 | 00:00:00 | |
| AKAW682 | 2026-08-31 12:32:52 | 50.17550 | 21.66939 | 359° | 11km/h | 24495m | 6.4m/s | 0°C | 0% | 0hPa | 0V | 00:00:00 | 00:00:00 | 00:00:00 | |
| AKAW68 | 2026-08-31 12:32:48 | 50.17534 | 21.66945 | 326° | 18km/h | 24466m | 5.9m/s | 0°C | 0% | 0hPa | 0V | 00:00:00 | 00:00:00 | 00:00:00 | |
| MIELECB | 2026-08-31 12:32:42 | 50.17511 | 21.66967 | 339° | 24km/h | 24434m | 5.5m/s | 0°C | 0% | 0hPa | 0V | 00:00:00 | 00:00:00 | 00:00:00 | |
| SQ9PSP-11 | 2026-08-31 12:32:41 | 50.17506 | 21.66970 | 343° | 18km/h | 24429m | 5.3m/s | 0°C | 0% | 0hPa | 0V | 00:00:00 | 00:00:00 | 00:00:00 | |
| MIELECB | 2026-08-31 12:32:37 | 50.17490 | 21.66978 | 330° | 26km/h | 24407m | 6.0m/s | 0°C | 0% | 0hPa | 0V | 00:00:00 | 00:00:00 | 00:00:00 | |
| MIELECB | 2026-08-31 12:32:32 | 50.17467 | 21.67016 | 305° | 7km/h | 24380m | 4.8m/s | 0°C | 0% | 0hPa | 0V | 00:00:00 | 00:00:00 | 00:00:00 | |
| AKAW682 | 2026-08-31 12:32:31 | 50.17466 | 21.67018 | 340° | 4km/h | 24375m | 5.6m/s | 0°C | 0% | 0hPa | 0V | 00:00:00 | 00:00:00 | 00:00:00 | |
| MIELECB | 2026-08-31 12:32:26 | 50.17449 | 21.67025 | 311° | 18km/h | 24346m | 5.2m/s | 0°C | 0% | 0hPa | 0V | 00:00:00 | 00:00:00 | 00:00:00 | |
| AKAW68 | 2026-08-31 12:32:21 | 50.17443 | 21.67075 | 252° | 18km/h | 24317m | 9.1m/s | 0°C | 0% | 0hPa | 0V | 00:00:00 | 00:00:00 | 00:00:00 | |
| MIELECB | 2026-08-31 12:32:15 | 50.17433 | 21.67083 | 299° | 20km/h | 24283m | 6.6m/s | 0°C | 0% | 0hPa | 0V | 00:00:00 | 00:00:00 | 00:00:00 | |
| MIELECB | 2026-08-31 12:32:10 | 50.17436 | 21.67144 | 264° | 22km/h | 24255m | 5.5m/s | 0°C | 0% | 0hPa | 0V | 00:00:00 | 00:00:00 | 00:00:00 | |
| MIELECB | 2026-08-31 12:32:04 | 50.17435 | 21.67162 | 273° | 24km/h | 24218m | 5.3m/s | 0°C | 0% | 0hPa | 0V | 00:00:00 | 00:00:00 | 00:00:00 | |
| MIELECB | 2026-08-31 12:31:59 | 50.17450 | 21.67220 | 253° | 27km/h | 24187m | 6.0m/s | 0°C | 0% | 0hPa | 0V | 00:00:00 | 00:00:00 | 00:00:00 | |
| SQ9PSP-11 | 2026-08-31 12:31:54 | 50.17460 | 21.67246 | 224° | 16km/h | 24160m | 4.0m/s | 0°C | 0% | 0hPa | 0V | 00:00:00 | 00:00:00 | 00:00:00 | |
| MIELECB | 2026-08-31 12:31:53 | 50.17464 | 21.67251 | 247° | 18km/h | 24155m | 6.7m/s | 0°C | 0% | 0hPa | 0V | 00:00:00 | 00:00:00 | 00:00:00 | |
| AKAW682 | 2026-08-31 12:31:49 | 50.17472 | 21.67278 | 211° | 24km/h | 24133m | 8.0m/s | 0°C | 0% | 0hPa | 0V | 00:00:00 | 00:00:00 | 00:00:00 | |
| MIELECB | 2026-08-31 12:31:47 | 50.17483 | 21.67286 | 209° | 22km/h | 24120m | 6.9m/s | 0°C | 0% | 0hPa | 0V | 00:00:00 | 00:00:00 | 00:00:00 | |
| AKAW68 | 2026-08-31 12:31:44 | 50.17494 | 21.67301 | 220° | 18km/h | 24101m | 6.7m/s | 0°C | 0% | 0hPa | 0V | 00:00:00 | 00:00:00 | 00:00:00 | |
| MIELECB | 2026-08-31 12:31:41 | 50.17505 | 21.67310 | 229° | 9km/h | 24084m | 6.3m/s | 0°C | 0% | 0hPa | 0V | 00:00:00 | 00:00:00 | 00:00:00 | |
| SQ9PSP-11 | 2026-08-31 12:31:39 | 50.17506 | 21.67316 | 224° | 5km/h | 24076m | 5.0m/s | 0°C | 0% | 0hPa | 0V | 00:00:00 | 00:00:00 | 00:00:00 | |
| MIELECB | 2026-08-31 12:31:36 | 50.17518 | 21.67319 | 190° | 27km/h | 24059m | 5.0m/s | 0°C | 0% | 0hPa | 0V | 00:00:00 | 00:00:00 | 00:00:00 | |
| MIELECB | 2026-08-31 12:31:31 | 50.17540 | 21.67333 | 154° | 13km/h | 24030m | 6.7m/s | 0°C | 0% | 0hPa | 0V | 00:00:00 | 00:00:00 | 00:00:00 | |
| AKAW682 | 2026-08-31 12:31:28 | 50.17551 | 21.67326 | 181° | 18km/h | 24014m | 7.2m/s | 0°C | 0% | 0hPa | 0V | 00:00:00 | 00:00:00 | 00:00:00 | |
| MIELECB | 2026-08-31 12:31:25 | 50.17566 | 21.67331 | 187° | 18km/h | 23994m | 7.3m/s | 0°C | 0% | 0hPa | 0V | 00:00:00 | 00:00:00 | 00:00:00 | |
| SQ9PSP-11 | 2026-08-31 12:31:24 | 50.17570 | 21.67331 | 174° | 15km/h | 23989m | 4.6m/s | 0°C | 0% | 0hPa | 0V | 00:00:00 | 00:00:00 | 00:00:00 | |
| MIELECB | 2026-08-31 12:31:19 | 50.17577 | 21.67327 | 110° | 11km/h | 23960m | 6.8m/s | 0°C | 0% | 0hPa | 0V | 00:00:00 | 00:00:00 | 00:00:00 | |
| MIELECB | 2026-08-31 12:31:14 | 50.17593 | 21.67322 | 242° | 5km/h | 23931m | 4.4m/s | 0°C | 0% | 0hPa | 0V | 00:00:00 | 00:00:00 | 00:00:00 | |
| MIELECB | 2026-08-31 12:31:08 | 50.17604 | 21.67317 | 186° | 9km/h | 23898m | 5.3m/s | 0°C | 0% | 0hPa | 0V | 00:00:00 | 00:00:00 | 00:00:00 | |
| MIELECB | 2026-08-31 12:31:03 | 50.17612 | 21.67298 | 148° | 13km/h | 23871m | 6.1m/s | 0°C | 0% | 0hPa | 0V | 00:00:00 | 00:00:00 | 00:00:00 | |
| MIELECB | 2026-08-31 12:30:57 | 50.17623 | 21.67273 | 81° | 7km/h | 23837m | 8.0m/s | 0°C | 0% | 0hPa | 0V | 00:00:00 | 00:00:00 | 00:00:00 | |
| SQ9PSP-11 | 2026-08-31 12:30:53 | 50.17620 | 21.67260 | 82° | 16km/h | 23816m | 5.6m/s | 0°C | 0% | 0hPa | 0V | 00:00:00 | 00:00:00 | 00:00:00 | |
| MIELECB | 2026-08-31 12:30:52 | 50.17619 | 21.67248 | 89° | 11km/h | 23806m | 6.4m/s | 0°C | 0% | 0hPa | 0V | 00:00:00 | 00:00:00 | 00:00:00 | |
| MIELECB | 2026-08-31 12:30:46 | 50.17627 | 21.67227 | 124° | 13km/h | 23780m | 4.2m/s | 0°C | 0% | 0hPa | 0V | 00:00:00 | 00:00:00 | 00:00:00 | |
| AKAW68 | 2026-08-31 12:30:45 | 50.17628 | 21.67224 | 137° | 7km/h | 23775m | 6.8m/s | 0°C | 0% | 0hPa | 0V | 00:00:00 | 00:00:00 | 00:00:00 | |
| AKAW682 | 2026-08-31 12:30:44 | 50.17629 | 21.67223 | 228° | 4km/h | 23769m | 6.3m/s | 0°C | 0% | 0hPa | 0V | 00:00:00 | 00:00:00 | 00:00:00 | |
| MIELECB | 2026-08-31 12:30:41 | 50.17631 | 21.67223 | 98° | 9km/h | 23750m | 5.9m/s | 0°C | 0% | 0hPa | 0V | 00:00:00 | 00:00:00 | 00:00:00 | |
| SQ9PSP-11 | 2026-08-31 12:30:38 | 50.17634 | 21.67212 | 139° | 9km/h | 23734m | 6.6m/s | 0°C | 0% | 0hPa | 0V | 00:00:00 | 00:00:00 | 00:00:00 | |
| MIELECB | 2026-08-31 12:30:35 | 50.17637 | 21.67205 | 82° | 9km/h | 23715m | 4.5m/s | 0°C | 0% | 0hPa | 0V | 00:00:00 | 00:00:00 | 00:00:00 | |
| MIELECB | 2026-08-31 12:30:29 | 50.17645 | 21.67210 | 149° | 15km/h | 23681m | 6.1m/s | 0°C | 0% | 0hPa | 0V | 00:00:00 | 00:00:00 | 00:00:00 | |
| AKAW682 | 2026-08-31 12:30:24 | 50.17656 | 21.67197 | 141° | 7km/h | 23654m | 6.8m/s | 0°C | 0% | 0hPa | 0V | 00:00:00 | 00:00:00 | 00:00:00 | |
| MIELECB | 2026-08-31 12:30:23 | 50.17657 | 21.67195 | 114° | 11km/h | 23647m | 6.4m/s | 0°C | 0% | 0hPa | 0V | 00:00:00 | 00:00:00 | 00:00:00 | |
| SQ9PSP-11 | 2026-08-31 12:30:22 | 50.17658 | 21.67192 | 105° | 7km/h | 23642m | 4.4m/s | 0°C | 0% | 0hPa | 0V | 00:00:00 | 00:00:00 | 00:00:00 | |
| AKAW68 | 2026-08-31 12:30:17 | 50.17655 | 21.67190 | 103° | 11km/h | 23612m | 6.9m/s | 0°C | 0% | 0hPa | 0V | 00:00:00 | 00:00:00 | 00:00:00 | |
| MIELECB | 2026-08-31 12:30:12 | 50.17667 | 21.67184 | 192° | 9km/h | 23581m | 6.5m/s | 0°C | 0% | 0hPa | 0V | 00:00:00 | 00:00:00 | 00:00:00 | |
| MIELECB | 2026-08-31 12:30:08 | 50.17673 | 21.67175 | 152° | 5km/h | 23553m | 5.3m/s | 0°C | 0% | 0hPa | 0V | 00:00:00 | 00:00:00 | 00:00:00 | |
| MIELECB | 2026-08-31 12:30:01 | 50.17682 | 21.67167 | 138° | 5km/h | 23520m | 5.8m/s | 0°C | 0% | 0hPa | 0V | 00:00:00 | 00:00:00 | 00:00:00 | |
| AKAW68 | 2026-08-31 12:29:57 | 50.17686 | 21.67148 | 114° | 11km/h | 23495m | 6.4m/s | 0°C | 0% | 0hPa | 0V | 00:00:00 | 00:00:00 | 00:00:00 | |
| MIELECB | 2026-08-31 12:29:56 | 50.17687 | 21.67144 | 126° | 13km/h | 23489m | 4.8m/s | 0°C | 0% | 0hPa | 0V | 00:00:00 | 00:00:00 | 00:00:00 | |
| SQ9PSP-11 | 2026-08-31 12:29:51 | 50.17700 | 21.67123 | 119° | 7km/h | 23460m | 4.8m/s | 0°C | 0% | 0hPa | 0V | 00:00:00 | 00:00:00 | 00:00:00 | |
| MIELECB | 2026-08-31 12:29:50 | 50.17701 | 21.67119 | 95° | 13km/h | 23456m | 4.3m/s | 0°C | 0% | 0hPa | 0V | 00:00:00 | 00:00:00 | 00:00:00 | |
| AKAW682 | 2026-08-31 12:29:41 | 50.17712 | 21.67046 | 114° | 20km/h | 23403m | 4.7m/s | 0°C | 0% | 0hPa | 0V | 00:00:00 | 00:00:00 | 00:00:00 | |
| MIELECB | 2026-08-31 12:29:38 | 50.17710 | 21.67031 | 56° | 18km/h | 23385m | 4.4m/s | 0°C | 0% | 0hPa | 0V | 00:00:00 | 00:00:00 | 00:00:00 | |
| SQ9PSP-11 | 2026-08-31 12:29:36 | 50.17705 | 21.67012 | 79° | 31km/h | 23372m | 6.3m/s | 0°C | 0% | 0hPa | 0V | 00:00:00 | 00:00:00 | 00:00:00 | |
| MIELECB | 2026-08-31 12:29:33 | 50.17705 | 21.66975 | 100° | 24km/h | 23355m | 6.7m/s | 0°C | 0% | 0hPa | 0V | 00:00:00 | 00:00:00 | 00:00:00 | |
| AKAW68 | 2026-08-31 12:29:28 | 50.17709 | 21.66929 | 85° | 26km/h | 23326m | 6.7m/s | 0°C | 0% | 0hPa | 0V | 00:00:00 | 00:00:00 | 00:00:00 | |
| MIELECB | 2026-08-31 12:29:27 | 50.17708 | 21.66920 | 75° | 24km/h | 23320m | 6.2m/s | 0°C | 0% | 0hPa | 0V | 00:00:00 | 00:00:00 | 00:00:00 | |
| MIELECB | 2026-08-31 12:29:22 | 50.17694 | 21.66861 | 70° | 29km/h | 23291m | 8.1m/s | 0°C | 0% | 0hPa | 0V | 00:00:00 | 00:00:00 | 00:00:00 | |
| AKAW682 | 2026-08-31 12:29:19 | 50.17689 | 21.66837 | 86° | 26km/h | 23273m | 7.2m/s | 0°C | 0% | 0hPa | 0V | 00:00:00 | 00:00:00 | 00:00:00 | |
| SP9KGR-15 | 2026-08-31 12:29:17 | 50.17688 | 21.66814 | 87° | 31km/h | 23261m | 6.4m/s | 0°C | 0% | 0hPa | 0V | 00:00:00 | 00:00:00 | 00:00:00 | |
| MIELECB | 2026-08-31 12:29:16 | 50.17687 | 21.66802 | 73° | 31km/h | 23254m | 7.1m/s | 0°C | 0% | 0hPa | 0V | 00:00:00 | 00:00:00 | 00:00:00 | |
| MIELECB | 2026-08-31 12:29:11 | 50.17667 | 21.66743 | 52° | 33km/h | 23225m | 4.0m/s | 0°C | 0% | 0hPa | 0V | 00:00:00 | 00:00:00 | 00:00:00 | |
| AKAW68 | 2026-08-31 12:29:07 | 50.17652 | 21.66717 | 64° | 20km/h | 23202m | 5.9m/s | 0°C | 0% | 0hPa | 0V | 00:00:00 | 00:00:00 | 00:00:00 | |
| MIELECB | 2026-08-31 12:29:05 | 50.17645 | 21.66696 | 66° | 37km/h | 23193m | 3.2m/s | 0°C | 0% | 0hPa | 0V | 00:00:00 | 00:00:00 | 00:00:00 | |
| SQ9PSP-11 | 2026-08-31 12:29:03 | 50.17636 | 21.66672 | 50° | 31km/h | 23182m | 7.2m/s | 0°C | 0% | 0hPa | 0V | 00:00:00 | 00:00:00 | 00:00:00 | |
| MIELECB | 2026-08-31 12:29:00 | 50.17621 | 21.66650 | 49° | 24km/h | 23164m | 6.1m/s | 0°C | 0% | 0hPa | 0V | 00:00:00 | 00:00:00 | 00:00:00 | |
| AKAW682 | 2026-08-31 12:28:58 | 50.17612 | 21.66637 | 38° | 27km/h | 23153m | 6.4m/s | 0°C | 0% | 0hPa | 0V | 00:00:00 | 00:00:00 | 00:00:00 | |
| MIELECB | 2026-08-31 12:28:54 | 50.17589 | 21.66610 | 57° | 29km/h | 23129m | 5.5m/s | 0°C | 0% | 0hPa | 0V | 00:00:00 | 00:00:00 | 00:00:00 | |
| MIELECB | 2026-08-31 12:28:49 | 50.17565 | 21.66575 | 30° | 29km/h | 23103m | 5.6m/s | 0°C | 0% | 0hPa | 0V | 00:00:00 | 00:00:00 | 00:00:00 | |
| SQ9PSP-11 | 2026-08-31 12:28:48 | 50.17559 | 21.66568 | 38° | 29km/h | 23097m | 6.8m/s | 0°C | 0% | 0hPa | 0V | 00:00:00 | 00:00:00 | 00:00:00 | |
| AKAW68 | 2026-08-31 12:28:43 | 50.17532 | 21.66544 | 42° | 13km/h | 23068m | 7.2m/s | 0°C | 0% | 0hPa | 0V | 00:00:00 | 00:00:00 | 00:00:00 | |
| MIELECB | 2026-08-31 12:28:38 | 50.17513 | 21.66526 | 12° | 29km/h | 23037m | 5.2m/s | 0°C | 0% | 0hPa | 0V | 00:00:00 | 00:00:00 | 00:00:00 | |
| SQ9PSP-11 | 2026-08-31 12:28:33 | 50.17484 | 21.66512 | 338° | 15km/h | 23007m | 5.8m/s | 0°C | 0% | 0hPa | 0V | 00:00:00 | 00:00:00 | 00:00:00 | |
| MIELECB | 2026-08-31 12:28:26 | 50.17455 | 21.66502 | 354° | 18km/h | 22973m | 6.9m/s | 0°C | 0% | 0hPa | 0V | 00:00:00 | 00:00:00 | 00:00:00 | |
| MIELECB | 2026-08-31 12:28:21 | 50.17434 | 21.66507 | 340° | 18km/h | 22941m | 7.4m/s | 0°C | 0% | 0hPa | 0V | 00:00:00 | 00:00:00 | 00:00:00 | |
| SQ9PSP-11 | 2026-08-31 12:28:17 | 50.17411 | 21.66515 | 8° | 24km/h | 22918m | 4.3m/s | 0°C | 0% | 0hPa | 0V | 00:00:00 | 00:00:00 | 00:00:00 | |
| MIELECB | 2026-08-31 12:28:15 | 50.17399 | 21.66516 | 343° | 22km/h | 22908m | 6.6m/s | 0°C | 0% | 0hPa | 0V | 00:00:00 | 00:00:00 | 00:00:00 | |
| MIELECB | 2026-08-31 12:28:11 | 50.17389 | 21.66535 | 17° | 5km/h | 22875m | 4.8m/s | 0°C | 0% | 0hPa | 0V | 00:00:00 | 00:00:00 | 00:00:00 | |
| MIELECB | 2026-08-31 12:28:04 | 50.17373 | 21.66535 | 16° | 11km/h | 22840m | 4.7m/s | 0°C | 0% | 0hPa | 0V | 00:00:00 | 00:00:00 | 00:00:00 | |
| SQ9PSP-11 | 2026-08-31 12:28:01 | 50.17370 | 21.66542 | 271° | 13km/h | 22824m | 3.8m/s | 0°C | 0% | 0hPa | 0V | 00:00:00 | 00:00:00 | 00:00:00 | |
| AKAW68 | 2026-08-31 12:28:00 | 50.17371 | 21.66546 | 242° | 9km/h | 22819m | 6.5m/s | 0°C | 0% | 0hPa | 0V | 00:00:00 | 00:00:00 | 00:00:00 | |
| MIELECB | 2026-08-31 12:27:59 | 50.17372 | 21.66548 | 181° | 5km/h | 22812m | 6.9m/s | 0°C | 0% | 0hPa | 0V | 00:00:00 | 00:00:00 | 00:00:00 | |
| AKAW682 | 2026-08-31 12:27:57 | 50.17372 | 21.66546 | 39° | 5km/h | 22801m | 6.0m/s | 0°C | 0% | 0hPa | 0V | 00:00:00 | 00:00:00 | 00:00:00 | |
| MIELECB | 2026-08-31 12:27:54 | 50.17368 | 21.66545 | 43° | 7km/h | 22783m | 5.9m/s | 0°C | 0% | 0hPa | 0V | 00:00:00 | 00:00:00 | 00:00:00 | |
| MIELECB | 2026-08-31 12:27:48 | 50.17384 | 21.66542 | 198° | 22km/h | 22751m | 6.2m/s | 0°C | 0% | 0hPa | 0V | 00:00:00 | 00:00:00 | 00:00:00 | |
| SQ9PSP-11 | 2026-08-31 12:27:46 | 50.17391 | 21.66542 | 167° | 7km/h | 22740m | 4.6m/s | 0°C | 0% | 0hPa | 0V | 00:00:00 | 00:00:00 | 00:00:00 | |
| MIELECB | 2026-08-31 12:27:43 | 50.17393 | 21.66540 | 17° | 2km/h | 22723m | 5.7m/s | 0°C | 0% | 0hPa | 0V | 00:00:00 | 00:00:00 | 00:00:00 | |
| MIELECB | 2026-08-31 12:27:38 | 50.17407 | 21.66523 | 159° | 16km/h | 22697m | 7.1m/s | 0°C | 0% | 0hPa | 0V | 00:00:00 | 00:00:00 | 00:00:00 | |
| AKAW682 | 2026-08-31 12:27:36 | 50.17410 | 21.66520 | 110° | 7km/h | 22686m | 5.6m/s | 0°C | 0% | 0hPa | 0V | 00:00:00 | 00:00:00 | 00:00:00 | |
| MIELECB | 2026-08-31 12:27:32 | 50.17411 | 21.66507 | 82° | 2km/h | 22663m | 6.3m/s | 0°C | 0% | 0hPa | 0V | 00:00:00 | 00:00:00 | 00:00:00 | |
| SQ9PSP-11 | 2026-08-31 12:27:31 | 50.17411 | 21.66505 | 98° | 9km/h | 22658m | 3.5m/s | 0°C | 0% | 0hPa | 0V | 00:00:00 | 00:00:00 | 00:00:00 | |
| MIELECB | 2026-08-31 12:27:26 | 50.17422 | 21.66464 | 115° | 16km/h | 22630m | 6.5m/s | 0°C | 0% | 0hPa | 0V | 00:00:00 | 00:00:00 | 00:00:00 | |
| MIELECB | 2026-08-31 12:27:20 | 50.17424 | 21.66431 | 119° | 16km/h | 22597m | 6.6m/s | 0°C | 0% | 0hPa | 0V | 00:00:00 | 00:00:00 | 00:00:00 | |
| MIELECB | 2026-08-31 12:27:15 | 50.17430 | 21.66397 | 88° | 18km/h | 22572m | 4.8m/s | 0°C | 0% | 0hPa | 0V | 00:00:00 | 00:00:00 | 00:00:00 | |
| MIELECB | 2026-08-31 12:27:09 | 50.17430 | 21.66360 | 105° | 20km/h | 22539m | 6.8m/s | 0°C | 0% | 0hPa | 0V | 00:00:00 | 00:00:00 | 00:00:00 | |
| MIELECB | 2026-08-31 12:27:04 | 50.17430 | 21.66327 | 70° | 16km/h | 22511m | 4.2m/s | 0°C | 0% | 0hPa | 0V | 00:00:00 | 00:00:00 | 00:00:00 | |
| AKAW68 | 2026-08-31 12:27:02 | 50.17427 | 21.66316 | 54° | 13km/h | 22498m | 4.0m/s | 0°C | 0% | 0hPa | 0V | 00:00:00 | 00:00:00 | 00:00:00 | |
| SQ9PSP-11 | 2026-08-31 12:26:59 | 50.17421 | 21.66297 | 59° | 24km/h | 22482m | 4.6m/s | 0°C | 0% | 0hPa | 0V | 00:00:00 | 00:00:00 | 00:00:00 | |
| MIELECB | 2026-08-31 12:26:58 | 50.17418 | 21.66290 | 53° | 18km/h | 22477m | 5.1m/s | 0°C | 0% | 0hPa | 0V | 00:00:00 | 00:00:00 | 00:00:00 | |
| AKAW682 | 2026-08-31 12:26:55 | 50.17412 | 21.66281 | 33° | 11km/h | 22460m | 5.4m/s | 0°C | 0% | 0hPa | 0V | 00:00:00 | 00:00:00 | 00:00:00 | |
| MIELECB | 2026-08-31 12:26:53 | 50.17406 | 21.66273 | 48° | 16km/h | 22449m | 4.8m/s | 0°C | 0% | 0hPa | 0V | 00:00:00 | 00:00:00 | 00:00:00 | |
| MIELECB | 2026-08-31 12:26:47 | 50.17392 | 21.66244 | 62° | 18km/h | 22415m | 2.2m/s | 0°C | 0% | 0hPa | 0V | 00:00:00 | 00:00:00 | 00:00:00 | |
| SQ9PSP-11 | 2026-08-31 12:26:44 | 50.17384 | 21.66237 | 360° | 9km/h | 22399m | 5.2m/s | 0°C | 0% | 0hPa | 0V | 00:00:00 | 00:00:00 | 00:00:00 | |
| MIELECB | 2026-08-31 12:26:42 | 50.17380 | 21.66234 | 36° | 11km/h | 22388m | 4.6m/s | 0°C | 0% | 0hPa | 0V | 00:00:00 | 00:00:00 | 00:00:00 | |
| AKAW68 | 2026-08-31 12:26:39 | 50.17373 | 21.66231 | 357° | 13km/h | 22371m | 4.3m/s | 0°C | 0% | 0hPa | 0V | 00:00:00 | 00:00:00 | 00:00:00 | |
| MIELECB | 2026-08-31 12:26:36 | 50.17361 | 21.66221 | 47° | 18km/h | 22355m | 3.0m/s | 0°C | 0% | 0hPa | 0V | 00:00:00 | 00:00:00 | 00:00:00 | |
| AKAW682 | 2026-08-31 12:26:34 | 50.17353 | 21.66217 | 351° | 16km/h | 22345m | 5.4m/s | 0°C | 0% | 0hPa | 0V | 00:00:00 | 00:00:00 | 00:00:00 | |
| MIELECB | 2026-08-31 12:26:31 | 50.17344 | 21.66219 | 4° | 9km/h | 22328m | 4.9m/s | 0°C | 0% | 0hPa | 0V | 00:00:00 | 00:00:00 | 00:00:00 | |
| SQ9PSP-11 | 2026-08-31 12:26:29 | 50.17340 | 21.66218 | 6° | 5km/h | 22318m | 5.5m/s | 0°C | 0% | 0hPa | 0V | 00:00:00 | 00:00:00 | 00:00:00 | |
| MIELECB | 2026-08-31 12:26:26 | 50.17330 | 21.66213 | 35° | 20km/h | 22298m | 5.0m/s | 0°C | 0% | 0hPa | 0V | 00:00:00 | 00:00:00 | 00:00:00 | |
| MIELECB | 2026-08-31 12:26:20 | 50.17317 | 21.66217 | 330° | 5km/h | 22273m | 6.8m/s | 0°C | 0% | 0hPa | 0V | 00:00:00 | 00:00:00 | 00:00:00 | |
| AKAW682 | 2026-08-31 12:26:14 | 50.17300 | 21.66216 | 359° | 24km/h | 22237m | 5.6m/s | 0°C | 0% | 0hPa | 0V | 00:00:00 | 00:00:00 | 00:00:00 | |
| SQ9PSP-11 | 2026-08-31 12:26:13 | 50.17294 | 21.66218 | 347° | 24km/h | 22232m | 3.7m/s | 0°C | 0% | 0hPa | 0V | 00:00:00 | 00:00:00 | 00:00:00 | |
| MIELECB | 2026-08-31 12:26:09 | 50.17282 | 21.66238 | 268° | 11km/h | 22213m | 6.9m/s | 0°C | 0% | 0hPa | 0V | 00:00:00 | 00:00:00 | 00:00:00 | |
| MIELECB | 2026-08-31 12:26:03 | 50.17273 | 21.66245 | 352° | 26km/h | 22178m | 5.8m/s | 0°C | 0% | 0hPa | 0V | 00:00:00 | 00:00:00 | 00:00:00 | |
| MIELECB | 2026-08-31 12:25:58 | 50.17258 | 21.66257 | 242° | 13km/h | 22153m | 2.9m/s | 0°C | 0% | 0hPa | 0V | 00:00:00 | 00:00:00 | 00:00:00 | |
| MIELECB | 2026-08-31 12:25:54 | 50.17258 | 21.66257 | 357° | 15km/h | 22129m | 4.3m/s | 0°C | 0% | 0hPa | 0V | 00:00:00 | 00:00:00 | 00:00:00 | |
| AKAW682 | 2026-08-31 12:25:52 | 50.17255 | 21.66258 | 351° | 15km/h | 22125m | 4.5m/s | 0°C | 0% | 0hPa | 0V | 00:00:00 | 00:00:00 | 00:00:00 | |
| MIELECB | 2026-08-31 12:25:47 | 50.17246 | 21.66260 | 281° | 5km/h | 22097m | 6.1m/s | 0°C | 0% | 0hPa | 0V | 00:00:00 | 00:00:00 | 00:00:00 | |
| SQ9PSP-11 | 2026-08-31 12:25:43 | 50.17247 | 21.66260 | 89° | 9km/h | 22073m | 4.8m/s | 0°C | 0% | 0hPa | 0V | 00:00:00 | 00:00:00 | 00:00:00 | |
| MIELECB | 2026-08-31 12:25:41 | 50.17245 | 21.66258 | 349° | 5km/h | 22060m | 5.6m/s | 0°C | 0% | 0hPa | 0V | 00:00:00 | 00:00:00 | 00:00:00 | |
| MIELECB | 2026-08-31 12:25:36 | 50.17240 | 21.66260 | 267° | 7km/h | 22032m | 8.1m/s | 0°C | 0% | 0hPa | 0V | 00:00:00 | 00:00:00 | 00:00:00 | |
| MIELECB | 2026-08-31 12:25:30 | 50.17238 | 21.66262 | 348° | 11km/h | 22000m | 5.5m/s | 0°C | 0% | 0hPa | 0V | 00:00:00 | 00:00:00 | 00:00:00 | |
| AKAW682 | 2026-08-31 12:25:28 | 50.17234 | 21.66264 | 16° | 9km/h | 21989m | 5.0m/s | 0°C | 0% | 0hPa | 0V | 00:00:00 | 00:00:00 | 00:00:00 | |
| SQ9PSP-11 | 2026-08-31 12:25:27 | 50.17233 | 21.66262 | 93° | 7km/h | 21984m | 4.9m/s | 0°C | 0% | 0hPa | 0V | 00:00:00 | 00:00:00 | 00:00:00 | |
| AKAW68 | 2026-08-31 12:25:26 | 50.17235 | 21.66259 | 154° | 13km/h | 21979m | 4.5m/s | 0°C | 0% | 0hPa | 0V | 00:00:00 | 00:00:00 | 00:00:00 | |
| MIELECB | 2026-08-31 12:25:25 | 50.17238 | 21.66258 | 179° | 15km/h | 21974m | 5.1m/s | 0°C | 0% | 0hPa | 0V | 00:00:00 | 00:00:00 | 00:00:00 | |
| MIELECB | 2026-08-31 12:25:19 | 50.17243 | 21.66256 | 352° | 9km/h | 21941m | 7.1m/s | 0°C | 0% | 0hPa | 0V | 00:00:00 | 00:00:00 | 00:00:00 | |
| MIELECB | 2026-08-31 12:25:13 | 50.17250 | 21.66257 | 211° | 7km/h | 21908m | 4.0m/s | 0°C | 0% | 0hPa | 0V | 00:00:00 | 00:00:00 | 00:00:00 | |
| SQ9PSP-11 | 2026-08-31 12:25:12 | 50.17252 | 21.66258 | 226° | 5km/h | 21904m | 4.2m/s | 0°C | 0% | 0hPa | 0V | 00:00:00 | 00:00:00 | 00:00:00 | |
| MIELECB | 2026-08-31 12:25:08 | 50.17253 | 21.66257 | 0° | 0km/h | 21883m | 6.6m/s | 0°C | 0% | 0hPa | 0V | 00:00:00 | 00:00:00 | 00:00:00 | |
| MIELECB | 2026-08-31 12:25:03 | 50.17264 | 21.66255 | 172° | 13km/h | 21856m | 6.7m/s | 0°C | 0% | 0hPa | 0V | 00:00:00 | 00:00:00 | 00:00:00 | |
| AKAW68 | 2026-08-31 12:25:02 | 50.17267 | 21.66255 | 203° | 9km/h | 21851m | 4.4m/s | 0°C | 0% | 0hPa | 0V | 00:00:00 | 00:00:00 | 00:00:00 | |
| MIELECB | 2026-08-31 12:24:57 | 50.17268 | 21.66244 | 70° | 11km/h | 21826m | 7.3m/s | 0°C | 0% | 0hPa | 0V | 00:00:00 | 00:00:00 | 00:00:00 | |
| SQ9PSP-11 | 2026-08-31 12:24:56 | 50.17268 | 21.66242 | 92° | 4km/h | 21819m | 5.0m/s | 0°C | 0% | 0hPa | 0V | 00:00:00 | 00:00:00 | 00:00:00 | |
| MIELECB | 2026-08-31 12:24:52 | 50.17274 | 21.66237 | 195° | 7km/h | 21798m | 7.1m/s | 0°C | 0% | 0hPa | 0V | 00:00:00 | 00:00:00 | 00:00:00 | |
| MIELECB | 2026-08-31 12:24:46 | 50.17279 | 21.66233 | 57° | 5km/h | 21765m | 6.9m/s | 0°C | 0% | 0hPa | 0V | 00:00:00 | 00:00:00 | 00:00:00 | |
| AKAW68 | 2026-08-31 12:24:41 | 50.17285 | 21.66228 | 163° | 11km/h | 21739m | 5.5m/s | 0°C | 0% | 0hPa | 0V | 00:00:00 | 00:00:00 | 00:00:00 | |
| MIELECB | 2026-08-31 12:24:40 | 50.17287 | 21.66227 | 170° | 9km/h | 21733m | 5.7m/s | 0°C | 0% | 0hPa | 0V | 00:00:00 | 00:00:00 | 00:00:00 | |
| MIELECB | 2026-08-31 12:24:34 | 50.17287 | 21.66198 | 101° | 9km/h | 21701m | 5.8m/s | 0°C | 0% | 0hPa | 0V | 00:00:00 | 00:00:00 | 00:00:00 | |
| MIELECB | 2026-08-31 12:24:28 | 50.17302 | 21.66190 | 136° | 4km/h | 21669m | 5.8m/s | 0°C | 0% | 0hPa | 0V | 00:00:00 | 00:00:00 | 00:00:00 | |
| SQ9PSP-11 | 2026-08-31 12:24:24 | 50.17306 | 21.66174 | 113° | 20km/h | 21648m | 4.2m/s | 0°C | 0% | 0hPa | 0V | 00:00:00 | 00:00:00 | 00:00:00 | |
| MIELECB | 2026-08-31 12:24:22 | 50.17308 | 21.66163 | 101° | 13km/h | 21637m | 4.8m/s | 0°C | 0% | 0hPa | 0V | 00:00:00 | 00:00:00 | 00:00:00 | |
| AKAW68 | 2026-08-31 12:24:20 | 50.17309 | 21.66157 | 113° | 7km/h | 21626m | 5.4m/s | 0°C | 0% | 0hPa | 0V | 00:00:00 | 00:00:00 | 00:00:00 | |
| MIELECB | 2026-08-31 12:24:17 | 50.17316 | 21.66149 | 140° | 9km/h | 21611m | 7.1m/s | 0°C | 0% | 0hPa | 0V | 00:00:00 | 00:00:00 | 00:00:00 | |
| MIELECB | 2026-08-31 12:24:11 | 50.17324 | 21.66126 | 124° | 11km/h | 21580m | 5.6m/s | 0°C | 0% | 0hPa | 0V | 00:00:00 | 00:00:00 | 00:00:00 | |
| SQ9PSP-11 | 2026-08-31 12:24:08 | 50.17327 | 21.66117 | 120° | 15km/h | 21564m | 7.1m/s | 0°C | 0% | 0hPa | 0V | 00:00:00 | 00:00:00 | 00:00:00 | |
| MIELECB | 2026-08-31 12:24:06 | 50.17332 | 21.66108 | 123° | 15km/h | 21552m | 5.7m/s | 0°C | 0% | 0hPa | 0V | 00:00:00 | 00:00:00 | 00:00:00 | |
| MIELECB | 2026-08-31 12:24:00 | 50.17337 | 21.66072 | 97° | 16km/h | 21521m | 5.6m/s | 0°C | 0% | 0hPa | 0V | 00:00:00 | 00:00:00 | 00:00:00 | |
| AKAW68 | 2026-08-31 12:23:59 | 50.17337 | 21.66067 | 76° | 11km/h | 21516m | 5.6m/s | 0°C | 0% | 0hPa | 0V | 00:00:00 | 00:00:00 | 00:00:00 | |
| MIELECB | 2026-08-31 12:23:55 | 50.17343 | 21.66054 | 134° | 18km/h | 21495m | 5.4m/s | 0°C | 0% | 0hPa | 0V | 00:00:00 | 00:00:00 | 00:00:00 | |
| SQ9PSP-11 | 2026-08-31 12:23:53 | 50.17348 | 21.66047 | 130° | 9km/h | 21483m | 7.2m/s | 0°C | 0% | 0hPa | 0V | 00:00:00 | 00:00:00 | 00:00:00 | |
| MIELECB | 2026-08-31 12:23:50 | 50.17351 | 21.66035 | 98° | 15km/h | 21466m | 5.2m/s | 0°C | 0% | 0hPa | 0V | 00:00:00 | 00:00:00 | 00:00:00 | |
| AKAW682 | 2026-08-31 12:23:44 | 50.17356 | 21.66018 | 118° | 16km/h | 21433m | 5.0m/s | 0°C | 0% | 0hPa | 0V | 00:00:00 | 00:00:00 | 00:00:00 | |
| AKAW68 | 2026-08-31 12:23:39 | 50.17359 | 21.66001 | 131° | 4km/h | 21406m | 6.6m/s | 0°C | 0% | 0hPa | 0V | 00:00:00 | 00:00:00 | 00:00:00 | |
| MIELECB | 2026-08-31 12:23:38 | 50.17359 | 21.66000 | 125° | 4km/h | 21401m | 3.9m/s | 0°C | 0% | 0hPa | 0V | 00:00:00 | 00:00:00 | 00:00:00 | |
| SQ9PSP-11 | 2026-08-31 12:23:37 | 50.17360 | 21.65999 | 341° | 2km/h | 21396m | 7.0m/s | 0°C | 0% | 0hPa | 0V | 00:00:00 | 00:00:00 | 00:00:00 | |
| MIELECB | 2026-08-31 12:23:33 | 50.17358 | 21.65989 | 99° | 18km/h | 21376m | 5.6m/s | 0°C | 0% | 0hPa | 0V | 00:00:00 | 00:00:00 | 00:00:00 | |
| MIELECB | 2026-08-31 12:23:27 | 50.17356 | 21.65968 | 101° | 5km/h | 21348m | 5.5m/s | 0°C | 0% | 0hPa | 0V | 00:00:00 | 00:00:00 | 00:00:00 | |
| MIELECB | 2026-08-31 12:23:22 | 50.17360 | 21.65947 | 81° | 22km/h | 21321m | 6.3m/s | 0°C | 0% | 0hPa | 0V | 00:00:00 | 00:00:00 | 00:00:00 | |
| AKAW68 | 2026-08-31 12:23:18 | 50.17350 | 21.65920 | 29° | 11km/h | 21299m | 5.2m/s | 0°C | 0% | 0hPa | 0V | 00:00:00 | 00:00:00 | 00:00:00 | |
| MIELECB | 2026-08-31 12:23:17 | 50.17349 | 21.65917 | 146° | 5km/h | 21288m | 7.0m/s | 0°C | 0% | 0hPa | 0V | 00:00:00 | 00:00:00 | 00:00:00 | |
| MIELECB | 2026-08-31 12:23:11 | 50.17356 | 21.65904 | 42° | 7km/h | 21260m | 4.7m/s | 0°C | 0% | 0hPa | 0V | 00:00:00 | 00:00:00 | 00:00:00 | |
| SQ9PSP-11 | 2026-08-31 12:23:07 | 50.17345 | 21.65883 | 45° | 20km/h | 21239m | 6.3m/s | 0°C | 0% | 0hPa | 0V | 00:00:00 | 00:00:00 | 00:00:00 | |
| MIELECB | 2026-08-31 12:23:05 | 50.17340 | 21.65875 | 52° | 11km/h | 21228m | 4.9m/s | 0°C | 0% | 0hPa | 0V | 00:00:00 | 00:00:00 | 00:00:00 | |
| MIELECB | 2026-08-31 12:23:00 | 50.17345 | 21.65869 | 297° | 5km/h | 21202m | 5.0m/s | 0°C | 0% | 0hPa | 0V | 00:00:00 | 00:00:00 | 00:00:00 | |
| AKAW68 | 2026-08-31 12:22:58 | 50.17342 | 21.65868 | 45° | 13km/h | 21194m | 5.2m/s | 0°C | 0% | 0hPa | 0V | 00:00:00 | 00:00:00 | 00:00:00 | |
| MIELECB | 2026-08-31 12:22:55 | 50.17335 | 21.65855 | 36° | 11km/h | 21178m | 6.6m/s | 0°C | 0% | 0hPa | 0V | 00:00:00 | 00:00:00 | 00:00:00 | |
| AKAW682 | 2026-08-31 12:22:53 | 50.17332 | 21.65853 | 346° | 4km/h | 21167m | 7.1m/s | 0°C | 0% | 0hPa | 0V | 00:00:00 | 00:00:00 | 00:00:00 | |
| SQ9PSP-11 | 2026-08-31 12:22:51 | 50.17332 | 21.65850 | 114° | 4km/h | 21157m | 4.5m/s | 0°C | 0% | 0hPa | 0V | 00:00:00 | 00:00:00 | 00:00:00 | |
| MIELECB | 2026-08-31 12:22:49 | 50.17331 | 21.65850 | 14° | 5km/h | 21146m | 5.7m/s | 0°C | 0% | 0hPa | 0V | 00:00:00 | 00:00:00 | 00:00:00 | |
| MIELECB | 2026-08-31 12:22:44 | 50.17327 | 21.65824 | 49° | 5km/h | 21115m | 5.6m/s | 0°C | 0% | 0hPa | 0V | 00:00:00 | 00:00:00 | 00:00:00 | |
| AKAW68 | 2026-08-31 12:22:37 | 50.17322 | 21.65810 | 57° | 13km/h | 21086m | 5.6m/s | 0°C | 0% | 0hPa | 0V | 00:00:00 | 00:00:00 | 00:00:00 | |
| SQ9PSP-11 | 2026-08-31 12:22:35 | 50.17319 | 21.65801 | 57° | 9km/h | 21077m | 5.7m/s | 0°C | 0% | 0hPa | 0V | 00:00:00 | 00:00:00 | 00:00:00 | |
| MIELECB | 2026-08-31 12:22:33 | 50.17319 | 21.65792 | 103° | 9km/h | 21061m | 4.4m/s | 0°C | 0% | 0hPa | 0V | 00:00:00 | 00:00:00 | 00:00:00 | |
| AKAW682 | 2026-08-31 12:22:31 | 50.17319 | 21.65788 | 67° | 9km/h | 21056m | 6.6m/s | 0°C | 0% | 0hPa | 0V | 00:00:00 | 00:00:00 | 00:00:00 | |
| MIELECB | 2026-08-31 12:22:27 | 50.17306 | 21.65764 | 64° | 26km/h | 21033m | 4.8m/s | 0°C | 0% | 0hPa | 0V | 00:00:00 | 00:00:00 | 00:00:00 | |
| MIELECB | 2026-08-31 12:22:21 | 50.17293 | 21.65736 | 73° | 13km/h | 21001m | 3.7m/s | 0°C | 0% | 0hPa | 0V | 00:00:00 | 00:00:00 | 00:00:00 | |
| SQ9PSP-11 | 2026-08-31 12:22:20 | 50.17292 | 21.65732 | 37° | 15km/h | 20997m | 6.6m/s | 0°C | 0% | 0hPa | 0V | 00:00:00 | 00:00:00 | 00:00:00 | |
| MIELECB | 2026-08-31 12:22:16 | 50.17273 | 21.65717 | 58° | 20km/h | 20974m | 6.2m/s | 0°C | 0% | 0hPa | 0V | 00:00:00 | 00:00:00 | 00:00:00 | |
| AKAW68 | 2026-08-31 12:22:15 | 50.17270 | 21.65710 | 66° | 18km/h | 20968m | 4.9m/s | 0°C | 0% | 0hPa | 0V | 00:00:00 | 00:00:00 | 00:00:00 | |
| MIELECB | 2026-08-31 12:22:11 | 50.17257 | 21.65692 | 11° | 13km/h | 20947m | 4.1m/s | 0°C | 0% | 0hPa | 0V | 00:00:00 | 00:00:00 | 00:00:00 | |
| AKAW682 | 2026-08-31 12:22:10 | 50.17255 | 21.65692 | 120° | 2km/h | 20942m | 4.8m/s | 0°C | 0% | 0hPa | 0V | 00:00:00 | 00:00:00 | 00:00:00 | |
| MIELECB | 2026-08-31 12:22:05 | 50.17247 | 21.65688 | 14° | 11km/h | 20918m | 5.7m/s | 0°C | 0% | 0hPa | 0V | 00:00:00 | 00:00:00 | 00:00:00 | |
| SQ9PSP-11 | 2026-08-31 12:22:04 | 50.17245 | 21.65686 | 56° | 9km/h | 20912m | 5.4m/s | 0°C | 0% | 0hPa | 0V | 00:00:00 | 00:00:00 | 00:00:00 | |
| MIELECB | 2026-08-31 12:22:00 | 50.17231 | 21.65675 | 19° | 22km/h | 20892m | 4.6m/s | 0°C | 0% | 0hPa | 0V | 00:00:00 | 00:00:00 | 00:00:00 | |
| AKAW68 | 2026-08-31 12:21:54 | 50.17210 | 21.65654 | 31° | 16km/h | 20860m | 5.0m/s | 0°C | 0% | 0hPa | 0V | 00:00:00 | 00:00:00 | 00:00:00 | |
| AKAW682 | 2026-08-31 12:21:50 | 50.17197 | 21.65647 | 9° | 18km/h | 20837m | 6.6m/s | 0°C | 0% | 0hPa | 0V | 00:00:00 | 00:00:00 | 00:00:00 | |
| MIELECB | 2026-08-31 12:21:49 | 50.17192 | 21.65645 | 18° | 20km/h | 20832m | 4.3m/s | 0°C | 0% | 0hPa | 0V | 00:00:00 | 00:00:00 | 00:00:00 | |
| SQ9PSP-11 | 2026-08-31 12:21:48 | 50.17188 | 21.65642 | 34° | 13km/h | 20827m | 5.3m/s | 0°C | 0% | 0hPa | 0V | 00:00:00 | 00:00:00 | 00:00:00 | |
| MIELECB | 2026-08-31 12:21:43 | 50.17172 | 21.65634 | 3° | 18km/h | 20803m | 4.3m/s | 0°C | 0% | 0hPa | 0V | 00:00:00 | 00:00:00 | 00:00:00 | |
| MIELECB | 2026-08-31 12:21:38 | 50.17153 | 21.65631 | 3° | 16km/h | 20776m | 4.1m/s | 0°C | 0% | 0hPa | 0V | 00:00:00 | 00:00:00 | 00:00:00 | |
| AKAW68 | 2026-08-31 12:21:34 | 50.17140 | 21.65631 | 358° | 16km/h | 20756m | 6.8m/s | 0°C | 0% | 0hPa | 0V | 00:00:00 | 00:00:00 | 00:00:00 | |
| MIELECB | 2026-08-31 12:21:33 | 50.17136 | 21.65631 | 1° | 20km/h | 20750m | 4.8m/s | 0°C | 0% | 0hPa | 0V | 00:00:00 | 00:00:00 | 00:00:00 | |
| MIELECB | 2026-08-31 12:21:28 | 50.17119 | 21.65637 | 348° | 15km/h | 20725m | 6.3m/s | 0°C | 0% | 0hPa | 0V | 00:00:00 | 00:00:00 | 00:00:00 | |
| AKAW682 | 2026-08-31 12:21:26 | 50.17109 | 21.65639 | 354° | 24km/h | 20715m | 4.3m/s | 0°C | 0% | 0hPa | 0V | 00:00:00 | 00:00:00 | 00:00:00 | |
| MIELECB | 2026-08-31 12:21:22 | 50.17092 | 21.65652 | 332° | 18km/h | 20693m | 7.0m/s | 0°C | 0% | 0hPa | 0V | 00:00:00 | 00:00:00 | 00:00:00 | |
| SQ9PSP-11 | 2026-08-31 12:21:18 | 50.17083 | 21.65661 | 281° | 4km/h | 20671m | 5.4m/s | 0°C | 0% | 0hPa | 0V | 00:00:00 | 00:00:00 | 00:00:00 | |
| MIELECB | 2026-08-31 12:21:16 | 50.17080 | 21.65666 | 334° | 13km/h | 20660m | 6.2m/s | 0°C | 0% | 0hPa | 0V | 00:00:00 | 00:00:00 | 00:00:00 | |
| AKAW68 | 2026-08-31 12:21:14 | 50.17072 | 21.65671 | 334° | 20km/h | 20650m | 4.5m/s | 0°C | 0% | 0hPa | 0V | 00:00:00 | 00:00:00 | 00:00:00 | |
| MIELECB | 2026-08-31 12:21:11 | 50.17065 | 21.65680 | 317° | 5km/h | 20636m | 4.1m/s | 0°C | 0% | 0hPa | 0V | 00:00:00 | 00:00:00 | 00:00:00 | |
| MIELECB | 2026-08-31 12:21:05 | 50.17050 | 21.65697 | 315° | 16km/h | 20606m | 5.0m/s | 0°C | 0% | 0hPa | 0V | 00:00:00 | 00:00:00 | 00:00:00 | |
| SQ9PSP-11 | 2026-08-31 12:21:03 | 50.17045 | 21.65699 | 42° | 7km/h | 20595m | 5.0m/s | 0°C | 0% | 0hPa | 0V | 00:00:00 | 00:00:00 | 00:00:00 | |
| MIELECB | 2026-08-31 12:20:59 | 50.17043 | 21.65701 | 331° | 11km/h | 20574m | 6.9m/s | 0°C | 0% | 0hPa | 0V | 00:00:00 | 00:00:00 | 00:00:00 | |
| AKAW68 | 2026-08-31 12:20:54 | 50.17028 | 21.65708 | 11° | 7km/h | 20548m | 4.4m/s | 0°C | 0% | 0hPa | 0V | 00:00:00 | 00:00:00 | 00:00:00 | |
| SQ9PSP-11 | 2026-08-31 12:20:46 | 50.17020 | 21.65706 | 25° | 11km/h | 20505m | 5.3m/s | 0°C | 0% | 0hPa | 0V | 00:00:00 | 00:00:00 | 00:00:00 | |
| AKAW682 | 2026-08-31 12:20:39 | 50.17017 | 21.65687 | 348° | 5km/h | 20465m | 6.0m/s | 0°C | 0% | 0hPa | 0V | 00:00:00 | 00:00:00 | 00:00:00 | |
| MIELECB | 2026-08-31 12:20:37 | 50.17015 | 21.65688 | 354° | 13km/h | 20459m | 4.2m/s | 0°C | 0% | 0hPa | 0V | 00:00:00 | 00:00:00 | 00:00:00 | |
| MIELECB | 2026-08-31 12:20:31 | 50.17006 | 21.65674 | 169° | 7km/h | 20430m | 5.0m/s | 0°C | 0% | 0hPa | 0V | 00:00:00 | 00:00:00 | 00:00:00 | |
| SQ9PSP-11 | 2026-08-31 12:20:29 | 50.17009 | 21.65672 | 120° | 4km/h | 20419m | 5.1m/s | 0°C | 0% | 0hPa | 0V | 00:00:00 | 00:00:00 | 00:00:00 | |
| MIELECB | 2026-08-31 12:20:25 | 50.17007 | 21.65675 | 5° | 13km/h | 20397m | 6.4m/s | 0°C | 0% | 0hPa | 0V | 00:00:00 | 00:00:00 | 00:00:00 | |
| AKAW68 | 2026-08-31 12:20:24 | 50.17003 | 21.65673 | 23° | 18km/h | 20391m | 5.3m/s | 0°C | 0% | 0hPa | 0V | 00:00:00 | 00:00:00 | 00:00:00 | |
| MIELECB | 2026-08-31 12:20:20 | 50.16992 | 21.65658 | 32° | 5km/h | 20370m | 4.3m/s | 0°C | 0% | 0hPa | 0V | 00:00:00 | 00:00:00 | 00:00:00 | |
| AKAW682 | 2026-08-31 12:20:18 | 50.16991 | 21.65655 | 75° | 5km/h | 20359m | 5.0m/s | 0°C | 0% | 0hPa | 0V | 00:00:00 | 00:00:00 | 00:00:00 | |
| SP9KGR-15 | 2026-08-31 12:20:15 | 50.16990 | 21.65649 | 15° | 11km/h | 20345m | 3.9m/s | 0°C | 0% | 0hPa | 0V | 00:00:00 | 00:00:00 | 00:00:00 | |
| MIELECB | 2026-08-31 12:20:14 | 50.16987 | 21.65648 | 32° | 13km/h | 20341m | 5.4m/s | 0°C | 0% | 0hPa | 0V | 00:00:00 | 00:00:00 | 00:00:00 | |
| SQ9PSP-11 | 2026-08-31 12:20:13 | 50.16984 | 21.65645 | 32° | 22km/h | 20337m | 6.4m/s | 0°C | 0% | 0hPa | 0V | 00:00:00 | 00:00:00 | 00:00:00 | |
| MIELECB | 2026-08-31 12:20:09 | 50.16968 | 21.65630 | 33° | 7km/h | 20317m | 5.0m/s | 0°C | 0% | 0hPa | 0V | 00:00:00 | 00:00:00 | 00:00:00 | |
| AKAW68 | 2026-08-31 12:20:04 | 50.16965 | 21.65617 | 20° | 11km/h | 20290m | 6.0m/s | 0°C | 0% | 0hPa | 0V | 00:00:00 | 00:00:00 | 00:00:00 | |
| MIELECB | 2026-08-31 12:20:03 | 50.16962 | 21.65616 | 358° | 9km/h | 20285m | 4.3m/s | 0°C | 0% | 0hPa | 0V | 00:00:00 | 00:00:00 | 00:00:00 | |
| AKAW682 | 2026-08-31 12:19:57 | 50.16943 | 21.65599 | 46° | 5km/h | 20256m | 5.0m/s | 0°C | 0% | 0hPa | 0V | 00:00:00 | 00:00:00 | 00:00:00 | |
| SP9KGR-15 | 2026-08-31 12:19:53 | 50.16942 | 21.65592 | 47° | 2km/h | 20237m | 7.0m/s | 0°C | 0% | 0hPa | 0V | 00:00:00 | 00:00:00 | 00:00:00 | |
| MIELECB | 2026-08-31 12:19:52 | 50.16941 | 21.65592 | 360° | 13km/h | 20231m | 5.5m/s | 0°C | 0% | 0hPa | 0V | 00:00:00 | 00:00:00 | 00:00:00 | |
| MIELECB | 2026-08-31 12:19:46 | 50.16917 | 21.65577 | 349° | 7km/h | 20201m | 6.9m/s | 0°C | 0% | 0hPa | 0V | 00:00:00 | 00:00:00 | 00:00:00 | |
| AKAW68 | 2026-08-31 12:19:42 | 50.16917 | 21.65582 | 361° | 7km/h | 20179m | 3.7m/s | 0°C | 0% | 0hPa | 0V | 00:00:00 | 00:00:00 | 00:00:00 | |
| MIELECB | 2026-08-31 12:19:41 | 50.16914 | 21.65582 | 359° | 15km/h | 20174m | 6.5m/s | 0°C | 0% | 0hPa | 0V | 00:00:00 | 00:00:00 | 00:00:00 | |
| SP9KGR-15 | 2026-08-31 12:19:37 | 50.16897 | 21.65573 | 46° | 16km/h | 20153m | 4.2m/s | 0°C | 0% | 0hPa | 0V | 00:00:00 | 00:00:00 | 00:00:00 | |
| AKAW682 | 2026-08-31 12:19:36 | 50.16894 | 21.65569 | 30° | 18km/h | 20148m | 5.4m/s | 0°C | 0% | 0hPa | 0V | 00:00:00 | 00:00:00 | 00:00:00 | |
| MIELECB | 2026-08-31 12:19:35 | 50.16890 | 21.65567 | 6° | 13km/h | 20143m | 5.1m/s | 0°C | 0% | 0hPa | 0V | 00:00:00 | 00:00:00 | 00:00:00 | |
| MIELECB | 2026-08-31 12:19:30 | 50.16876 | 21.65565 | 9° | 20km/h | 20117m | 5.0m/s | 0°C | 0% | 0hPa | 0V | 00:00:00 | 00:00:00 | 00:00:00 | |
| SQ9PSP-11 | 2026-08-31 12:19:26 | 50.16862 | 21.65558 | 9° | 2km/h | 20097m | 2.1m/s | 0°C | 0% | 0hPa | 0V | 00:00:00 | 00:00:00 | 00:00:00 | |
| MIELECB | 2026-08-31 12:19:24 | 50.16859 | 21.65562 | 326° | 13km/h | 20088m | 4.8m/s | 0°C | 0% | 0hPa | 0V | 00:00:00 | 00:00:00 | 00:00:00 | |
| AKAW68 | 2026-08-31 12:19:22 | 50.16855 | 21.65566 | 339° | 7km/h | 20078m | 5.3m/s | 0°C | 0% | 0hPa | 0V | 00:00:00 | 00:00:00 | 00:00:00 | |
| SP9KGR-15 | 2026-08-31 12:19:18 | 50.16847 | 21.65560 | 5° | 13km/h | 20057m | 4.6m/s | 0°C | 0% | 0hPa | 0V | 00:00:00 | 00:00:00 | 00:00:00 | |
| AKAW682 | 2026-08-31 12:19:16 | 50.16841 | 21.65560 | 354° | 13km/h | 20049m | 5.1m/s | 0°C | 0% | 0hPa | 0V | 00:00:00 | 00:00:00 | 00:00:00 | |
| MIELECB | 2026-08-31 12:19:12 | 50.16838 | 21.65567 | 288° | 13km/h | 20027m | 4.3m/s | 0°C | 0% | 0hPa | 0V | 00:00:00 | 00:00:00 | 00:00:00 | |
| SQ9PSP-11 | 2026-08-31 12:19:10 | 50.16836 | 21.65572 | 329° | 4km/h | 20017m | 6.8m/s | 0°C | 0% | 0hPa | 0V | 00:00:00 | 00:00:00 | 00:00:00 | |
| MIELECB | 2026-08-31 12:19:07 | 50.16833 | 21.65563 | 43° | 13km/h | 20002m | 5.6m/s | 0°C | 0% | 0hPa | 0V | 00:00:00 | 00:00:00 | 00:00:00 | |
| SP9KGR-15 | 2026-08-31 12:19:02 | 50.16826 | 21.65554 | 65° | 2km/h | 19980m | 4.8m/s | 0°C | 0% | 0hPa | 0V | 00:00:00 | 00:00:00 | 00:00:00 | |
| AKAW68 | 2026-08-31 12:19:01 | 50.16825 | 21.65553 | 13° | 5km/h | 19975m | 5.4m/s | 0°C | 0% | 0hPa | 0V | 00:00:00 | 00:00:00 | 00:00:00 | |
| MIELECB | 2026-08-31 12:18:56 | 50.16821 | 21.65536 | 77° | 15km/h | 19953m | 6.0m/s | 0°C | 0% | 0hPa | 0V | 00:00:00 | 00:00:00 | 00:00:00 | |
| SQ9PSP-11 | 2026-08-31 12:18:55 | 50.16820 | 21.65531 | 76° | 9km/h | 19948m | 4.9m/s | 0°C | 0% | 0hPa | 0V | 00:00:00 | 00:00:00 | 00:00:00 | |
| AKAW682 | 2026-08-31 12:18:52 | 50.16816 | 21.65518 | 84° | 13km/h | 19933m | 5.3m/s | 0°C | 0% | 0hPa | 0V | 00:00:00 | 00:00:00 | 00:00:00 | |
| MIELECB | 2026-08-31 12:18:50 | 50.16815 | 21.65510 | 76° | 7km/h | 19924m | 5.2m/s | 0°C | 0% | 0hPa | 0V | 00:00:00 | 00:00:00 | 00:00:00 | |
| SP9KGR-15 | 2026-08-31 12:18:46 | 50.16817 | 21.65499 | 99° | 15km/h | 19906m | 5.3m/s | 0°C | 0% | 0hPa | 0V | 00:00:00 | 00:00:00 | 00:00:00 | |
| MIELECB | 2026-08-31 12:18:44 | 50.16817 | 21.65490 | 90° | 5km/h | 19897m | 6.7m/s | 0°C | 0% | 0hPa | 0V | 00:00:00 | 00:00:00 | 00:00:00 | |
| AKAW68 | 2026-08-31 12:18:39 | 50.16808 | 21.65477 | 48° | 15km/h | 19868m | 5.8m/s | 0°C | 0% | 0hPa | 0V | 00:00:00 | 00:00:00 | 00:00:00 | |
| MIELECB | 2026-08-31 12:18:38 | 50.16806 | 21.65474 | 45° | 11km/h | 19862m | 6.4m/s | 0°C | 0% | 0hPa | 0V | 00:00:00 | 00:00:00 | 00:00:00 | |
| MIELECB | 2026-08-31 12:18:33 | 50.16802 | 21.65457 | 23° | 7km/h | 19837m | 4.8m/s | 0°C | 0% | 0hPa | 0V | 00:00:00 | 00:00:00 | 00:00:00 | |
| AKAW682 | 2026-08-31 12:18:32 | 50.16799 | 21.65456 | 13° | 16km/h | 19833m | 4.1m/s | 0°C | 0% | 0hPa | 0V | 00:00:00 | 00:00:00 | 00:00:00 | |
| SP9KGR-15 | 2026-08-31 12:18:30 | 50.16790 | 21.65448 | 44° | 27km/h | 19823m | 7.1m/s | 0°C | 0% | 0hPa | 0V | 00:00:00 | 00:00:00 | 00:00:00 | |
| MIELECB | 2026-08-31 12:18:27 | 50.16778 | 21.65427 | 47° | 15km/h | 19808m | 5.8m/s | 0°C | 0% | 0hPa | 0V | 00:00:00 | 00:00:00 | 00:00:00 | |
| SQ9PSP-11 | 2026-08-31 12:18:23 | 50.16771 | 21.65419 | 41° | 13km/h | 19789m | 4.2m/s | 0°C | 0% | 0hPa | 0V | 00:00:00 | 00:00:00 | 00:00:00 | |
| MIELECB | 2026-08-31 12:18:22 | 50.16768 | 21.65417 | 18° | 15km/h | 19785m | 6.2m/s | 0°C | 0% | 0hPa | 0V | 00:00:00 | 00:00:00 | 00:00:00 | |
| AKAW68 | 2026-08-31 12:18:17 | 50.16745 | 21.65402 | 40° | 16km/h | 19758m | 4.9m/s | 0°C | 0% | 0hPa | 0V | 00:00:00 | 00:00:00 | 00:00:00 | |
| MIELECB | 2026-08-31 12:18:16 | 50.16742 | 21.65398 | 31° | 15km/h | 19753m | 6.1m/s | 0°C | 0% | 0hPa | 0V | 00:00:00 | 00:00:00 | 00:00:00 | |
| SP9KGR-15 | 2026-08-31 12:18:14 | 50.16735 | 21.65398 | 350° | 16km/h | 19742m | 4.4m/s | 0°C | 0% | 0hPa | 0V | 00:00:00 | 00:00:00 | 00:00:00 | |
| MIELECB | 2026-08-31 12:18:11 | 50.16721 | 21.65395 | 28° | 22km/h | 19727m | 6.7m/s | 0°C | 0% | 0hPa | 0V | 00:00:00 | 00:00:00 | 00:00:00 | |
| SQ9PSP-11 | 2026-08-31 12:18:08 | 50.16703 | 21.65385 | 15° | 27km/h | 19710m | 5.8m/s | 0°C | 0% | 0hPa | 0V | 00:00:00 | 00:00:00 | 00:00:00 | |
| MIELECB | 2026-08-31 12:18:05 | 50.16688 | 21.65375 | 36° | 16km/h | 19694m | 4.5m/s | 0°C | 0% | 0hPa | 0V | 00:00:00 | 00:00:00 | 00:00:00 | |
| MIELECB | 2026-08-31 12:18:01 | 50.16668 | 21.65364 | 46° | 24km/h | 19672m | 5.6m/s | 0°C | 0% | 0hPa | 0V | 00:00:00 | 00:00:00 | 00:00:00 | |
| SP9KGR-15 | 2026-08-31 12:17:58 | 50.16661 | 21.65350 | 54° | 20km/h | 19663m | 5.6m/s | 0°C | 0% | 0hPa | 0V | 00:00:00 | 00:00:00 | 00:00:00 | |
| AKAW68 | 2026-08-31 12:17:56 | 50.16655 | 21.65341 | 35° | 16km/h | 19651m | 4.8m/s | 0°C | 0% | 0hPa | 0V | 00:00:00 | 00:00:00 | 00:00:00 | |
| MIELECB | 2026-08-31 12:17:54 | 50.16647 | 21.65333 | 25° | 16km/h | 19640m | 4.9m/s | 0°C | 0% | 0hPa | 0V | 00:00:00 | 00:00:00 | 00:00:00 | |
| SQ9PSP-11 | 2026-08-31 12:17:52 | 50.16639 | 21.65331 | 357° | 16km/h | 19630m | 6.6m/s | 0°C | 0% | 0hPa | 0V | 00:00:00 | 00:00:00 | 00:00:00 | |
| AKAW682 | 2026-08-31 12:17:51 | 50.16636 | 21.65331 | 355° | 16km/h | 19625m | 4.8m/s | 0°C | 0% | 0hPa | 0V | 00:00:00 | 00:00:00 | 00:00:00 | |
| MIELECB | 2026-08-31 12:17:49 | 50.16626 | 21.65328 | 36° | 18km/h | 19615m | 4.6m/s | 0°C | 0% | 0hPa | 0V | 00:00:00 | 00:00:00 | 00:00:00 | |
| MIELECB | 2026-08-31 12:17:43 | 50.16608 | 21.65310 | 38° | 11km/h | 19585m | 5.0m/s | 0°C | 0% | 0hPa | 0V | 00:00:00 | 00:00:00 | 00:00:00 | |
| SP9KGR-15 | 2026-08-31 12:17:42 | 50.16606 | 21.65308 | 8° | 9km/h | 19579m | 6.0m/s | 0°C | 0% | 0hPa | 0V | 00:00:00 | 00:00:00 | 00:00:00 | |
| MIELECB | 2026-08-31 12:17:38 | 50.16596 | 21.65306 | 39° | 15km/h | 19561m | 5.2m/s | 0°C | 0% | 0hPa | 0V | 00:00:00 | 00:00:00 | 00:00:00 | |
| SQ9PSP-11 | 2026-08-31 12:17:37 | 50.16593 | 21.65303 | 38° | 13km/h | 19556m | 4.9m/s | 0°C | 0% | 0hPa | 0V | 00:00:00 | 00:00:00 | 00:00:00 | |
| AKAW68 | 2026-08-31 12:17:36 | 50.16590 | 21.65300 | 32° | 13km/h | 19550m | 6.3m/s | 0°C | 0% | 0hPa | 0V | 00:00:00 | 00:00:00 | 00:00:00 | |
| MIELECB | 2026-08-31 12:17:33 | 50.16586 | 21.65302 | 310° | 5km/h | 19534m | 5.6m/s | 0°C | 0% | 0hPa | 0V | 00:00:00 | 00:00:00 | 00:00:00 | |
| AKAW682 | 2026-08-31 12:17:30 | 50.16582 | 21.65301 | 18° | 7km/h | 19518m | 6.4m/s | 0°C | 0% | 0hPa | 0V | 00:00:00 | 00:00:00 | 00:00:00 | |
| MIELECB | 2026-08-31 12:17:27 | 50.16577 | 21.65300 | 28° | 5km/h | 19502m | 7.2m/s | 0°C | 0% | 0hPa | 0V | 00:00:00 | 00:00:00 | 00:00:00 | |
| SP9KGR-15 | 2026-08-31 12:17:26 | 50.16575 | 21.65298 | 60° | 9km/h | 19496m | 5.3m/s | 0°C | 0% | 0hPa | 0V | 00:00:00 | 00:00:00 | 00:00:00 | |
| MIELECB | 2026-08-31 12:17:21 | 50.16570 | 21.65292 | 61° | 9km/h | 19468m | 5.2m/s | 0°C | 0% | 0hPa | 0V | 00:00:00 | 00:00:00 | 00:00:00 | |
| MIELECB | 2026-08-31 12:17:16 | 50.16566 | 21.65281 | 112° | 9km/h | 19442m | 5.4m/s | 0°C | 0% | 0hPa | 0V | 00:00:00 | 00:00:00 | 00:00:00 | |
| AKAW68 | 2026-08-31 12:17:14 | 50.16567 | 21.65277 | 120° | 5km/h | 19431m | 5.2m/s | 0°C | 0% | 0hPa | 0V | 00:00:00 | 00:00:00 | 00:00:00 | |
| MIELECB | 2026-08-31 12:17:11 | 50.16566 | 21.65277 | 44° | 5km/h | 19418m | 7.0m/s | 0°C | 0% | 0hPa | 0V | 00:00:00 | 00:00:00 | 00:00:00 | |
| SP9KGR-15 | 2026-08-31 12:17:10 | 50.16565 | 21.65274 | 69° | 9km/h | 19412m | 4.6m/s | 0°C | 0% | 0hPa | 0V | 00:00:00 | 00:00:00 | 00:00:00 | |
| AKAW682 | 2026-08-31 12:17:09 | 50.16564 | 21.65269 | 69° | 15km/h | 19407m | 5.6m/s | 0°C | 0% | 0hPa | 0V | 00:00:00 | 00:00:00 | 00:00:00 | |
| SQ9PSP-11 | 2026-08-31 12:17:06 | 50.16562 | 21.65255 | 97° | 15km/h | 19392m | 5.8m/s | 0°C | 0% | 0hPa | 0V | 00:00:00 | 00:00:00 | 00:00:00 | |
| MIELECB | 2026-08-31 12:17:05 | 50.16562 | 21.65249 | 97° | 18km/h | 19386m | 4.8m/s | 0°C | 0% | 0hPa | 0V | 00:00:00 | 00:00:00 | 00:00:00 | |
| MIELECB | 2026-08-31 12:17:00 | 50.16557 | 21.65229 | 56° | 9km/h | 19360m | 6.4m/s | 0°C | 0% | 0hPa | 0V | 00:00:00 | 00:00:00 | 00:00:00 | |
| SP9KGR-15 | 2026-08-31 12:16:54 | 50.16553 | 21.65206 | 80° | 16km/h | 19331m | 6.2m/s | 0°C | 0% | 0hPa | 0V | 00:00:00 | 00:00:00 | 00:00:00 | |
| AKAW68 | 2026-08-31 12:16:53 | 50.16552 | 21.65201 | 84° | 13km/h | 19325m | 5.0m/s | 0°C | 0% | 0hPa | 0V | 00:00:00 | 00:00:00 | 00:00:00 | |
| SQ9PSP-11 | 2026-08-31 12:16:51 | 50.16548 | 21.65192 | 39° | 16km/h | 19314m | 6.3m/s | 0°C | 0% | 0hPa | 0V | 00:00:00 | 00:00:00 | 00:00:00 | |
| AKAW682 | 2026-08-31 12:16:48 | 50.16539 | 21.65180 | 59° | 15km/h | 19298m | 4.6m/s | 0°C | 0% | 0hPa | 0V | 00:00:00 | 00:00:00 | 00:00:00 | |
| MIELECB | 2026-08-31 12:16:43 | 50.16528 | 21.65154 | 82° | 22km/h | 19273m | 5.2m/s | 0°C | 0% | 0hPa | 0V | 00:00:00 | 00:00:00 | 00:00:00 | |
| SP9KGR-15 | 2026-08-31 12:16:39 | 50.16516 | 21.65128 | 23° | 20km/h | 19253m | 4.2m/s | 0°C | 0% | 0hPa | 0V | 00:00:00 | 00:00:00 | 00:00:00 | |
| MIELECB | 2026-08-31 12:16:37 | 50.16508 | 21.65122 | 46° | 15km/h | 19243m | 5.1m/s | 0°C | 0% | 0hPa | 0V | 00:00:00 | 00:00:00 | 00:00:00 | |
| SQ9PSP-11 | 2026-08-31 12:16:35 | 50.16503 | 21.65114 | 50° | 18km/h | 19233m | 4.9m/s | 0°C | 0% | 0hPa | 0V | 00:00:00 | 00:00:00 | 00:00:00 | |
| AKAW68 | 2026-08-31 12:16:32 | 50.16494 | 21.65095 | 69° | 22km/h | 19219m | 5.6m/s | 0°C | 0% | 0hPa | 0V | 00:00:00 | 00:00:00 | 00:00:00 | |
| MIELECB | 2026-08-31 12:16:27 | 50.16474 | 21.65064 | 28° | 18km/h | 19196m | 6.0m/s | 0°C | 0% | 0hPa | 0V | 00:00:00 | 00:00:00 | 00:00:00 | |
| SP9KGR-15 | 2026-08-31 12:16:22 | 50.16454 | 21.65043 | 55° | 22km/h | 19169m | 6.5m/s | 0°C | 0% | 0hPa | 0V | 00:00:00 | 00:00:00 | 00:00:00 | |
| MIELECB | 2026-08-31 12:16:21 | 50.16451 | 21.65037 | 58° | 18km/h | 19164m | 4.7m/s | 0°C | 0% | 0hPa | 0V | 00:00:00 | 00:00:00 | 00:00:00 | |
| SQ9PSP-11 | 2026-08-31 12:16:19 | 50.16444 | 21.65028 | 26° | 24km/h | 19155m | 5.9m/s | 0°C | 0% | 0hPa | 0V | 00:00:00 | 00:00:00 | 00:00:00 | |
| MIELECB | 2026-08-31 12:16:16 | 50.16427 | 21.65018 | 22° | 20km/h | 19137m | 5.2m/s | 0°C | 0% | 0hPa | 0V | 00:00:00 | 00:00:00 | 00:00:00 | |
| AKAW68 | 2026-08-31 12:16:11 | 50.16405 | 21.65007 | 43° | 11km/h | 19111m | 4.9m/s | 0°C | 0% | 0hPa | 0V | 00:00:00 | 00:00:00 | 00:00:00 | |
| MIELECB | 2026-08-31 12:16:10 | 50.16403 | 21.65004 | 47° | 13km/h | 19108m | 3.0m/s | 0°C | 0% | 0hPa | 0V | 00:00:00 | 00:00:00 | 00:00:00 | |
| AKAW682 | 2026-08-31 12:16:07 | 50.16392 | 21.64994 | 19° | 22km/h | 19093m | 5.2m/s | 0°C | 0% | 0hPa | 0V | 00:00:00 | 00:00:00 | 00:00:00 | |
| MIELECB | 2026-08-31 12:16:05 | 50.16382 | 21.64988 | 35° | 18km/h | 19084m | 6.7m/s | 0°C | 0% | 0hPa | 0V | 00:00:00 | 00:00:00 | 00:00:00 | |
| SQ9PSP-11 | 2026-08-31 12:16:04 | 50.16379 | 21.64984 | 52° | 11km/h | 19078m | 5.3m/s | 0°C | 0% | 0hPa | 0V | 00:00:00 | 00:00:00 | 00:00:00 | |
| MIELECB | 2026-08-31 12:15:59 | 50.16372 | 21.64977 | 94° | 7km/h | 19052m | 4.8m/s | 0°C | 0% | 0hPa | 0V | 00:00:00 | 00:00:00 | 00:00:00 | |
| MIELECB | 2026-08-31 12:15:53 | 50.16360 | 21.64962 | 53° | 4km/h | 19020m | 4.6m/s | 0°C | 0% | 0hPa | 0V | 00:00:00 | 00:00:00 | 00:00:00 | |
| SP9KGR-15 | 2026-08-31 12:15:50 | 50.16360 | 21.64962 | 238° | 2km/h | 19005m | 3.8m/s | 0°C | 0% | 0hPa | 0V | 00:00:00 | 00:00:00 | 00:00:00 | |
| AKAW68 | 2026-08-31 12:15:49 | 50.16361 | 21.64963 | 146° | 2km/h | 19000m | 5.9m/s | 0°C | 0% | 0hPa | 0V | 00:00:00 | 00:00:00 | 00:00:00 | |
| AKAW682 | 2026-08-31 12:15:47 | 50.16362 | 21.64956 | 96° | 13km/h | 18991m | 4.4m/s | 0°C | 0% | 0hPa | 0V | 00:00:00 | 00:00:00 | 00:00:00 | |
| MIELECB | 2026-08-31 12:15:42 | 50.16358 | 21.64930 | 97° | 13km/h | 18969m | 5.2m/s | 0°C | 0% | 0hPa | 0V | 00:00:00 | 00:00:00 | 00:00:00 | |
| MIELECB | 2026-08-31 12:15:36 | 50.16368 | 21.64914 | 112° | 7km/h | 18940m | 6.4m/s | 0°C | 0% | 0hPa | 0V | 00:00:00 | 00:00:00 | 00:00:00 | |
| SP9KGR-15 | 2026-08-31 12:15:34 | 50.16367 | 21.64904 | 80° | 18km/h | 18929m | 3.8m/s | 0°C | 0% | 0hPa | 0V | 00:00:00 | 00:00:00 | 00:00:00 | |
| SQ9PSP-11 | 2026-08-31 12:15:33 | 50.16366 | 21.64897 | 86° | 18km/h | 18924m | 5.8m/s | 0°C | 0% | 0hPa | 0V | 00:00:00 | 00:00:00 | 00:00:00 | |
| MIELECB | 2026-08-31 12:15:31 | 50.16366 | 21.64882 | 104° | 15km/h | 18913m | 6.1m/s | 0°C | 0% | 0hPa | 0V | 00:00:00 | 00:00:00 | 00:00:00 | |
| MIELECB | 2026-08-31 12:15:25 | 50.16368 | 21.64856 | 68° | 13km/h | 18884m | 4.4m/s | 0°C | 0% | 0hPa | 0V | 00:00:00 | 00:00:00 | 00:00:00 | |
| MIELECB | 2026-08-31 12:15:19 | 50.16358 | 21.64813 | 51° | 18km/h | 18855m | 4.4m/s | 0°C | 0% | 0hPa | 0V | 00:00:00 | 00:00:00 | 00:00:00 | |
| SQ9PSP-11 | 2026-08-31 12:15:18 | 50.16353 | 21.64800 | 73° | 24km/h | 18847m | 5.5m/s | 0°C | 0% | 0hPa | 0V | 00:00:00 | 00:00:00 | 00:00:00 | |
| MIELECB | 2026-08-31 12:15:13 | 50.16346 | 21.64755 | 69° | 29km/h | 18827m | 4.7m/s | 0°C | 0% | 0hPa | 0V | 00:00:00 | 00:00:00 | 00:00:00 | |
| MIELECB | 2026-08-31 12:15:07 | 50.16326 | 21.64695 | 45° | 29km/h | 18801m | 4.1m/s | 0°C | 0% | 0hPa | 0V | 00:00:00 | 00:00:00 | 00:00:00 | |
| AKAW68 | 2026-08-31 12:15:06 | 50.16321 | 21.64687 | 52° | 26km/h | 18796m | 5.7m/s | 0°C | 0% | 0hPa | 0V | 00:00:00 | 00:00:00 | 00:00:00 | |
| AKAW682 | 2026-08-31 12:15:05 | 50.16318 | 21.64679 | 70° | 24km/h | 18791m | 4.9m/s | 0°C | 0% | 0hPa | 0V | 00:00:00 | 00:00:00 | 00:00:00 | |
| MIELECB | 2026-08-31 12:14:57 | 50.16292 | 21.64627 | 32° | 29km/h | 18751m | 5.6m/s | 0°C | 0% | 0hPa | 0V | 00:00:00 | 00:00:00 | 00:00:00 | |
| MIELECB | 2026-08-31 12:14:52 | 50.16268 | 21.64590 | 47° | 24km/h | 18725m | 5.1m/s | 0°C | 0% | 0hPa | 0V | 00:00:00 | 00:00:00 | 00:00:00 | |
| SQ9PSP-11 | 2026-08-31 12:14:47 | 50.16247 | 21.64577 | 358° | 26km/h | 18701m | 4.1m/s | 0°C | 0% | 0hPa | 0V | 00:00:00 | 00:00:00 | 00:00:00 | |
| MIELECB | 2026-08-31 12:14:46 | 50.16240 | 21.64577 | 360° | 29km/h | 18697m | 3.7m/s | 0°C | 0% | 0hPa | 0V | 00:00:00 | 00:00:00 | 00:00:00 | |
| AKAW682 | 2026-08-31 12:14:45 | 50.16233 | 21.64576 | 11° | 26km/h | 18693m | 5.8m/s | 0°C | 0% | 0hPa | 0V | 00:00:00 | 00:00:00 | 00:00:00 | |
| SP9KGR-15 | 2026-08-31 12:14:44 | 50.16228 | 21.64574 | 21° | 20km/h | 18687m | 5.7m/s | 0°C | 0% | 0hPa | 0V | 00:00:00 | 00:00:00 | 00:00:00 | |
| MIELECB | 2026-08-31 12:14:40 | 50.16210 | 21.64555 | 39° | 20km/h | 18669m | 4.4m/s | 0°C | 0% | 0hPa | 0V | 00:00:00 | 00:00:00 | 00:00:00 | |
| MIELECB | 2026-08-31 12:14:35 | 50.16184 | 21.64536 | 12° | 33km/h | 18646m | 3.5m/s | 0°C | 0% | 0hPa | 0V | 00:00:00 | 00:00:00 | 00:00:00 | |
| SQ9PSP-11 | 2026-08-31 12:14:32 | 50.16164 | 21.64529 | 20° | 22km/h | 18633m | 2.9m/s | 0°C | 0% | 0hPa | 0V | 00:00:00 | 00:00:00 | 00:00:00 | |
| MIELECB | 2026-08-31 12:14:29 | 50.16146 | 21.64517 | 28° | 29km/h | 18620m | 4.8m/s | 0°C | 0% | 0hPa | 0V | 00:00:00 | 00:00:00 | 00:00:00 | |
| SP9KGR-15 | 2026-08-31 12:14:26 | 50.16130 | 21.64504 | 19° | 22km/h | 18604m | 5.0m/s | 0°C | 0% | 0hPa | 0V | 00:00:00 | 00:00:00 | 00:00:00 | |
| AKAW68 | 2026-08-31 12:14:24 | 50.16119 | 21.64501 | 2° | 26km/h | 18595m | 3.2m/s | 0°C | 0% | 0hPa | 0V | 00:00:00 | 00:00:00 | 00:00:00 | |
| MIELECB | 2026-08-31 12:14:23 | 50.16112 | 21.64501 | 1° | 24km/h | 18591m | 5.2m/s | 0°C | 0% | 0hPa | 0V | 00:00:00 | 00:00:00 | 00:00:00 | |
| MIELECB | 2026-08-31 12:14:18 | 50.16086 | 21.64492 | 25° | 24km/h | 18567m | 4.1m/s | 0°C | 0% | 0hPa | 0V | 00:00:00 | 00:00:00 | 00:00:00 | |
| SQ9PSP-11 | 2026-08-31 12:14:17 | 50.16081 | 21.64488 | 26° | 20km/h | 18562m | 5.8m/s | 0°C | 0% | 0hPa | 0V | 00:00:00 | 00:00:00 | 00:00:00 | |
| MIELECB | 2026-08-31 12:14:13 | 50.16065 | 21.64479 | 15° | 24km/h | 18542m | 5.1m/s | 0°C | 0% | 0hPa | 0V | 00:00:00 | 00:00:00 | 00:00:00 | |
| MIELECB | 2026-08-31 12:14:07 | 50.16039 | 21.64461 | 35° | 22km/h | 18511m | 5.8m/s | 0°C | 0% | 0hPa | 0V | 00:00:00 | 00:00:00 | 00:00:00 | |
| AKAW68 | 2026-08-31 12:14:04 | 50.16026 | 21.64446 | 33° | 20km/h | 18495m | 4.3m/s | 0°C | 0% | 0hPa | 0V | 00:00:00 | 00:00:00 | 00:00:00 | |
| AKAW682 | 2026-08-31 12:14:03 | 50.16021 | 21.64443 | 17° | 20km/h | 18491m | 5.3m/s | 0°C | 0% | 0hPa | 0V | 00:00:00 | 00:00:00 | 00:00:00 | |
| MIELECB | 2026-08-31 12:14:02 | 50.16016 | 21.64441 | 11° | 22km/h | 18486m | 5.0m/s | 0°C | 0% | 0hPa | 0V | 00:00:00 | 00:00:00 | 00:00:00 | |
| SQ9PSP-11 | 2026-08-31 12:14:01 | 50.16010 | 21.64440 | 6° | 20km/h | 18481m | 4.5m/s | 0°C | 0% | 0hPa | 0V | 00:00:00 | 00:00:00 | 00:00:00 | |
| MIELECB | 2026-08-31 12:13:56 | 50.15995 | 21.64436 | 31° | 20km/h | 18453m | 4.2m/s | 0°C | 0% | 0hPa | 0V | 00:00:00 | 00:00:00 | 00:00:00 | |
| SP9KGR-15 | 2026-08-31 12:13:52 | 50.15978 | 21.64420 | 24° | 20km/h | 18434m | 6.2m/s | 0°C | 0% | 0hPa | 0V | 00:00:00 | 00:00:00 | 00:00:00 | |
| MIELECB | 2026-08-31 12:13:51 | 50.15973 | 21.64417 | 21° | 22km/h | 18429m | 3.8m/s | 0°C | 0% | 0hPa | 0V | 00:00:00 | 00:00:00 | 00:00:00 | |
| MIELECB | 2026-08-31 12:13:45 | 50.15956 | 21.64413 | 14° | 20km/h | 18398m | 4.1m/s | 0°C | 0% | 0hPa | 0V | 00:00:00 | 00:00:00 | 00:00:00 | |
| AKAW68 | 2026-08-31 12:13:44 | 50.15951 | 21.64410 | 25° | 24km/h | 18393m | 4.9m/s | 0°C | 0% | 0hPa | 0V | 00:00:00 | 00:00:00 | 00:00:00 | |
| AKAW682 | 2026-08-31 12:13:43 | 50.15947 | 21.64407 | 26° | 16km/h | 18388m | 4.5m/s | 0°C | 0% | 0hPa | 0V | 00:00:00 | 00:00:00 | 00:00:00 | |
| MIELECB | 2026-08-31 12:13:40 | 50.15938 | 21.64397 | 51° | 13km/h | 18375m | 4.6m/s | 0°C | 0% | 0hPa | 0V | 00:00:00 | 00:00:00 | 00:00:00 | |
| MIELECB | 2026-08-31 12:13:35 | 50.15936 | 21.64382 | 36° | 11km/h | 18353m | 6.3m/s | 0°C | 0% | 0hPa | 0V | 00:00:00 | 00:00:00 | 00:00:00 | |
| MIELECB | 2026-08-31 12:13:29 | 50.15922 | 21.64358 | 105° | 16km/h | 18322m | 6.3m/s | 0°C | 0% | 0hPa | 0V | 00:00:00 | 00:00:00 | 00:00:00 | |
| AKAW68 | 2026-08-31 12:13:23 | 50.15931 | 21.64318 | 71° | 20km/h | 18292m | 5.8m/s | 0°C | 0% | 0hPa | 0V | 00:00:00 | 00:00:00 | 00:00:00 | |
| AKAW682 | 2026-08-31 12:13:22 | 50.15929 | 21.64310 | 63° | 22km/h | 18287m | 3.8m/s | 0°C | 0% | 0hPa | 0V | 00:00:00 | 00:00:00 | 00:00:00 | |
| SP9KGR-15 | 2026-08-31 12:13:21 | 50.15926 | 21.64304 | 59° | 22km/h | 18283m | 4.5m/s | 0°C | 0% | 0hPa | 0V | 00:00:00 | 00:00:00 | 00:00:00 | |
| MIELECB | 2026-08-31 12:13:18 | 50.15923 | 21.64281 | 92° | 22km/h | 18271m | 5.2m/s | 0°C | 0% | 0hPa | 0V | 00:00:00 | 00:00:00 | 00:00:00 | |
| MIELECB | 2026-08-31 12:13:13 | 50.15926 | 21.64234 | 80° | 18km/h | 18247m | 4.8m/s | 0°C | 0% | 0hPa | 0V | 00:00:00 | 00:00:00 | 00:00:00 | |
| MIELECB | 2026-08-31 12:13:07 | 50.15914 | 21.64182 | 70° | 26km/h | 18219m | 5.4m/s | 0°C | 0% | 0hPa | 0V | 00:00:00 | 00:00:00 | 00:00:00 | |
| SP9KGR-15 | 2026-08-31 12:13:04 | 50.15910 | 21.64154 | 87° | 24km/h | 18204m | 6.3m/s | 0°C | 0% | 0hPa | 0V | 00:00:00 | 00:00:00 | 00:00:00 | |
| AKAW682 | 2026-08-31 12:13:01 | 50.15906 | 21.64125 | 62° | 27km/h | 18189m | 4.1m/s | 0°C | 0% | 0hPa | 0V | 00:00:00 | 00:00:00 | 00:00:00 | |
| MIELECB | 2026-08-31 12:12:57 | 50.15890 | 21.64089 | 62° | 26km/h | 18167m | 6.4m/s | 0°C | 0% | 0hPa | 0V | 00:00:00 | 00:00:00 | 00:00:00 | |
| AKAW68 | 2026-08-31 12:12:50 | 50.15869 | 21.64034 | 55° | 29km/h | 18137m | 4.3m/s | 0°C | 0% | 0hPa | 0V | 00:00:00 | 00:00:00 | 00:00:00 | |
| MIELECB | 2026-08-31 12:12:44 | 50.15853 | 21.63984 | 68° | 27km/h | 18109m | 3.4m/s | 0°C | 0% | 0hPa | 0V | 00:00:00 | 00:00:00 | 00:00:00 | |
| SQ9PSP-11 | 2026-08-31 12:12:41 | 50.15844 | 21.63960 | 52° | 24km/h | 18095m | 5.0m/s | 0°C | 0% | 0hPa | 0V | 00:00:00 | 00:00:00 | 00:00:00 | |
| AKAW682 | 2026-08-31 12:12:40 | 50.15840 | 21.63954 | 50° | 24km/h | 18090m | 6.3m/s | 0°C | 0% | 0hPa | 0V | 00:00:00 | 00:00:00 | 00:00:00 | |
| MIELECB | 2026-08-31 12:12:38 | 50.15831 | 21.63938 | 43° | 24km/h | 18079m | 5.5m/s | 0°C | 0% | 0hPa | 0V | 00:00:00 | 00:00:00 | 00:00:00 | |
| MIELECB | 2026-08-31 12:12:33 | 50.15813 | 21.63906 | 50° | 26km/h | 18053m | 6.0m/s | 0°C | 0% | 0hPa | 0V | 00:00:00 | 00:00:00 | 00:00:00 | |
| AKAW68 | 2026-08-31 12:12:28 | 50.15789 | 21.63872 | 34° | 26km/h | 18028m | 4.3m/s | 0°C | 0% | 0hPa | 0V | 00:00:00 | 00:00:00 | 00:00:00 | |
| SQ9PSP-11 | 2026-08-31 12:12:27 | 50.15779 | 21.63865 | 12° | 20km/h | 18018m | 2.9m/s | 0°C | 0% | 0hPa | 0V | 00:00:00 | 00:00:00 | 00:00:00 | |
| MIELECB | 2026-08-31 12:12:22 | 50.15764 | 21.63845 | 44° | 24km/h | 17998m | 5.4m/s | 0°C | 0% | 0hPa | 0V | 00:00:00 | 00:00:00 | 00:00:00 | |
| SP9KGR-15 | 2026-08-31 12:12:20 | 50.15755 | 21.63835 | 26° | 20km/h | 17987m | 4.6m/s | 0°C | 0% | 0hPa | 0V | 00:00:00 | 00:00:00 | 00:00:00 | |
| MIELECB | 2026-08-31 12:12:16 | 50.15739 | 21.63816 | 34° | 15km/h | 17968m | 6.3m/s | 0°C | 0% | 0hPa | 0V | 00:00:00 | 00:00:00 | 00:00:00 | |
| MIELECB | 2026-08-31 12:12:11 | 50.15725 | 21.63797 | 46° | 22km/h | 17943m | 4.5m/s | 0°C | 0% | 0hPa | 0V | 00:00:00 | 00:00:00 | 00:00:00 | |
| SQ9PSP-11 | 2026-08-31 12:12:10 | 50.15721 | 21.63792 | 27° | 18km/h | 17937m | 6.3m/s | 0°C | 0% | 0hPa | 0V | 00:00:00 | 00:00:00 | 00:00:00 | |
| AKAW68 | 2026-08-31 12:12:06 | 50.15697 | 21.63782 | 21° | 24km/h | 17916m | 3.1m/s | 0°C | 0% | 0hPa | 0V | 00:00:00 | 00:00:00 | 00:00:00 | |
| MIELECB | 2026-08-31 12:12:05 | 50.15692 | 21.63780 | 9° | 20km/h | 17911m | 3.7m/s | 0°C | 0% | 0hPa | 0V | 00:00:00 | 00:00:00 | 00:00:00 | |
| AKAW682 | 2026-08-31 12:12:00 | 50.15669 | 21.63767 | 35° | 26km/h | 17888m | 4.7m/s | 0°C | 0% | 0hPa | 0V | 00:00:00 | 00:00:00 | 00:00:00 | |
| MIELECB | 2026-08-31 12:11:59 | 50.15665 | 21.63762 | 25° | 24km/h | 17883m | 4.0m/s | 0°C | 0% | 0hPa | 0V | 00:00:00 | 00:00:00 | 00:00:00 | |
| SQ9PSP-11 | 2026-08-31 12:11:55 | 50.15647 | 21.63762 | 358° | 26km/h | 17865m | 3.3m/s | 0°C | 0% | 0hPa | 0V | 00:00:00 | 00:00:00 | 00:00:00 | |
| MIELECB | 2026-08-31 12:11:53 | 50.15636 | 21.63757 | 32° | 24km/h | 17859m | 4.2m/s | 0°C | 0% | 0hPa | 0V | 00:00:00 | 00:00:00 | 00:00:00 | |
| SP9KGR-15 | 2026-08-31 12:11:51 | 50.15629 | 21.63745 | 54° | 18km/h | 17849m | 4.4m/s | 0°C | 0% | 0hPa | 0V | 00:00:00 | 00:00:00 | 00:00:00 | |
| MIELECB | 2026-08-31 12:11:48 | 50.15619 | 21.63726 | 50° | 20km/h | 17834m | 4.4m/s | 0°C | 0% | 0hPa | 0V | 00:00:00 | 00:00:00 | 00:00:00 | |
| AKAW68 | 2026-08-31 12:11:44 | 50.15608 | 21.63707 | 34° | 18km/h | 17814m | 3.3m/s | 0°C | 0% | 0hPa | 0V | 00:00:00 | 00:00:00 | 00:00:00 | |
| MIELECB | 2026-08-31 12:11:43 | 50.15602 | 21.63699 | 41° | 16km/h | 17804m | 5.4m/s | 0°C | 0% | 0hPa | 0V | 00:00:00 | 00:00:00 | 00:00:00 | |
| SQ9PSP-11 | 2026-08-31 12:11:40 | 50.15599 | 21.63689 | 69° | 11km/h | 17795m | 5.7m/s | 0°C | 0% | 0hPa | 0V | 00:00:00 | 00:00:00 | 00:00:00 | |
| AKAW682 | 2026-08-31 12:11:39 | 50.15597 | 21.63685 | 58° | 13km/h | 17789m | 4.3m/s | 0°C | 0% | 0hPa | 0V | 00:00:00 | 00:00:00 | 00:00:00 | |
| MIELECB | 2026-08-31 12:11:37 | 50.15595 | 21.63676 | 75° | 11km/h | 17781m | 6.2m/s | 0°C | 0% | 0hPa | 0V | 00:00:00 | 00:00:00 | 00:00:00 | |
| SP9KGR-15 | 2026-08-31 12:11:34 | 50.15587 | 21.63660 | 26° | 24km/h | 17767m | 4.5m/s | 0°C | 0% | 0hPa | 0V | 00:00:00 | 00:00:00 | 00:00:00 | |
| MIELECB | 2026-08-31 12:11:31 | 50.15576 | 21.63642 | 80° | 20km/h | 17755m | 5.1m/s | 0°C | 0% | 0hPa | 0V | 00:00:00 | 00:00:00 | 00:00:00 | |
| MIELECB | 2026-08-31 12:11:26 | 50.15578 | 21.63617 | 73° | 16km/h | 17732m | 6.7m/s | 0°C | 0% | 0hPa | 0V | 00:00:00 | 00:00:00 | 00:00:00 | |
| AKAW68 | 2026-08-31 12:11:24 | 50.15575 | 21.63602 | 75° | 24km/h | 17721m | 5.8m/s | 0°C | 0% | 0hPa | 0V | 00:00:00 | 00:00:00 | 00:00:00 | |
| MIELECB | 2026-08-31 12:11:20 | 50.15565 | 21.63566 | 74° | 29km/h | 17699m | 4.2m/s | 0°C | 0% | 0hPa | 0V | 00:00:00 | 00:00:00 | 00:00:00 | |
| AKAW682 | 2026-08-31 12:11:19 | 50.15563 | 21.63555 | 75° | 27km/h | 17695m | 3.9m/s | 0°C | 0% | 0hPa | 0V | 00:00:00 | 00:00:00 | 00:00:00 | |
| MIELECB | 2026-08-31 12:11:15 | 50.15560 | 21.63518 | 88° | 29km/h | 17675m | 5.5m/s | 0°C | 0% | 0hPa | 0V | 00:00:00 | 00:00:00 | 00:00:00 | |
| MIELECB | 2026-08-31 12:11:10 | 50.15556 | 21.63465 | 75° | 24km/h | 17650m | 5.9m/s | 0°C | 0% | 0hPa | 0V | 00:00:00 | 00:00:00 | 00:00:00 | |
| SQ9PSP-11 | 2026-08-31 12:11:08 | 50.15553 | 21.63444 | 81° | 29km/h | 17640m | 3.9m/s | 0°C | 0% | 0hPa | 0V | 00:00:00 | 00:00:00 | 00:00:00 | |
| MIELECB | 2026-08-31 12:11:04 | 50.15548 | 21.63399 | 77° | 33km/h | 17620m | 4.6m/s | 0°C | 0% | 0hPa | 0V | 00:00:00 | 00:00:00 | 00:00:00 | |
| AKAW68 | 2026-08-31 12:11:03 | 50.15546 | 21.63387 | 77° | 33km/h | 17616m | 3.3m/s | 0°C | 0% | 0hPa | 0V | 00:00:00 | 00:00:00 | 00:00:00 | |
| MIELECB | 2026-08-31 12:10:59 | 50.15539 | 21.63346 | 73° | 29km/h | 17598m | 5.4m/s | 0°C | 0% | 0hPa | 0V | 00:00:00 | 00:00:00 | 00:00:00 | |
| AKAW682 | 2026-08-31 12:10:58 | 50.15536 | 21.63335 | 73° | 31km/h | 17593m | 5.3m/s | 0°C | 0% | 0hPa | 0V | 00:00:00 | 00:00:00 | 00:00:00 | |
| MIELECB | 2026-08-31 12:10:54 | 50.15530 | 21.63284 | 84° | 40km/h | 17574m | 6.2m/s | 0°C | 0% | 0hPa | 0V | 00:00:00 | 00:00:00 | 00:00:00 | |
| SQ9PSP-11 | 2026-08-31 12:10:52 | 50.15528 | 21.63253 | 95° | 35km/h | 17564m | 5.1m/s | 0°C | 0% | 0hPa | 0V | 00:00:00 | 00:00:00 | 00:00:00 | |
| MIELECB | 2026-08-31 12:10:48 | 50.15523 | 21.63208 | 55° | 29km/h | 17545m | 5.1m/s | 0°C | 0% | 0hPa | 0V | 00:00:00 | 00:00:00 | 00:00:00 | |
| AKAW68 | 2026-08-31 12:10:43 | 50.15510 | 21.63148 | 80° | 44km/h | 17521m | 4.4m/s | 0°C | 0% | 0hPa | 0V | 00:00:00 | 00:00:00 | 00:00:00 | |
| MIELECB | 2026-08-31 12:10:42 | 50.15508 | 21.63132 | 78° | 38km/h | 17516m | 4.9m/s | 0°C | 0% | 0hPa | 0V | 00:00:00 | 00:00:00 | 00:00:00 | |
| MIELECB | 2026-08-31 12:10:37 | 50.15496 | 21.63074 | 73° | 27km/h | 17489m | 5.8m/s | 0°C | 0% | 0hPa | 0V | 00:00:00 | 00:00:00 | 00:00:00 | |
| SP9KGR-15 | 2026-08-31 12:10:35 | 50.15491 | 21.63051 | 69° | 33km/h | 17480m | 4.7m/s | 0°C | 0% | 0hPa | 0V | 00:00:00 | 00:00:00 | 00:00:00 | |
| MIELECB | 2026-08-31 12:10:31 | 50.15479 | 21.63003 | 70° | 26km/h | 17462m | 3.9m/s | 0°C | 0% | 0hPa | 0V | 00:00:00 | 00:00:00 | 00:00:00 | |
| MIELECB | 2026-08-31 12:10:26 | 50.15466 | 21.62954 | 77° | 33km/h | 17438m | 4.7m/s | 0°C | 0% | 0hPa | 0V | 00:00:00 | 00:00:00 | 00:00:00 | |
| AKAW68 | 2026-08-31 12:10:21 | 50.15456 | 21.62895 | 73° | 20km/h | 17414m | 3.9m/s | 0°C | 0% | 0hPa | 0V | 00:00:00 | 00:00:00 | 00:00:00 | |
| SP9KGR-15 | 2026-08-31 12:10:19 | 50.15450 | 21.62879 | 64° | 26km/h | 17404m | 5.7m/s | 0°C | 0% | 0hPa | 0V | 00:00:00 | 00:00:00 | 00:00:00 | |
| SQ9EZE-15 | 2026-08-31 12:10:18 | 50.15447 | 21.62869 | 62° | 33km/h | 17399m | 5.7m/s | 0°C | 0% | 0hPa | 0V | 00:00:00 | 00:00:00 | 00:00:00 | |
| MIELECB | 2026-08-31 12:10:16 | 50.15440 | 21.62846 | 70° | 31km/h | 17389m | 6.3m/s | 0°C | 0% | 0hPa | 0V | 00:00:00 | 00:00:00 | 00:00:00 | |
| MIELECB | 2026-08-31 12:10:10 | 50.15421 | 21.62785 | 54° | 26km/h | 17358m | 3.7m/s | 0°C | 0% | 0hPa | 0V | 00:00:00 | 00:00:00 | 00:00:00 | |
| SQ9PSP-11 | 2026-08-31 12:10:06 | 50.15401 | 21.62743 | 50° | 33km/h | 17338m | 4.8m/s | 0°C | 0% | 0hPa | 0V | 00:00:00 | 00:00:00 | 00:00:00 | |
| MIELECB | 2026-08-31 12:10:05 | 50.15396 | 21.62734 | 47° | 29km/h | 17334m | 3.6m/s | 0°C | 0% | 0hPa | 0V | 00:00:00 | 00:00:00 | 00:00:00 | |
| SP9KGR-15 | 2026-08-31 12:10:03 | 50.15386 | 21.62716 | 46° | 31km/h | 17325m | 3.4m/s | 0°C | 0% | 0hPa | 0V | 00:00:00 | 00:00:00 | 00:00:00 | |
| AKAW68 | 2026-08-31 12:10:00 | 50.15377 | 21.62687 | 83° | 27km/h | 17311m | 4.3m/s | 0°C | 0% | 0hPa | 0V | 00:00:00 | 00:00:00 | 00:00:00 | |
| SQ9EZE-15 | 2026-08-31 12:09:57 | 50.15368 | 21.62651 | 65° | 35km/h | 17296m | 5.2m/s | 0°C | 0% | 0hPa | 0V | 00:00:00 | 00:00:00 | 00:00:00 | |
| AKAW682 | 2026-08-31 12:09:55 | 50.15360 | 21.62628 | 52° | 33km/h | 17285m | 4.7m/s | 0°C | 0% | 0hPa | 0V | 00:00:00 | 00:00:00 | 00:00:00 | |
| MIELECB | 2026-08-31 12:09:54 | 50.15355 | 21.62617 | 52° | 33km/h | 17279m | 4.8m/s | 0°C | 0% | 0hPa | 0V | 00:00:00 | 00:00:00 | 00:00:00 | |
| SQ9PSP-11 | 2026-08-31 12:09:50 | 50.15335 | 21.62581 | 66° | 26km/h | 17259m | 4.4m/s | 0°C | 0% | 0hPa | 0V | 00:00:00 | 00:00:00 | 00:00:00 | |
| MIELECB | 2026-08-31 12:09:48 | 50.15330 | 21.62562 | 69° | 31km/h | 17248m | 6.4m/s | 0°C | 0% | 0hPa | 0V | 00:00:00 | 00:00:00 | 00:00:00 | |
| SP9KGR-15 | 2026-08-31 12:09:47 | 50.15327 | 21.62550 | 68° | 35km/h | 17243m | 4.6m/s | 0°C | 0% | 0hPa | 0V | 00:00:00 | 00:00:00 | 00:00:00 | |
| MIELECB | 2026-08-31 12:09:42 | 50.15305 | 21.62497 | 35° | 29km/h | 17223m | 4.6m/s | 0°C | 0% | 0hPa | 0V | 00:00:00 | 00:00:00 | 00:00:00 | |
| MIELECB | 2026-08-31 12:09:37 | 50.15290 | 21.62464 | 77° | 26km/h | 17200m | 6.4m/s | 0°C | 0% | 0hPa | 0V | 00:00:00 | 00:00:00 | 00:00:00 | |
| SQ9PSP-11 | 2026-08-31 12:09:36 | 50.15285 | 21.62442 | 65° | 29km/h | 17192m | 4.3m/s | 0°C | 0% | 0hPa | 0V | 00:00:00 | 00:00:00 | 00:00:00 | |
| SQ9EZE-15 | 2026-08-31 12:09:33 | 50.15277 | 21.62423 | 45° | 27km/h | 17184m | 3.9m/s | 0°C | 0% | 0hPa | 0V | 00:00:00 | 00:00:00 | 00:00:00 | |
| MIELECB | 2026-08-31 12:09:32 | 50.15273 | 21.62416 | 48° | 27km/h | 17180m | 3.7m/s | 0°C | 0% | 0hPa | 0V | 00:00:00 | 00:00:00 | 00:00:00 | |
| MIELECB | 2026-08-31 12:09:26 | 50.15262 | 21.62364 | 74° | 26km/h | 17154m | 4.5m/s | 0°C | 0% | 0hPa | 0V | 00:00:00 | 00:00:00 | 00:00:00 | |
| MIELECB | 2026-08-31 12:09:21 | 50.15238 | 21.62329 | 49° | 26km/h | 17133m | 4.3m/s | 0°C | 0% | 0hPa | 0V | 00:00:00 | 00:00:00 | 00:00:00 | |
| SQ9PSP-11 | 2026-08-31 12:09:19 | 50.15232 | 21.62314 | 59° | 16km/h | 17125m | 4.4m/s | 0°C | 0% | 0hPa | 0V | 00:00:00 | 00:00:00 | 00:00:00 | |
| MIELECB | 2026-08-31 12:09:16 | 50.15225 | 21.62301 | 74° | 16km/h | 17111m | 5.4m/s | 0°C | 0% | 0hPa | 0V | 00:00:00 | 00:00:00 | 00:00:00 | |
| AKAW68 | 2026-08-31 12:09:15 | 50.15224 | 21.62293 | 77° | 24km/h | 17106m | 5.1m/s | 0°C | 0% | 0hPa | 0V | 00:00:00 | 00:00:00 | 00:00:00 | |
| AKAW682 | 2026-08-31 12:09:14 | 50.15223 | 21.62284 | 80° | 26km/h | 17101m | 5.8m/s | 0°C | 0% | 0hPa | 0V | 00:00:00 | 00:00:00 | 00:00:00 | |
| MIELECB | 2026-08-31 12:09:10 | 50.15212 | 21.62243 | 58° | 31km/h | 17080m | 5.2m/s | 0°C | 0% | 0hPa | 0V | 00:00:00 | 00:00:00 | 00:00:00 | |
| SQ9PSP-11 | 2026-08-31 12:09:05 | 50.15187 | 21.62188 | 64° | 31km/h | 17054m | 4.5m/s | 0°C | 0% | 0hPa | 0V | 00:00:00 | 00:00:00 | 00:00:00 | |
| SP9KGR-15 | 2026-08-31 12:08:59 | 50.15170 | 21.62141 | 63° | 29km/h | 17031m | 3.9m/s | 0°C | 0% | 0hPa | 0V | 00:00:00 | 00:00:00 | 00:00:00 | |
| MIELECB | 2026-08-31 12:08:58 | 50.15167 | 21.62131 | 62° | 29km/h | 17027m | 5.7m/s | 0°C | 0% | 0hPa | 0V | 00:00:00 | 00:00:00 | 00:00:00 | |
| AKAW682 | 2026-08-31 12:08:54 | 50.15152 | 21.62093 | 51° | 27km/h | 17006m | 4.5m/s | 0°C | 0% | 0hPa | 0V | 00:00:00 | 00:00:00 | 00:00:00 | |
| MIELECB | 2026-08-31 12:08:53 | 50.15149 | 21.62085 | 57° | 20km/h | 17001m | 6.1m/s | 0°C | 0% | 0hPa | 0V | 00:00:00 | 00:00:00 | 00:00:00 | |
| SQ9PSP-11 | 2026-08-31 12:08:49 | 50.15134 | 21.62049 | 62° | 35km/h | 16984m | 4.0m/s | 0°C | 0% | 0hPa | 0V | 00:00:00 | 00:00:00 | 00:00:00 | |
| MIELECB | 2026-08-31 12:08:47 | 50.15126 | 21.62028 | 62° | 27km/h | 16975m | 5.3m/s | 0°C | 0% | 0hPa | 0V | 00:00:00 | 00:00:00 | 00:00:00 | |
| SP9KGR-15 | 2026-08-31 12:08:43 | 50.15116 | 21.61994 | 69° | 26km/h | 16956m | 4.6m/s | 0°C | 0% | 0hPa | 0V | 00:00:00 | 00:00:00 | 00:00:00 | |
| MIELECB | 2026-08-31 12:08:42 | 50.15114 | 21.61985 | 67° | 27km/h | 16951m | 5.6m/s | 0°C | 0% | 0hPa | 0V | 00:00:00 | 00:00:00 | 00:00:00 | |
| MIELECB | 2026-08-31 12:08:36 | 50.15095 | 21.61927 | 71° | 24km/h | 16922m | 5.9m/s | 0°C | 0% | 0hPa | 0V | 00:00:00 | 00:00:00 | 00:00:00 | |
| AKAW68 | 2026-08-31 12:08:34 | 50.15092 | 21.61907 | 81° | 26km/h | 16911m | 5.3m/s | 0°C | 0% | 0hPa | 0V | 00:00:00 | 00:00:00 | 00:00:00 | |
| SQ9PSP-11 | 2026-08-31 12:08:33 | 50.15092 | 21.61895 | 92° | 31km/h | 16907m | 3.3m/s | 0°C | 0% | 0hPa | 0V | 00:00:00 | 00:00:00 | 00:00:00 | |
| MIELECB | 2026-08-31 12:08:31 | 50.15091 | 21.61873 | 89° | 26km/h | 16897m | 5.1m/s | 0°C | 0% | 0hPa | 0V | 00:00:00 | 00:00:00 | 00:00:00 | |
| SP9KGR-15 | 2026-08-31 12:08:27 | 50.15082 | 21.61824 | 71° | 33km/h | 16879m | 5.6m/s | 0°C | 0% | 0hPa | 0V | 00:00:00 | 00:00:00 | 00:00:00 | |
| MIELECB | 2026-08-31 12:08:25 | 50.15077 | 21.61801 | 79° | 26km/h | 16869m | 4.7m/s | 0°C | 0% | 0hPa | 0V | 00:00:00 | 00:00:00 | 00:00:00 | |
| MIELECB | 2026-08-31 12:08:19 | 50.15074 | 21.61712 | 84° | 38km/h | 16841m | 5.1m/s | 0°C | 0% | 0hPa | 0V | 00:00:00 | 00:00:00 | 00:00:00 | |
| SQ9PSP-11 | 2026-08-31 12:08:18 | 50.15072 | 21.61697 | 75° | 40km/h | 16836m | 5.1m/s | 0°C | 0% | 0hPa | 0V | 00:00:00 | 00:00:00 | 00:00:00 | |
| MIELECB | 2026-08-31 12:08:14 | 50.15056 | 21.61643 | 69° | 37km/h | 16817m | 5.1m/s | 0°C | 0% | 0hPa | 0V | 00:00:00 | 00:00:00 | 00:00:00 | |
| AKAW68 | 2026-08-31 12:08:13 | 50.15053 | 21.61629 | 75° | 44km/h | 16812m | 5.7m/s | 0°C | 0% | 0hPa | 0V | 00:00:00 | 00:00:00 | 00:00:00 | |
| SP9KGR-15 | 2026-08-31 12:08:10 | 50.15046 | 21.61580 | 75° | 38km/h | 16801m | 2.4m/s | 0°C | 0% | 0hPa | 0V | 00:00:00 | 00:00:00 | 00:00:00 | |
| MIELECB | 2026-08-31 12:08:08 | 50.15040 | 21.61550 | 77° | 46km/h | 16793m | 5.7m/s | 0°C | 0% | 0hPa | 0V | 00:00:00 | 00:00:00 | 00:00:00 | |
| MIELECB | 2026-08-31 12:08:03 | 50.15025 | 21.61475 | 73° | 40km/h | 16770m | 6.3m/s | 0°C | 0% | 0hPa | 0V | 00:00:00 | 00:00:00 | 00:00:00 | |
| MIELECB | 2026-08-31 12:07:57 | 50.15004 | 21.61384 | 69° | 40km/h | 16741m | 3.6m/s | 0°C | 0% | 0hPa | 0V | 00:00:00 | 00:00:00 | 00:00:00 | |
| SP9KGR-15 | 2026-08-31 12:07:53 | 50.14990 | 21.61334 | 81° | 37km/h | 16722m | 5.4m/s | 0°C | 0% | 0hPa | 0V | 00:00:00 | 00:00:00 | 00:00:00 | |
| MIELECB | 2026-08-31 12:07:52 | 50.14988 | 21.61319 | 80° | 40km/h | 16717m | 4.6m/s | 0°C | 0% | 0hPa | 0V | 00:00:00 | 00:00:00 | 00:00:00 | |
| SQ9PSP-11 | 2026-08-31 12:07:47 | 50.14974 | 21.61245 | 70° | 37km/h | 16695m | 3.9m/s | 0°C | 0% | 0hPa | 0V | 00:00:00 | 00:00:00 | 00:00:00 | |
| MIELECB | 2026-08-31 12:07:46 | 50.14970 | 21.61232 | 67° | 37km/h | 16691m | 5.2m/s | 0°C | 0% | 0hPa | 0V | 00:00:00 | 00:00:00 | 00:00:00 | |
| MIELECB | 2026-08-31 12:07:41 | 50.14952 | 21.61169 | 72° | 37km/h | 16667m | 7.6m/s | 0°C | 0% | 0hPa | 0V | 00:00:00 | 00:00:00 | 00:00:00 | |
| SP9KGR-15 | 2026-08-31 12:07:37 | 50.14942 | 21.61114 | 76° | 33km/h | 16647m | 5.2m/s | 0°C | 0% | 0hPa | 0V | 00:00:00 | 00:00:00 | 00:00:00 | |
| MIELECB | 2026-08-31 12:07:35 | 50.14935 | 21.61092 | 55° | 31km/h | 16636m | 4.8m/s | 0°C | 0% | 0hPa | 0V | 00:00:00 | 00:00:00 | 00:00:00 | |
| AKAW682 | 2026-08-31 12:07:33 | 50.14927 | 21.61074 | 52° | 26km/h | 16627m | 4.6m/s | 0°C | 0% | 0hPa | 0V | 00:00:00 | 00:00:00 | 00:00:00 | |
| AKAW68 | 2026-08-31 12:07:32 | 50.14923 | 21.61065 | 71° | 29km/h | 16622m | 4.4m/s | 0°C | 0% | 0hPa | 0V | 00:00:00 | 00:00:00 | 00:00:00 | |
| SQ9PSP-11 | 2026-08-31 12:07:31 | 50.14921 | 21.61054 | 74° | 33km/h | 16618m | 3.9m/s | 0°C | 0% | 0hPa | 0V | 00:00:00 | 00:00:00 | 00:00:00 | |
| MIELECB | 2026-08-31 12:07:30 | 50.14918 | 21.61043 | 62° | 29km/h | 16614m | 5.4m/s | 0°C | 0% | 0hPa | 0V | 00:00:00 | 00:00:00 | 00:00:00 | |
| MIELECB | 2026-08-31 12:07:24 | 50.14891 | 21.60983 | 44° | 29km/h | 16586m | 4.1m/s | 0°C | 0% | 0hPa | 0V | 00:00:00 | 00:00:00 | 00:00:00 | |
| SP9KGR-15 | 2026-08-31 12:07:20 | 50.14873 | 21.60948 | 60° | 29km/h | 16568m | 6.7m/s | 0°C | 0% | 0hPa | 0V | 00:00:00 | 00:00:00 | 00:00:00 | |
| MIELECB | 2026-08-31 12:07:19 | 50.14870 | 21.60939 | 57° | 24km/h | 16563m | 5.0m/s | 0°C | 0% | 0hPa | 0V | 00:00:00 | 00:00:00 | 00:00:00 | |
| SQ9PSP-11 | 2026-08-31 12:07:16 | 50.14860 | 21.60912 | 53° | 27km/h | 16547m | 4.4m/s | 0°C | 0% | 0hPa | 0V | 00:00:00 | 00:00:00 | 00:00:00 | |
| MIELECB | 2026-08-31 12:07:13 | 50.14847 | 21.60893 | 51° | 24km/h | 16535m | 5.3m/s | 0°C | 0% | 0hPa | 0V | 00:00:00 | 00:00:00 | 00:00:00 | |
| AKAW68 | 2026-08-31 12:07:12 | 50.14844 | 21.60885 | 58° | 24km/h | 16530m | 5.1m/s | 0°C | 0% | 0hPa | 0V | 00:00:00 | 00:00:00 | 00:00:00 | |
| MIELECB | 2026-08-31 12:07:08 | 50.14832 | 21.60854 | 51° | 20km/h | 16511m | 4.2m/s | 0°C | 0% | 0hPa | 0V | 00:00:00 | 00:00:00 | 00:00:00 | |
| SP9KGR-15 | 2026-08-31 12:07:05 | 50.14820 | 21.60832 | 42° | 31km/h | 16495m | 4.6m/s | 0°C | 0% | 0hPa | 0V | 00:00:00 | 00:00:00 | 00:00:00 | |
| MIELECB | 2026-08-31 12:07:02 | 50.14808 | 21.60807 | 74° | 27km/h | 16483m | 5.8m/s | 0°C | 0% | 0hPa | 0V | 00:00:00 | 00:00:00 | 00:00:00 | |
| SQ9PSP-11 | 2026-08-31 12:07:00 | 50.14803 | 21.60785 | 61° | 33km/h | 16472m | 5.8m/s | 0°C | 0% | 0hPa | 0V | 00:00:00 | 00:00:00 | 00:00:00 | |
| MIELECB | 2026-08-31 12:06:56 | 50.14786 | 21.60744 | 54° | 37km/h | 16453m | 6.2m/s | 0°C | 0% | 0hPa | 0V | 00:00:00 | 00:00:00 | 00:00:00 | |
| AKAW68 | 2026-08-31 12:06:51 | 50.14767 | 21.60692 | 66° | 27km/h | 16428m | 2.2m/s | 0°C | 0% | 0hPa | 0V | 00:00:00 | 00:00:00 | 00:00:00 | |
| SP9KGR-15 | 2026-08-31 12:06:50 | 50.14765 | 21.60683 | 68° | 26km/h | 16425m | 4.9m/s | 0°C | 0% | 0hPa | 0V | 00:00:00 | 00:00:00 | 00:00:00 | |
| MIELECB | 2026-08-31 12:06:45 | 50.14745 | 21.60623 | 61° | 38km/h | 16400m | 5.9m/s | 0°C | 0% | 0hPa | 0V | 00:00:00 | 00:00:00 | 00:00:00 | |
| MIELECB | 2026-08-31 12:06:39 | 50.14724 | 21.60553 | 64° | 27km/h | 16371m | 4.2m/s | 0°C | 0% | 0hPa | 0V | 00:00:00 | 00:00:00 | 00:00:00 | |
| SP9KGR-15 | 2026-08-31 12:06:35 | 50.14709 | 21.60508 | 55° | 33km/h | 16353m | 5.2m/s | 0°C | 0% | 0hPa | 0V | 00:00:00 | 00:00:00 | 00:00:00 | |
| MIELECB | 2026-08-31 12:06:34 | 50.14704 | 21.60497 | 59° | 33km/h | 16348m | 4.2m/s | 0°C | 0% | 0hPa | 0V | 00:00:00 | 00:00:00 | 00:00:00 | |
| AKAW68 | 2026-08-31 12:06:30 | 50.14693 | 21.60447 | 79° | 31km/h | 16328m | 5.4m/s | 0°C | 0% | 0hPa | 0V | 00:00:00 | 00:00:00 | 00:00:00 | |
| AKAW682 | 2026-08-31 12:06:29 | 50.14691 | 21.60435 | 71° | 31km/h | 16324m | 5.1m/s | 0°C | 0% | 0hPa | 0V | 00:00:00 | 00:00:00 | 00:00:00 | |
| MIELECB | 2026-08-31 12:06:28 | 50.14688 | 21.60423 | 71° | 31km/h | 16319m | 3.9m/s | 0°C | 0% | 0hPa | 0V | 00:00:00 | 00:00:00 | 00:00:00 | |
| MIELECB | 2026-08-31 12:06:23 | 50.14673 | 21.60364 | 66° | 26km/h | 16296m | 3.8m/s | 0°C | 0% | 0hPa | 0V | 00:00:00 | 00:00:00 | 00:00:00 | |
| MIELECB | 2026-08-31 12:06:18 | 50.14668 | 21.60308 | 78° | 35km/h | 16274m | 4.9m/s | 0°C | 0% | 0hPa | 0V | 00:00:00 | 00:00:00 | 00:00:00 | |
| SQ9PSP-11 | 2026-08-31 12:06:14 | 50.14662 | 21.60246 | 77° | 35km/h | 16253m | 3.3m/s | 0°C | 0% | 0hPa | 0V | 00:00:00 | 00:00:00 | 00:00:00 | |
| MIELECB | 2026-08-31 12:06:12 | 50.14659 | 21.60218 | 83° | 38km/h | 16246m | 5.1m/s | 0°C | 0% | 0hPa | 0V | 00:00:00 | 00:00:00 | 00:00:00 | |
| AKAW68 | 2026-08-31 12:06:09 | 50.14655 | 21.60173 | 78° | 38km/h | 16232m | 3.9m/s | 0°C | 0% | 0hPa | 0V | 00:00:00 | 00:00:00 | 00:00:00 | |
| MIELECB | 2026-08-31 12:06:06 | 50.14651 | 21.60122 | 89° | 47km/h | 16217m | 4.5m/s | 0°C | 0% | 0hPa | 0V | 00:00:00 | 00:00:00 | 00:00:00 | |
| SP9KGR-15 | 2026-08-31 12:06:03 | 50.14646 | 21.60070 | 77° | 46km/h | 16203m | 5.2m/s | 0°C | 0% | 0hPa | 0V | 00:00:00 | 00:00:00 | 00:00:00 | |
| MIELECB | 2026-08-31 12:06:01 | 50.14639 | 21.60036 | 70° | 46km/h | 16193m | 4.1m/s | 0°C | 0% | 0hPa | 0V | 00:00:00 | 00:00:00 | 00:00:00 | |
| SQ9PSP-11 | 2026-08-31 12:05:59 | 50.14631 | 21.60006 | 67° | 40km/h | 16183m | 3.8m/s | 0°C | 0% | 0hPa | 0V | 00:00:00 | 00:00:00 | 00:00:00 | |
| MIELECB | 2026-08-31 12:05:55 | 50.14621 | 21.59936 | 80° | 47km/h | 16169m | 5.7m/s | 0°C | 0% | 0hPa | 0V | 00:00:00 | 00:00:00 | 00:00:00 | |
| MIELECB | 2026-08-31 12:05:50 | 50.14606 | 21.59860 | 71° | 37km/h | 16145m | 6.1m/s | 0°C | 0% | 0hPa | 0V | 00:00:00 | 00:00:00 | 00:00:00 | |
| AKAW68 | 2026-08-31 12:05:49 | 50.14603 | 21.59847 | 70° | 37km/h | 16139m | 4.8m/s | 0°C | 0% | 0hPa | 0V | 00:00:00 | 00:00:00 | 00:00:00 | |
| AKAW682 | 2026-08-31 12:05:48 | 50.14599 | 21.59833 | 67° | 38km/h | 16135m | 3.8m/s | 0°C | 0% | 0hPa | 0V | 00:00:00 | 00:00:00 | 00:00:00 | |
| SP9KGR-15 | 2026-08-31 12:05:47 | 50.14596 | 21.59818 | 77° | 44km/h | 16131m | 5.7m/s | 0°C | 0% | 0hPa | 0V | 00:00:00 | 00:00:00 | 00:00:00 | |
| MIELECB | 2026-08-31 12:05:44 | 50.14590 | 21.59769 | 84° | 35km/h | 16118m | 5.4m/s | 0°C | 0% | 0hPa | 0V | 00:00:00 | 00:00:00 | 00:00:00 | |
| SQ9PSP-11 | 2026-08-31 12:05:43 | 50.14589 | 21.59756 | 82° | 33km/h | 16114m | 3.3m/s | 0°C | 0% | 0hPa | 0V | 00:00:00 | 00:00:00 | 00:00:00 | |
| MIELECB | 2026-08-31 12:05:39 | 50.14583 | 21.59698 | 75° | 40km/h | 16095m | 4.1m/s | 0°C | 0% | 0hPa | 0V | 00:00:00 | 00:00:00 | 00:00:00 | |
| MIELECB | 2026-08-31 12:05:33 | 50.14584 | 21.59591 | 94° | 46km/h | 16067m | 2.5m/s | 0°C | 0% | 0hPa | 0V | 00:00:00 | 00:00:00 | 00:00:00 | |
| SP9KGR-15 | 2026-08-31 12:05:31 | 50.14586 | 21.59555 | 96° | 47km/h | 16060m | 4.9m/s | 0°C | 0% | 0hPa | 0V | 00:00:00 | 00:00:00 | 00:00:00 | |
| AKAW68 | 2026-08-31 12:05:29 | 50.14588 | 21.59516 | 94° | 49km/h | 16051m | 5.5m/s | 0°C | 0% | 0hPa | 0V | 00:00:00 | 00:00:00 | 00:00:00 | |
| SQ9PSP-11 | 2026-08-31 12:05:28 | 50.14588 | 21.59498 | 97° | 46km/h | 16046m | 3.9m/s | 0°C | 0% | 0hPa | 0V | 00:00:00 | 00:00:00 | 00:00:00 | |
| MIELECB | 2026-08-31 12:05:27 | 50.14589 | 21.59480 | 95° | 44km/h | 16042m | 4.6m/s | 0°C | 0% | 0hPa | 0V | 00:00:00 | 00:00:00 | 00:00:00 | |
| MIELECB | 2026-08-31 12:05:21 | 50.14580 | 21.59369 | 80° | 51km/h | 16015m | 5.2m/s | 0°C | 0% | 0hPa | 0V | 00:00:00 | 00:00:00 | 00:00:00 | |
| MIELECB | 2026-08-31 12:05:16 | 50.14573 | 21.59274 | 89° | 53km/h | 15992m | 4.7m/s | 0°C | 0% | 0hPa | 0V | 00:00:00 | 00:00:00 | 00:00:00 | |
| SP9KGR-15 | 2026-08-31 12:05:13 | 50.14569 | 21.59217 | 78° | 47km/h | 15976m | 5.6m/s | 0°C | 0% | 0hPa | 0V | 00:00:00 | 00:00:00 | 00:00:00 | |
| SQ9PSP-11 | 2026-08-31 12:05:12 | 50.14565 | 21.59197 | 70° | 57km/h | 15971m | 6.5m/s | 0°C | 0% | 0hPa | 0V | 00:00:00 | 00:00:00 | 00:00:00 | |
| AKAW68 | 2026-08-31 12:05:07 | 50.14542 | 21.59093 | 81° | 55km/h | 15949m | 5.4m/s | 0°C | 0% | 0hPa | 0V | 00:00:00 | 00:00:00 | 00:00:00 | |
| MIELECB | 2026-08-31 12:05:04 | 50.14534 | 21.59031 | 74° | 53km/h | 15934m | 4.1m/s | 0°C | 0% | 0hPa | 0V | 00:00:00 | 00:00:00 | 00:00:00 | |
| MIELECB | 2026-08-31 12:04:58 | 50.14505 | 21.58901 | 67° | 62km/h | 15909m | 3.4m/s | 0°C | 0% | 0hPa | 0V | 00:00:00 | 00:00:00 | 00:00:00 | |
| SP9KGR-15 | 2026-08-31 12:04:57 | 50.14499 | 21.58879 | 69° | 58km/h | 15904m | 5.7m/s | 0°C | 0% | 0hPa | 0V | 00:00:00 | 00:00:00 | 00:00:00 | |
| MIELECB | 2026-08-31 12:04:53 | 50.14477 | 21.58792 | 66° | 57km/h | 15885m | 2.5m/s | 0°C | 0% | 0hPa | 0V | 00:00:00 | 00:00:00 | 00:00:00 | |
| MIELECB | 2026-08-31 12:04:47 | 50.14433 | 21.58661 | 66° | 62km/h | 15859m | 5.3m/s | 0°C | 0% | 0hPa | 0V | 00:00:00 | 00:00:00 | 00:00:00 | |
| AKAW68 | 2026-08-31 12:04:46 | 50.14427 | 21.58640 | 69° | 57km/h | 15855m | 3.6m/s | 0°C | 0% | 0hPa | 0V | 00:00:00 | 00:00:00 | 00:00:00 | |
| SQ9PSP-11 | 2026-08-31 12:04:42 | 50.14405 | 21.58562 | 62° | 58km/h | 15836m | 6.2m/s | 0°C | 0% | 0hPa | 0V | 00:00:00 | 00:00:00 | 00:00:00 | |
| MIELECB | 2026-08-31 12:04:41 | 50.14397 | 21.58541 | 61° | 64km/h | 15831m | 4.1m/s | 0°C | 0% | 0hPa | 0V | 00:00:00 | 00:00:00 | 00:00:00 | |
| SP9KGR-15 | 2026-08-31 12:04:40 | 50.14389 | 21.58520 | 60° | 60km/h | 15827m | 5.2m/s | 0°C | 0% | 0hPa | 0V | 00:00:00 | 00:00:00 | 00:00:00 | |
| MIELECB | 2026-08-31 12:04:36 | 50.14361 | 21.58446 | 63° | 55km/h | 15808m | 4.1m/s | 0°C | 0% | 0hPa | 0V | 00:00:00 | 00:00:00 | 00:00:00 | |
| MIELECB | 2026-08-31 12:04:30 | 50.14317 | 21.58338 | 60° | 53km/h | 15782m | 4.8m/s | 0°C | 0% | 0hPa | 0V | 00:00:00 | 00:00:00 | 00:00:00 | |
| SQ9PSP-11 | 2026-08-31 12:04:26 | 50.14293 | 21.58274 | 64° | 47km/h | 15765m | 3.7m/s | 0°C | 0% | 0hPa | 0V | 00:00:00 | 00:00:00 | 00:00:00 | |
| MIELECB | 2026-08-31 12:04:25 | 50.14287 | 21.58258 | 58° | 51km/h | 15762m | 4.8m/s | 0°C | 0% | 0hPa | 0V | 00:00:00 | 00:00:00 | 00:00:00 | |
| MIELECB | 2026-08-31 12:04:19 | 50.14239 | 21.58167 | 53° | 51km/h | 15732m | 6.1m/s | 0°C | 0% | 0hPa | 0V | 00:00:00 | 00:00:00 | 00:00:00 | |
| SQ9PSP-11 | 2026-08-31 12:04:11 | 50.14171 | 21.58052 | 48° | 44km/h | 15696m | 4.3m/s | 0°C | 0% | 0hPa | 0V | 00:00:00 | 00:00:00 | 00:00:00 | |
| MIELECB | 2026-08-31 12:04:09 | 50.14156 | 21.58026 | 45° | 44km/h | 15687m | 5.9m/s | 0°C | 0% | 0hPa | 0V | 00:00:00 | 00:00:00 | 00:00:00 | |
| AKAW68 | 2026-08-31 12:04:04 | 50.14119 | 21.57960 | 56° | 46km/h | 15666m | 4.9m/s | 0°C | 0% | 0hPa | 0V | 00:00:00 | 00:00:00 | 00:00:00 | |
| MIELECB | 2026-08-31 12:04:03 | 50.14112 | 21.57947 | 51° | 42km/h | 15661m | 4.9m/s | 0°C | 0% | 0hPa | 0V | 00:00:00 | 00:00:00 | 00:00:00 | |
| MIELECB | 2026-08-31 12:03:58 | 50.14079 | 21.57890 | 45° | 44km/h | 15638m | 6.2m/s | 0°C | 0% | 0hPa | 0V | 00:00:00 | 00:00:00 | 00:00:00 | |
| SQ9PSP-11 | 2026-08-31 12:03:56 | 50.14064 | 21.57866 | 49° | 44km/h | 15629m | 6.1m/s | 0°C | 0% | 0hPa | 0V | 00:00:00 | 00:00:00 | 00:00:00 | |
| SP9KGR-15 | 2026-08-31 12:03:53 | 50.14046 | 21.57830 | 47° | 35km/h | 15615m | 4.1m/s | 0°C | 0% | 0hPa | 0V | 00:00:00 | 00:00:00 | 00:00:00 | |
| MIELECB | 2026-08-31 12:03:52 | 50.14040 | 21.57822 | 37° | 29km/h | 15612m | 3.4m/s | 0°C | 0% | 0hPa | 0V | 00:00:00 | 00:00:00 | 00:00:00 | |
| MIELECB | 2026-08-31 12:03:47 | 50.14012 | 21.57782 | 48° | 47km/h | 15592m | 4.5m/s | 0°C | 0% | 0hPa | 0V | 00:00:00 | 00:00:00 | 00:00:00 | |
| SQ9EZE-14 | 2026-08-31 12:03:46 | 50.14005 | 21.57767 | 56° | 51km/h | 15587m | 5.8m/s | 0°C | 0% | 0hPa | 0V | 00:00:00 | 00:00:00 | 00:00:00 | |
| AKAW68 | 2026-08-31 12:03:44 | 50.13993 | 21.57739 | 57° | 38km/h | 15579m | 4.8m/s | 0°C | 0% | 0hPa | 0V | 00:00:00 | 00:00:00 | 00:00:00 | |
| AKAW682 | 2026-08-31 12:03:43 | 50.13988 | 21.57728 | 52° | 31km/h | 15573m | 5.4m/s | 0°C | 0% | 0hPa | 0V | 00:00:00 | 00:00:00 | 00:00:00 | |
| MIELECB | 2026-08-31 12:03:41 | 50.13979 | 21.57715 | 40° | 20km/h | 15564m | 5.3m/s | 0°C | 0% | 0hPa | 0V | 00:00:00 | 00:00:00 | 00:00:00 | |
| SQ9PSP-11 | 2026-08-31 12:03:40 | 50.13975 | 21.57710 | 45° | 20km/h | 15559m | 5.5m/s | 0°C | 0% | 0hPa | 0V | 00:00:00 | 00:00:00 | 00:00:00 | |
| SP9KGR-15 | 2026-08-31 12:03:38 | 50.13966 | 21.57695 | 47° | 37km/h | 15548m | 7.4m/s | 0°C | 0% | 0hPa | 0V | 00:00:00 | 00:00:00 | 00:00:00 | |
| MIELECB | 2026-08-31 12:03:36 | 50.13953 | 21.57670 | 54° | 42km/h | 15538m | 5.9m/s | 0°C | 0% | 0hPa | 0V | 00:00:00 | 00:00:00 | 00:00:00 | |
| MIELECB | 2026-08-31 12:03:31 | 50.13932 | 21.57625 | 60° | 9km/h | 15512m | 7.9m/s | 0°C | 0% | 0hPa | 0V | 00:00:00 | 00:00:00 | 00:00:00 | |
| SQ9EZE-14 | 2026-08-31 12:03:30 | 50.13931 | 21.57622 | 62° | 7km/h | 15507m | 3.5m/s | 0°C | 0% | 0hPa | 0V | 00:00:00 | 00:00:00 | 00:00:00 | |
| MIELECB | 2026-08-31 12:03:25 | 50.13908 | 21.57569 | 61° | 49km/h | 15481m | 4.5m/s | 0°C | 0% | 0hPa | 0V | 00:00:00 | 00:00:00 | 00:00:00 | |
| AKAW68 | 2026-08-31 12:03:24 | 50.13903 | 21.57553 | 66° | 42km/h | 15477m | 3.8m/s | 0°C | 0% | 0hPa | 0V | 00:00:00 | 00:00:00 | 00:00:00 | |
| SP9KGR-15 | 2026-08-31 12:03:22 | 50.13896 | 21.57528 | 63° | 27km/h | 15465m | 6.4m/s | 0°C | 0% | 0hPa | 0V | 00:00:00 | 00:00:00 | 00:00:00 | |
| AKAW682 | 2026-08-31 12:03:21 | 50.13893 | 21.57520 | 57° | 18km/h | 15459m | 7.0m/s | 0°C | 0% | 0hPa | 0V | 00:00:00 | 00:00:00 | 00:00:00 | |
| MIELECB | 2026-08-31 12:03:20 | 50.13891 | 21.57514 | 56° | 18km/h | 15453m | 4.6m/s | 0°C | 0% | 0hPa | 0V | 00:00:00 | 00:00:00 | 00:00:00 | |
| MIELECB | 2026-08-31 12:03:14 | 50.13884 | 21.57454 | 83° | 26km/h | 15420m | 3.5m/s | 0°C | 0% | 0hPa | 0V | 00:00:00 | 00:00:00 | 00:00:00 | |
| MIELECB | 2026-08-31 12:03:09 | 50.13886 | 21.57408 | 73° | 24km/h | 15393m | 4.5m/s | 0°C | 0% | 0hPa | 0V | 00:00:00 | 00:00:00 | 00:00:00 | |
| SP9KGR-15 | 2026-08-31 12:03:06 | 50.13883 | 21.57378 | 94° | 27km/h | 15377m | 5.6m/s | 0°C | 0% | 0hPa | 0V | 00:00:00 | 00:00:00 | 00:00:00 | |
| AKAW68 | 2026-08-31 12:03:03 | 50.13881 | 21.57344 | 89° | 27km/h | 15361m | 5.3m/s | 0°C | 0% | 0hPa | 0V | 00:00:00 | 00:00:00 | 00:00:00 | |
| AKAW682 | 2026-08-31 12:03:00 | 50.13885 | 21.57311 | 100° | 31km/h | 15348m | 6.9m/s | 0°C | 0% | 0hPa | 0V | 00:00:00 | 00:00:00 | 00:00:00 | |
| MIELECB | 2026-08-31 12:02:57 | 50.13885 | 21.57277 | 85° | 26km/h | 15331m | 5.8m/s | 0°C | 0% | 0hPa | 0V | 00:00:00 | 00:00:00 | 00:00:00 | |
| SQ9PSP-11 | 2026-08-31 12:02:54 | 50.13886 | 21.57240 | 95° | 37km/h | 15316m | 6.3m/s | 0°C | 0% | 0hPa | 0V | 00:00:00 | 00:00:00 | 00:00:00 | |
| MIELECB | 2026-08-31 12:02:52 | 50.13887 | 21.57211 | 98° | 33km/h | 15305m | 6.6m/s | 0°C | 0% | 0hPa | 0V | 00:00:00 | 00:00:00 | 00:00:00 | |
| SP9KGR-15 | 2026-08-31 12:02:50 | 50.13890 | 21.57186 | 103° | 31km/h | 15295m | 2.8m/s | 0°C | 0% | 0hPa | 0V | 00:00:00 | 00:00:00 | 00:00:00 | |
| MIELECB | 2026-08-31 12:02:46 | 50.13895 | 21.57125 | 100° | 44km/h | 15275m | 5.4m/s | 0°C | 0% | 0hPa | 0V | 00:00:00 | 00:00:00 | 00:00:00 | |
| AKAW68 | 2026-08-31 12:02:42 | 50.13901 | 21.57058 | 99° | 44km/h | 15255m | 5.1m/s | 0°C | 0% | 0hPa | 0V | 00:00:00 | 00:00:00 | 00:00:00 | |
| MIELECB | 2026-08-31 12:02:40 | 50.13906 | 21.57026 | 104° | 42km/h | 15245m | 4.8m/s | 0°C | 0% | 0hPa | 0V | 00:00:00 | 00:00:00 | 00:00:00 | |
| SQ9PSP-11 | 2026-08-31 12:02:39 | 50.13908 | 21.57010 | 102° | 40km/h | 15240m | 5.1m/s | 0°C | 0% | 0hPa | 0V | 00:00:00 | 00:00:00 | 00:00:00 | |
| AKAW682 | 2026-08-31 12:02:38 | 50.13910 | 21.56993 | 95° | 46km/h | 15235m | 4.5m/s | 0°C | 0% | 0hPa | 0V | 00:00:00 | 00:00:00 | 00:00:00 | |
| MIELECB | 2026-08-31 12:02:34 | 50.13913 | 21.56924 | 99° | 42km/h | 15218m | 4.5m/s | 0°C | 0% | 0hPa | 0V | 00:00:00 | 00:00:00 | 00:00:00 | |
| MIELECB | 2026-08-31 12:02:28 | 50.13910 | 21.56835 | 83° | 35km/h | 15190m | 6.7m/s | 0°C | 0% | 0hPa | 0V | 00:00:00 | 00:00:00 | 00:00:00 | |
| SQ9PSP-11 | 2026-08-31 12:02:24 | 50.13908 | 21.56775 | 95° | 38km/h | 15172m | 5.4m/s | 0°C | 0% | 0hPa | 0V | 00:00:00 | 00:00:00 | 00:00:00 | |
| MIELECB | 2026-08-31 12:02:23 | 50.13908 | 21.56759 | 85° | 42km/h | 15167m | 6.1m/s | 0°C | 0% | 0hPa | 0V | 00:00:00 | 00:00:00 | 00:00:00 | |
| AKAW68 | 2026-08-31 12:02:20 | 50.13905 | 21.56712 | 91° | 40km/h | 15153m | 5.9m/s | 0°C | 0% | 0hPa | 0V | 00:00:00 | 00:00:00 | 00:00:00 | |
| SP9KGR-15 | 2026-08-31 12:02:19 | 50.13905 | 21.56697 | 98° | 35km/h | 15147m | 5.4m/s | 0°C | 0% | 0hPa | 0V | 00:00:00 | 00:00:00 | 00:00:00 | |
| AKAW682 | 2026-08-31 12:02:18 | 50.13905 | 21.56683 | 90° | 37km/h | 15142m | 5.6m/s | 0°C | 0% | 0hPa | 0V | 00:00:00 | 00:00:00 | 00:00:00 | |
| MIELECB | 2026-08-31 12:02:17 | 50.13905 | 21.56669 | 87° | 38km/h | 15137m | 4.6m/s | 0°C | 0% | 0hPa | 0V | 00:00:00 | 00:00:00 | 00:00:00 | |
| MIELECB | 2026-08-31 12:02:12 | 50.13900 | 21.56594 | 76° | 37km/h | 15112m | 4.8m/s | 0°C | 0% | 0hPa | 0V | 00:00:00 | 00:00:00 | 00:00:00 | |
| SQ9PSP-11 | 2026-08-31 12:02:08 | 50.13895 | 21.56537 | 85° | 40km/h | 15093m | 4.7m/s | 0°C | 0% | 0hPa | 0V | 00:00:00 | 00:00:00 | 00:00:00 | |
| MIELECB | 2026-08-31 12:02:06 | 50.13893 | 21.56506 | 85° | 38km/h | 15085m | 8.1m/s | 0°C | 0% | 0hPa | 0V | 00:00:00 | 00:00:00 | 00:00:00 | |
| SP9KGR-15 | 2026-08-31 12:02:02 | 50.13884 | 21.56451 | 64° | 31km/h | 15064m | 4.1m/s | 0°C | 0% | 0hPa | 0V | 00:00:00 | 00:00:00 | 00:00:00 | |
| MIELECB | 2026-08-31 12:02:01 | 50.13881 | 21.56439 | 77° | 33km/h | 15058m | 7.3m/s | 0°C | 0% | 0hPa | 0V | 00:00:00 | 00:00:00 | 00:00:00 | |
| AKAW68 | 2026-08-31 12:02:00 | 50.13880 | 21.56425 | 88° | 38km/h | 15052m | 4.0m/s | 0°C | 0% | 0hPa | 0V | 00:00:00 | 00:00:00 | 00:00:00 | |
| AKAW682 | 2026-08-31 12:01:57 | 50.13878 | 21.56377 | 83° | 47km/h | 15038m | 4.8m/s | 0°C | 0% | 0hPa | 0V | 00:00:00 | 00:00:00 | 00:00:00 | |
| MIELECB | 2026-08-31 12:01:55 | 50.13873 | 21.56340 | 78° | 44km/h | 15030m | 5.1m/s | 0°C | 0% | 0hPa | 0V | 00:00:00 | 00:00:00 | 00:00:00 | |
| SQ9PSP-11 | 2026-08-31 12:01:52 | 50.13868 | 21.56291 | 80° | 49km/h | 15014m | 6.1m/s | 0°C | 0% | 0hPa | 0V | 00:00:00 | 00:00:00 | 00:00:00 | |
| MIELECB | 2026-08-31 12:01:49 | 50.13860 | 21.56239 | 76° | 40km/h | 15000m | 4.5m/s | 0°C | 0% | 0hPa | 0V | 00:00:00 | 00:00:00 | 00:00:00 | |
| MIELECB | 2026-08-31 12:01:43 | 50.13843 | 21.56131 | 77° | 47km/h | 14973m | 4.1m/s | 0°C | 0% | 0hPa | 0V | 00:00:00 | 00:00:00 | 00:00:00 | |
| AKAW68 | 2026-08-31 12:01:39 | 50.13829 | 21.56056 | 71° | 49km/h | 14953m | 5.3m/s | 0°C | 0% | 0hPa | 0V | 00:00:00 | 00:00:00 | 00:00:00 | |
| SQ9PSP-11 | 2026-08-31 12:01:37 | 50.13820 | 21.56020 | 71° | 51km/h | 14942m | 6.2m/s | 0°C | 0% | 0hPa | 0V | 00:00:00 | 00:00:00 | 00:00:00 | |
| MIELECB | 2026-08-31 12:01:36 | 50.13815 | 21.56000 | 75° | 57km/h | 14936m | 4.1m/s | 0°C | 0% | 0hPa | 0V | 00:00:00 | 00:00:00 | 00:00:00 | |
| MIELECB | 2026-08-31 12:01:30 | 50.13793 | 21.55885 | 76° | 44km/h | 14908m | 5.1m/s | 0°C | 0% | 0hPa | 0V | 00:00:00 | 00:00:00 | 00:00:00 | |
| SP9KGR-15 | 2026-08-31 12:01:26 | 50.13780 | 21.55814 | 73° | 47km/h | 14889m | 6.9m/s | 0°C | 0% | 0hPa | 0V | 00:00:00 | 00:00:00 | 00:00:00 | |
| MIELECB | 2026-08-31 12:01:25 | 50.13776 | 21.55797 | 65° | 46km/h | 14883m | 4.7m/s | 0°C | 0% | 0hPa | 0V | 00:00:00 | 00:00:00 | 00:00:00 | |
| SQ9PSP-11 | 2026-08-31 12:01:22 | 50.13760 | 21.55745 | 67° | 51km/h | 14868m | 4.6m/s | 0°C | 0% | 0hPa | 0V | 00:00:00 | 00:00:00 | 00:00:00 | |
| AKAW68 | 2026-08-31 12:01:19 | 50.13747 | 21.55693 | 73° | 44km/h | 14854m | 3.5m/s | 0°C | 0% | 0hPa | 0V | 00:00:00 | 00:00:00 | 00:00:00 | |
| AKAW682 | 2026-08-31 12:01:14 | 50.13734 | 21.55615 | 74° | 33km/h | 14831m | 3.9m/s | 0°C | 0% | 0hPa | 0V | 00:00:00 | 00:00:00 | 00:00:00 | |
| MIELECB | 2026-08-31 12:01:13 | 50.13732 | 21.55602 | 76° | 37km/h | 14826m | 5.4m/s | 0°C | 0% | 0hPa | 0V | 00:00:00 | 00:00:00 | 00:00:00 | |
| MIELECB | 2026-08-31 12:01:08 | 50.13713 | 21.55525 | 70° | 44km/h | 14802m | 5.2m/s | 0°C | 0% | 0hPa | 0V | 00:00:00 | 00:00:00 | 00:00:00 | |
| SQ9PSP-11 | 2026-08-31 12:01:05 | 50.13705 | 21.55474 | 75° | 42km/h | 14790m | 6.4m/s | 0°C | 0% | 0hPa | 0V | 00:00:00 | 00:00:00 | 00:00:00 | |
| MIELECB | 2026-08-31 12:01:02 | 50.13692 | 21.55429 | 68° | 44km/h | 14775m | 6.1m/s | 0°C | 0% | 0hPa | 0V | 00:00:00 | 00:00:00 | 00:00:00 | |
| AKAW68 | 2026-08-31 12:00:59 | 50.13681 | 21.55382 | 68° | 40km/h | 14760m | 3.6m/s | 0°C | 0% | 0hPa | 0V | 00:00:00 | 00:00:00 | 00:00:00 | |
| MIELECB | 2026-08-31 12:00:54 | 50.13669 | 21.55300 | 74° | 40km/h | 14736m | 4.6m/s | 0°C | 0% | 0hPa | 0V | 00:00:00 | 00:00:00 | 00:00:00 | |
| SP9KGR-15 | 2026-08-31 12:00:52 | 50.13662 | 21.55273 | 61° | 35km/h | 14726m | 6.6m/s | 0°C | 0% | 0hPa | 0V | 00:00:00 | 00:00:00 | 00:00:00 | |
| SQ9PSP-11 | 2026-08-31 12:00:50 | 50.13655 | 21.55253 | 69° | 27km/h | 14717m | 3.6m/s | 0°C | 0% | 0hPa | 0V | 00:00:00 | 00:00:00 | 00:00:00 | |
| MIELECB | 2026-08-31 12:00:49 | 50.13652 | 21.55242 | 73° | 33km/h | 14711m | 7.9m/s | 0°C | 0% | 0hPa | 0V | 00:00:00 | 00:00:00 | 00:00:00 | |
| MIELECB | 2026-08-31 12:00:43 | 50.13643 | 21.55139 | 101° | 31km/h | 14670m | 5.8m/s | 0°C | 0% | 0hPa | 0V | 00:00:00 | 00:00:00 | 00:00:00 | |
| AKAW68 | 2026-08-31 12:00:38 | 50.13634 | 21.55077 | 82° | 42km/h | 14644m | 5.5m/s | 0°C | 0% | 0hPa | 0V | 00:00:00 | 00:00:00 | 00:00:00 | |
| MIELECB | 2026-08-31 12:00:37 | 50.13632 | 21.55060 | 85° | 46km/h | 14636m | 8.6m/s | 0°C | 0% | 0hPa | 0V | 00:00:00 | 00:00:00 | 00:00:00 | |
| SP9KGR-15 | 2026-08-31 12:00:36 | 50.13632 | 21.55041 | 100° | 51km/h | 14629m | 5.4m/s | 0°C | 0% | 0hPa | 0V | 00:00:00 | 00:00:00 | 00:00:00 | |
| SQ9PSP-11 | 2026-08-31 12:00:35 | 50.13636 | 21.55021 | 109° | 53km/h | 14621m | 8.5m/s | 0°C | 0% | 0hPa | 0V | 00:00:00 | 00:00:00 | 00:00:00 | |
| AKAW682 | 2026-08-31 12:00:34 | 50.13640 | 21.55002 | 119° | 51km/h | 14615m | 4.4m/s | 0°C | 0% | 0hPa | 0V | 00:00:00 | 00:00:00 | 00:00:00 | |
| MIELECB | 2026-08-31 12:00:32 | 50.13648 | 21.54968 | 100° | 42km/h | 14606m | 6.7m/s | 0°C | 0% | 0hPa | 0V | 00:00:00 | 00:00:00 | 00:00:00 | |
| MIELECB | 2026-08-31 12:00:26 | 50.13640 | 21.54860 | 111° | 60km/h | 14570m | 5.8m/s | 0°C | 0% | 0hPa | 0V | 00:00:00 | 00:00:00 | 00:00:00 | |
| MIELECB | 2026-08-31 12:00:21 | 50.13663 | 21.54743 | 99° | 66km/h | 14539m | 6.7m/s | 0°C | 0% | 0hPa | 0V | 00:00:00 | 00:00:00 | 00:00:00 | |
| AKAW68 | 2026-08-31 12:00:19 | 50.13663 | 21.54653 | 88° | 51km/h | 14521m | 5.3m/s | 0°C | 0% | 0hPa | 0V | 00:00:00 | 00:00:00 | 00:00:00 | |
| MIELECB | 2026-08-31 12:00:15 | 50.13661 | 21.54608 | 82° | 64km/h | 14511m | 6.2m/s | 0°C | 0% | 0hPa | 0V | 00:00:00 | 00:00:00 | 00:00:00 | |
| MIELECB | 2026-08-31 12:00:09 | 50.13654 | 21.54453 | 110° | 58km/h | 14480m | 5.1m/s | 0°C | 0% | 0hPa | 0V | 00:00:00 | 00:00:00 | 00:00:00 | |
| AKAW68 | 2026-08-31 11:59:57 | 50.13662 | 21.54099 | 90° | 77km/h | 14422m | 4.9m/s | 0°C | 0% | 0hPa | 0V | 00:00:00 | 00:00:00 | 00:00:00 | |
| MIELECB | 2026-08-31 11:59:52 | 50.13651 | 21.53927 | 90° | 88km/h | 14402m | 4.3m/s | 0°C | 0% | 0hPa | 0V | 00:00:00 | 00:00:00 | 00:00:00 | |
| SQ9PSP-11 | 2026-08-31 11:59:48 | 50.13649 | 21.53807 | 85° | 73km/h | 14387m | 4.2m/s | 0°C | 0% | 0hPa | 0V | 00:00:00 | 00:00:00 | 00:00:00 | |
| MIELECB | 2026-08-31 11:59:46 | 50.13646 | 21.53749 | 89° | 77km/h | 14380m | 4.5m/s | 0°C | 0% | 0hPa | 0V | 00:00:00 | 00:00:00 | 00:00:00 | |
| MIELECB | 2026-08-31 11:59:40 | 50.13631 | 21.53557 | 90° | 78km/h | 14358m | 4.3m/s | 0°C | 0% | 0hPa | 0V | 00:00:00 | 00:00:00 | 00:00:00 | |
| SP9KGR-15 | 2026-08-31 11:59:38 | 50.13627 | 21.53494 | 84° | 78km/h | 14348m | 5.6m/s | 0°C | 0% | 0hPa | 0V | 00:00:00 | 00:00:00 | 00:00:00 | |
| AKAW68 | 2026-08-31 11:59:37 | 50.13625 | 21.53462 | 84° | 84km/h | 14343m | 4.4m/s | 0°C | 0% | 0hPa | 0V | 00:00:00 | 00:00:00 | 00:00:00 | |
| MIELECB | 2026-08-31 11:59:35 | 50.13618 | 21.53397 | 81° | 84km/h | 14335m | 3.0m/s | 0°C | 0% | 0hPa | 0V | 00:00:00 | 00:00:00 | 00:00:00 | |
| SQ9PSP-11 | 2026-08-31 11:59:32 | 50.13604 | 21.53299 | 77° | 86km/h | 14322m | 5.7m/s | 0°C | 0% | 0hPa | 0V | 00:00:00 | 00:00:00 | 00:00:00 | |
| MIELECB | 2026-08-31 11:59:29 | 50.13590 | 21.53205 | 78° | 75km/h | 14310m | 4.0m/s | 0°C | 0% | 0hPa | 0V | 00:00:00 | 00:00:00 | 00:00:00 | |
| MIELECB | 2026-08-31 11:59:23 | 50.13562 | 21.53025 | 76° | 77km/h | 14284m | 6.2m/s | 0°C | 0% | 0hPa | 0V | 00:00:00 | 00:00:00 | 00:00:00 | |
| MIELECB | 2026-08-31 11:59:17 | 50.13528 | 21.52853 | 73° | 77km/h | 14255m | 4.8m/s | 0°C | 0% | 0hPa | 0V | 00:00:00 | 00:00:00 | 00:00:00 | |
| AKAW68 | 2026-08-31 11:59:16 | 50.13521 | 21.52825 | 70° | 78km/h | 14251m | 4.2m/s | 0°C | 0% | 0hPa | 0V | 00:00:00 | 00:00:00 | 00:00:00 | |
| MIELECB | 2026-08-31 11:59:12 | 50.13495 | 21.52712 | 73° | 75km/h | 14236m | 2.2m/s | 0°C | 0% | 0hPa | 0V | 00:00:00 | 00:00:00 | 00:00:00 | |
| SP9KGR-15 | 2026-08-31 11:59:09 | 50.13475 | 21.52631 | 66° | 71km/h | 14223m | 3.4m/s | 0°C | 0% | 0hPa | 0V | 00:00:00 | 00:00:00 | 00:00:00 | |
| MIELECB | 2026-08-31 11:59:06 | 50.13452 | 21.52550 | 69° | 75km/h | 14210m | 4.6m/s | 0°C | 0% | 0hPa | 0V | 00:00:00 | 00:00:00 | 00:00:00 | |
| MIELECB | 2026-08-31 11:59:01 | 50.13416 | 21.52414 | 66° | 71km/h | 14193m | 4.3m/s | 0°C | 0% | 0hPa | 0V | 00:00:00 | 00:00:00 | 00:00:00 | |
| MIELECB | 2026-08-31 11:58:56 | 50.13376 | 21.52289 | 69° | 69km/h | 14171m | 5.3m/s | 0°C | 0% | 0hPa | 0V | 00:00:00 | 00:00:00 | 00:00:00 | |
| AKAW68 | 2026-08-31 11:58:55 | 50.13370 | 21.52264 | 70° | 68km/h | 14166m | 4.5m/s | 0°C | 0% | 0hPa | 0V | 00:00:00 | 00:00:00 | 00:00:00 | |
| MIELECB | 2026-08-31 11:58:50 | 50.13334 | 21.52129 | 66° | 68km/h | 14143m | 3.7m/s | 0°C | 0% | 0hPa | 0V | 00:00:00 | 00:00:00 | 00:00:00 | |
| SQ9PSP-11 | 2026-08-31 11:58:46 | 50.13308 | 21.52027 | 72° | 68km/h | 14125m | 4.1m/s | 0°C | 0% | 0hPa | 0V | 00:00:00 | 00:00:00 | 00:00:00 | |
| MIELECB | 2026-08-31 11:58:44 | 50.13297 | 21.51973 | 76° | 77km/h | 14116m | 5.5m/s | 0°C | 0% | 0hPa | 0V | 00:00:00 | 00:00:00 | 00:00:00 | |
| MIELECB | 2026-08-31 11:58:39 | 50.13271 | 21.51835 | 72° | 69km/h | 14094m | 4.6m/s | 0°C | 0% | 0hPa | 0V | 00:00:00 | 00:00:00 | 00:00:00 | |
| AKAW68 | 2026-08-31 11:58:34 | 50.13247 | 21.51704 | 77° | 73km/h | 14072m | 2.9m/s | 0°C | 0% | 0hPa | 0V | 00:00:00 | 00:00:00 | 00:00:00 | |
| MIELECB | 2026-08-31 11:58:33 | 50.13242 | 21.51677 | 77° | 71km/h | 14069m | 4.0m/s | 0°C | 0% | 0hPa | 0V | 00:00:00 | 00:00:00 | 00:00:00 | |
| MIELECB | 2026-08-31 11:58:27 | 50.13220 | 21.51515 | 80° | 68km/h | 14042m | 4.6m/s | 0°C | 0% | 0hPa | 0V | 00:00:00 | 00:00:00 | 00:00:00 | |
| SQ9PSP-11 | 2026-08-31 11:58:26 | 50.13218 | 21.51489 | 83° | 68km/h | 14038m | 2.7m/s | 0°C | 0% | 0hPa | 0V | 00:00:00 | 00:00:00 | 00:00:00 | |
| MIELECB | 2026-08-31 11:58:22 | 50.13205 | 21.51378 | 79° | 71km/h | 14023m | 4.5m/s | 0°C | 0% | 0hPa | 0V | 00:00:00 | 00:00:00 | 00:00:00 | |
| SQ9EZE-14 | 2026-08-31 11:58:18 | 50.13192 | 21.51270 | 80° | 69km/h | 14009m | 5.7m/s | 0°C | 0% | 0hPa | 0V | 00:00:00 | 00:00:00 | 00:00:00 | |
| MIELECB | 2026-08-31 11:58:16 | 50.13187 | 21.51216 | 82° | 71km/h | 14000m | 4.6m/s | 0°C | 0% | 0hPa | 0V | 00:00:00 | 00:00:00 | 00:00:00 | |
| AKAW68 | 2026-08-31 11:58:14 | 50.13184 | 21.51158 | 87° | 80km/h | 13994m | 4.0m/s | 0°C | 0% | 0hPa | 0V | 00:00:00 | 00:00:00 | 00:00:00 | |
| MIELECB | 2026-08-31 11:58:11 | 50.13181 | 21.51070 | 87° | 71km/h | 13979m | 4.9m/s | 0°C | 0% | 0hPa | 0V | 00:00:00 | 00:00:00 | 00:00:00 | |
| MIELECB | 2026-08-31 11:58:05 | 50.13179 | 21.50898 | 91° | 78km/h | 13952m | 3.9m/s | 0°C | 0% | 0hPa | 0V | 00:00:00 | 00:00:00 | 00:00:00 | |
| MIELECB | 2026-08-31 11:58:00 | 50.13175 | 21.50752 | 90° | 75km/h | 13928m | 6.6m/s | 0°C | 0% | 0hPa | 0V | 00:00:00 | 00:00:00 | 00:00:00 | |
| SQ9PSP-11 | 2026-08-31 11:57:55 | 50.13176 | 21.50606 | 87° | 80km/h | 13903m | 4.7m/s | 0°C | 0% | 0hPa | 0V | 00:00:00 | 00:00:00 | 00:00:00 | |
| MIELECB | 2026-08-31 11:57:54 | 50.13175 | 21.50575 | 87° | 77km/h | 13899m | 5.0m/s | 0°C | 0% | 0hPa | 0V | 00:00:00 | 00:00:00 | 00:00:00 | |
| AKAW68 | 2026-08-31 11:57:53 | 50.13174 | 21.50546 | 87° | 75km/h | 13896m | 1.1m/s | 0°C | 0% | 0hPa | 0V | 00:00:00 | 00:00:00 | 00:00:00 | |
| SP9KGR-15 | 2026-08-31 11:57:51 | 50.13174 | 21.50484 | 94° | 77km/h | 13889m | 3.8m/s | 0°C | 0% | 0hPa | 0V | 00:00:00 | 00:00:00 | 00:00:00 | |
| MIELECB | 2026-08-31 11:57:49 | 50.13177 | 21.50425 | 100° | 73km/h | 13880m | 3.2m/s | 0°C | 0% | 0hPa | 0V | 00:00:00 | 00:00:00 | 00:00:00 | |
| MIELECB | 2026-08-31 11:57:43 | 50.13183 | 21.50240 | 88° | 82km/h | 13853m | 3.8m/s | 0°C | 0% | 0hPa | 0V | 00:00:00 | 00:00:00 | 00:00:00 | |
| SQ9PSP-11 | 2026-08-31 11:57:39 | 50.13183 | 21.50112 | 95° | 75km/h | 13840m | 3.9m/s | 0°C | 0% | 0hPa | 0V | 00:00:00 | 00:00:00 | 00:00:00 | |
| MIELECB | 2026-08-31 11:57:37 | 50.13188 | 21.50055 | 102° | 77km/h | 13831m | 5.3m/s | 0°C | 0% | 0hPa | 0V | 00:00:00 | 00:00:00 | 00:00:00 | |
| SP9KGR-15 | 2026-08-31 11:57:36 | 50.13193 | 21.50025 | 104° | 80km/h | 13827m | 4.0m/s | 0°C | 0% | 0hPa | 0V | 00:00:00 | 00:00:00 | 00:00:00 | |
| MIELECB | 2026-08-31 11:57:32 | 50.13202 | 21.49869 | 95° | 86km/h | 13805m | 4.2m/s | 0°C | 0% | 0hPa | 0V | 00:00:00 | 00:00:00 | 00:00:00 | |
| MIELECB | 2026-08-31 11:57:26 | 50.13216 | 21.49709 | 107° | 82km/h | 13778m | 2.4m/s | 0°C | 0% | 0hPa | 0V | 00:00:00 | 00:00:00 | 00:00:00 | |
| SQ9PSP-11 | 2026-08-31 11:57:23 | 50.13227 | 21.49615 | 99° | 84km/h | 13764m | 5.5m/s | 0°C | 0% | 0hPa | 0V | 00:00:00 | 00:00:00 | 00:00:00 | |
| AKAW682 | 2026-08-31 11:57:21 | 50.13233 | 21.49549 | 96° | 82km/h | 13753m | 4.7m/s | 0°C | 0% | 0hPa | 0V | 00:00:00 | 00:00:00 | 00:00:00 | |
| MIELECB | 2026-08-31 11:57:20 | 50.13235 | 21.49516 | 97° | 84km/h | 13748m | 4.6m/s | 0°C | 0% | 0hPa | 0V | 00:00:00 | 00:00:00 | 00:00:00 | |
| MIELECB | 2026-08-31 11:57:15 | 50.13256 | 21.49353 | 106° | 82km/h | 13727m | 6.0m/s | 0°C | 0% | 0hPa | 0V | 00:00:00 | 00:00:00 | 00:00:00 | |
| AKAW68 | 2026-08-31 11:57:11 | 50.13271 | 21.49218 | 98° | 89km/h | 13708m | 6.2m/s | 0°C | 0% | 0hPa | 0V | 00:00:00 | 00:00:00 | 00:00:00 | |
| MIELECB | 2026-08-31 11:57:10 | 50.13273 | 21.49184 | 100° | 84km/h | 13703m | 4.6m/s | 0°C | 0% | 0hPa | 0V | 00:00:00 | 00:00:00 | 00:00:00 | |
| SQ9PSP-11 | 2026-08-31 11:57:07 | 50.13284 | 21.49084 | 104° | 86km/h | 13690m | 4.0m/s | 0°C | 0% | 0hPa | 0V | 00:00:00 | 00:00:00 | 00:00:00 | |
| MIELECB | 2026-08-31 11:57:04 | 50.13299 | 21.48990 | 103° | 82km/h | 13678m | 3.5m/s | 0°C | 0% | 0hPa | 0V | 00:00:00 | 00:00:00 | 00:00:00 | |
| MIELECB | 2026-08-31 11:56:58 | 50.13316 | 21.48780 | 101° | 89km/h | 13653m | 6.2m/s | 0°C | 0% | 0hPa | 0V | 00:00:00 | 00:00:00 | 00:00:00 | |
| AKAW682 | 2026-08-31 11:56:54 | 50.13331 | 21.48645 | 97° | 82km/h | 13635m | 3.8m/s | 0°C | 0% | 0hPa | 0V | 00:00:00 | 00:00:00 | 00:00:00 | |
| SP9KGR-15 | 2026-08-31 11:56:53 | 50.13334 | 21.48613 | 99° | 86km/h | 13631m | 4.6m/s | 0°C | 0% | 0hPa | 0V | 00:00:00 | 00:00:00 | 00:00:00 | |
| SQ9PSP-11 | 2026-08-31 11:56:51 | 50.13340 | 21.48545 | 98° | 95km/h | 13622m | 5.9m/s | 0°C | 0% | 0hPa | 0V | 00:00:00 | 00:00:00 | 00:00:00 | |
| AKAW68 | 2026-08-31 11:56:50 | 50.13343 | 21.48507 | 100° | 95km/h | 13616m | 5.1m/s | 0°C | 0% | 0hPa | 0V | 00:00:00 | 00:00:00 | 00:00:00 | |
| MIELECB | 2026-08-31 11:56:47 | 50.13349 | 21.48393 | 95° | 100km/h | 13604m | 6.0m/s | 0°C | 0% | 0hPa | 0V | 00:00:00 | 00:00:00 | 00:00:00 | |
| MIELECB | 2026-08-31 11:56:42 | 50.13364 | 21.48207 | 102° | 93km/h | 13578m | 6.2m/s | 0°C | 0% | 0hPa | 0V | 00:00:00 | 00:00:00 | 00:00:00 | |
| MIELECB | 2026-08-31 11:56:37 | 50.13384 | 21.47980 | 100° | 99km/h | 13555m | 3.4m/s | 0°C | 0% | 0hPa | 0V | 00:00:00 | 00:00:00 | 00:00:00 | |
| SQ9PSP-11 | 2026-08-31 11:56:35 | 50.13387 | 21.47942 | 101° | 95km/h | 13551m | 5.1m/s | 0°C | 0% | 0hPa | 0V | 00:00:00 | 00:00:00 | 00:00:00 | |
| MIELECB | 2026-08-31 11:56:31 | 50.13400 | 21.47798 | 99° | 97km/h | 13534m | 4.1m/s | 0°C | 0% | 0hPa | 0V | 00:00:00 | 00:00:00 | 00:00:00 | |
| AKAW68 | 2026-08-31 11:56:29 | 50.13404 | 21.47720 | 93° | 100km/h | 13525m | 3.3m/s | 0°C | 0% | 0hPa | 0V | 00:00:00 | 00:00:00 | 00:00:00 | |
| MIELECB | 2026-08-31 11:56:25 | 50.13416 | 21.47562 | 102° | 97km/h | 13510m | 4.6m/s | 0°C | 0% | 0hPa | 0V | 00:00:00 | 00:00:00 | 00:00:00 | |
| MIELECB | 2026-08-31 11:56:19 | 50.13432 | 21.47337 | 95° | 95km/h | 13485m | 4.0m/s | 0°C | 0% | 0hPa | 0V | 00:00:00 | 00:00:00 | 00:00:00 | |
| SP9KGR-15 | 2026-08-31 11:56:17 | 50.13435 | 21.47261 | 98° | 95km/h | 13477m | 5.0m/s | 0°C | 0% | 0hPa | 0V | 00:00:00 | 00:00:00 | 00:00:00 | |
| MIELECB | 2026-08-31 11:56:14 | 50.13444 | 21.47152 | 95° | 91km/h | 13465m | 5.5m/s | 0°C | 0% | 0hPa | 0V | 00:00:00 | 00:00:00 | 00:00:00 | |
| AKAW68 | 2026-08-31 11:56:09 | 50.13454 | 21.46968 | 93° | 97km/h | 13438m | 4.5m/s | 0°C | 0% | 0hPa | 0V | 00:00:00 | 00:00:00 | 00:00:00 | |
| MIELECB | 2026-08-31 11:56:08 | 50.13455 | 21.46930 | 93° | 100km/h | 13434m | 5.1m/s | 0°C | 0% | 0hPa | 0V | 00:00:00 | 00:00:00 | 00:00:00 | |
| SQ9PSP-11 | 2026-08-31 11:56:04 | 50.13463 | 21.46776 | 97° | 95km/h | 13417m | 3.7m/s | 0°C | 0% | 0hPa | 0V | 00:00:00 | 00:00:00 | 00:00:00 | |
| MIELECB | 2026-08-31 11:56:03 | 50.13466 | 21.46739 | 101° | 95km/h | 13412m | 5.6m/s | 0°C | 0% | 0hPa | 0V | 00:00:00 | 00:00:00 | 00:00:00 | |
| MIELECB | 2026-08-31 11:55:57 | 50.13477 | 21.46510 | 93° | 106km/h | 13389m | 4.4m/s | 0°C | 0% | 0hPa | 0V | 00:00:00 | 00:00:00 | 00:00:00 | |
| AKAW682 | 2026-08-31 11:55:53 | 50.13482 | 21.46352 | 94° | 99km/h | 13374m | 4.7m/s | 0°C | 0% | 0hPa | 0V | 00:00:00 | 00:00:00 | 00:00:00 | |
| MIELECB | 2026-08-31 11:55:51 | 50.13484 | 21.46273 | 92° | 104km/h | 13364m | 4.6m/s | 0°C | 0% | 0hPa | 0V | 00:00:00 | 00:00:00 | 00:00:00 | |
| AKAW68 | 2026-08-31 11:55:48 | 50.13483 | 21.46154 | 89° | 104km/h | 13350m | 7.2m/s | 0°C | 0% | 0hPa | 0V | 00:00:00 | 00:00:00 | 00:00:00 | |
| MIELECB | 2026-08-31 11:55:46 | 50.13484 | 21.46073 | 94° | 102km/h | 13340m | 4.7m/s | 0°C | 0% | 0hPa | 0V | 00:00:00 | 00:00:00 | 00:00:00 | |
| MIELECB | 2026-08-31 11:55:40 | 50.13490 | 21.45831 | 92° | 102km/h | 13315m | 3.7m/s | 0°C | 0% | 0hPa | 0V | 00:00:00 | 00:00:00 | 00:00:00 | |
| MIELECB | 2026-08-31 11:55:34 | 50.13496 | 21.45579 | 94° | 106km/h | 13291m | 6.2m/s | 0°C | 0% | 0hPa | 0V | 00:00:00 | 00:00:00 | 00:00:00 | |
| SQ9PSP-11 | 2026-08-31 11:55:32 | 50.13501 | 21.45493 | 96° | 113km/h | 13282m | 4.3m/s | 0°C | 0% | 0hPa | 0V | 00:00:00 | 00:00:00 | 00:00:00 | |
| AKAW68 | 2026-08-31 11:55:28 | 50.13507 | 21.45319 | 94° | 115km/h | 13266m | 4.6m/s | 0°C | 0% | 0hPa | 0V | 00:00:00 | 00:00:00 | 00:00:00 | |
| MIELECB | 2026-08-31 11:55:23 | 50.13514 | 21.45095 | 95° | 113km/h | 13241m | 4.0m/s | 0°C | 0% | 0hPa | 0V | 00:00:00 | 00:00:00 | 00:00:00 | |
| MIELECB | 2026-08-31 11:55:17 | 50.13523 | 21.44830 | 97° | 110km/h | 13214m | 4.3m/s | 0°C | 0% | 0hPa | 0V | 00:00:00 | 00:00:00 | 00:00:00 | |
| MIELECB | 2026-08-31 11:55:12 | 50.13536 | 21.44609 | 93° | 110km/h | 13191m | 4.4m/s | 0°C | 0% | 0hPa | 0V | 00:00:00 | 00:00:00 | 00:00:00 | |
| AKAW682 | 2026-08-31 11:55:08 | 50.13537 | 21.44428 | 94° | 115km/h | 13177m | 4.9m/s | 0°C | 0% | 0hPa | 0V | 00:00:00 | 00:00:00 | 00:00:00 | |
| MIELECB | 2026-08-31 11:55:06 | 50.13542 | 21.44339 | 96° | 115km/h | 13168m | 6.8m/s | 0°C | 0% | 0hPa | 0V | 00:00:00 | 00:00:00 | 00:00:00 | |
| SP9KGR-15 | 2026-08-31 11:55:03 | 50.13549 | 21.44205 | 93° | 108km/h | 13154m | 4.5m/s | 0°C | 0% | 0hPa | 0V | 00:00:00 | 00:00:00 | 00:00:00 | |
| SQ9PSP-11 | 2026-08-31 11:55:01 | 50.13551 | 21.44119 | 91° | 113km/h | 13147m | 5.9m/s | 0°C | 0% | 0hPa | 0V | 00:00:00 | 00:00:00 | 00:00:00 | |
| MIELECB | 2026-08-31 11:55:00 | 50.13551 | 21.44074 | 94° | 117km/h | 13143m | 4.4m/s | 0°C | 0% | 0hPa | 0V | 00:00:00 | 00:00:00 | 00:00:00 | |
| MIELECB | 2026-08-31 11:54:55 | 50.13559 | 21.43842 | 93° | 117km/h | 13123m | 7.3m/s | 0°C | 0% | 0hPa | 0V | 00:00:00 | 00:00:00 | 00:00:00 | |
| MIELECB | 2026-08-31 11:54:49 | 50.13567 | 21.43557 | 95° | 122km/h | 13095m | 3.8m/s | 0°C | 0% | 0hPa | 0V | 00:00:00 | 00:00:00 | 00:00:00 | |
| AKAW68 | 2026-08-31 11:54:48 | 50.13568 | 21.43509 | 93° | 120km/h | 13090m | 5.8m/s | 0°C | 0% | 0hPa | 0V | 00:00:00 | 00:00:00 | 00:00:00 | |
| SQ9PSP-11 | 2026-08-31 11:54:45 | 50.13572 | 21.43367 | 93° | 126km/h | 13076m | 4.4m/s | 0°C | 0% | 0hPa | 0V | 00:00:00 | 00:00:00 | 00:00:00 | |
| MIELECB | 2026-08-31 11:54:43 | 50.13572 | 21.43269 | 91° | 122km/h | 13067m | 5.2m/s | 0°C | 0% | 0hPa | 0V | 00:00:00 | 00:00:00 | 00:00:00 | |
| AKAW682 | 2026-08-31 11:54:42 | 50.13572 | 21.43221 | 91° | 119km/h | 13063m | 3.3m/s | 0°C | 0% | 0hPa | 0V | 00:00:00 | 00:00:00 | 00:00:00 | |
| MIELECB | 2026-08-31 11:54:37 | 50.13570 | 21.42982 | 90° | 120km/h | 13038m | 5.0m/s | 0°C | 0% | 0hPa | 0V | 00:00:00 | 00:00:00 | 00:00:00 | |
| MIELECB | 2026-08-31 11:54:32 | 50.13571 | 21.42742 | 88° | 120km/h | 13016m | 6.1m/s | 0°C | 0% | 0hPa | 0V | 00:00:00 | 00:00:00 | 00:00:00 | |
| SQ9PSP-11 | 2026-08-31 11:54:30 | 50.13569 | 21.42647 | 92° | 124km/h | 13005m | 4.5m/s | 0°C | 0% | 0hPa | 0V | 00:00:00 | 00:00:00 | 00:00:00 | |
| AKAW68 | 2026-08-31 11:54:28 | 50.13571 | 21.42551 | 91° | 120km/h | 12996m | 6.3m/s | 0°C | 0% | 0hPa | 0V | 00:00:00 | 00:00:00 | 00:00:00 | |
| MIELECB | 2026-08-31 11:54:26 | 50.13570 | 21.42457 | 92° | 117km/h | 12987m | 4.5m/s | 0°C | 0% | 0hPa | 0V | 00:00:00 | 00:00:00 | 00:00:00 | |
| SP9KGR-15 | 2026-08-31 11:54:22 | 50.13571 | 21.42266 | 89° | 115km/h | 12973m | 4.9m/s | 0°C | 0% | 0hPa | 0V | 00:00:00 | 00:00:00 | 00:00:00 | |
| MIELECB | 2026-08-31 11:54:20 | 50.13567 | 21.42175 | 86° | 119km/h | 12963m | 7.5m/s | 0°C | 0% | 0hPa | 0V | 00:00:00 | 00:00:00 | 00:00:00 | |
| AKAW682 | 2026-08-31 11:54:19 | 50.13565 | 21.42129 | 88° | 117km/h | 12957m | 5.0m/s | 0°C | 0% | 0hPa | 0V | 00:00:00 | 00:00:00 | 00:00:00 | |
| MIELECB | 2026-08-31 11:54:15 | 50.13562 | 21.41943 | 90° | 124km/h | 12938m | 4.3m/s | 0°C | 0% | 0hPa | 0V | 00:00:00 | 00:00:00 | 00:00:00 | |
| MIELECB | 2026-08-31 11:54:09 | 50.13555 | 21.41656 | 92° | 119km/h | 12913m | 4.2m/s | 0°C | 0% | 0hPa | 0V | 00:00:00 | 00:00:00 | 00:00:00 | |
| SP9KGR-15 | 2026-08-31 11:54:07 | 50.13555 | 21.41565 | 91° | 113km/h | 12904m | 4.5m/s | 0°C | 0% | 0hPa | 0V | 00:00:00 | 00:00:00 | 00:00:00 | |
| MIELECB | 2026-08-31 11:54:04 | 50.13551 | 21.41424 | 88° | 126km/h | 12891m | 4.2m/s | 0°C | 0% | 0hPa | 0V | 00:00:00 | 00:00:00 | 00:00:00 | |
| MIELECB | 2026-08-31 11:53:58 | 50.13547 | 21.41142 | 93° | 115km/h | 12861m | 5.9m/s | 0°C | 0% | 0hPa | 0V | 00:00:00 | 00:00:00 | 00:00:00 | |
| AKAW682 | 2026-08-31 11:53:56 | 50.13546 | 21.41055 | 88° | 111km/h | 12852m | 5.8m/s | 0°C | 0% | 0hPa | 0V | 00:00:00 | 00:00:00 | 00:00:00 | |
| MIELECB | 2026-08-31 11:53:53 | 50.13538 | 21.40915 | 84° | 122km/h | 12837m | 7.6m/s | 0°C | 0% | 0hPa | 0V | 00:00:00 | 00:00:00 | 00:00:00 | |
| MIELECB | 2026-08-31 11:53:48 | 50.13524 | 21.40686 | 86° | 115km/h | 12811m | 4.2m/s | 0°C | 0% | 0hPa | 0V | 00:00:00 | 00:00:00 | 00:00:00 | |
| AKAW68 | 2026-08-31 11:53:47 | 50.13521 | 21.40640 | 83° | 117km/h | 12807m | 5.1m/s | 0°C | 0% | 0hPa | 0V | 00:00:00 | 00:00:00 | 00:00:00 | |
| SQ9PSP-11 | 2026-08-31 11:53:44 | 50.13509 | 21.40498 | 87° | 119km/h | 12792m | 2.8m/s | 0°C | 0% | 0hPa | 0V | 00:00:00 | 00:00:00 | 00:00:00 | |
| MIELECB | 2026-08-31 11:53:42 | 50.13507 | 21.40408 | 90° | 111km/h | 12782m | 7.5m/s | 0°C | 0% | 0hPa | 0V | 00:00:00 | 00:00:00 | 00:00:00 | |
| MIELECB | 2026-08-31 11:53:37 | 50.13490 | 21.40180 | 84° | 126km/h | 12755m | 5.0m/s | 0°C | 0% | 0hPa | 0V | 00:00:00 | 00:00:00 | 00:00:00 | |
| AKAW682 | 2026-08-31 11:53:36 | 50.13486 | 21.40131 | 84° | 126km/h | 12751m | 4.6m/s | 0°C | 0% | 0hPa | 0V | 00:00:00 | 00:00:00 | 00:00:00 | |
| SP9KGR-15 | 2026-08-31 11:53:31 | 50.13470 | 21.39904 | 84° | 117km/h | 12721m | 5.2m/s | 0°C | 0% | 0hPa | 0V | 00:00:00 | 00:00:00 | 00:00:00 | |
| SQ9PSP-11 | 2026-08-31 11:53:28 | 50.13460 | 21.39766 | 86° | 120km/h | 12704m | 7.5m/s | 0°C | 0% | 0hPa | 0V | 00:00:00 | 00:00:00 | 00:00:00 | |
| AKAW68 | 2026-08-31 11:53:26 | 50.13454 | 21.39676 | 85° | 115km/h | 12696m | 5.1m/s | 0°C | 0% | 0hPa | 0V | 00:00:00 | 00:00:00 | 00:00:00 | |
| MIELECB | 2026-08-31 11:53:25 | 50.13451 | 21.39631 | 86° | 113km/h | 12691m | 5.9m/s | 0°C | 0% | 0hPa | 0V | 00:00:00 | 00:00:00 | 00:00:00 | |
| MIELECB | 2026-08-31 11:53:19 | 50.13435 | 21.39367 | 86° | 117km/h | 12653m | 4.1m/s | 0°C | 0% | 0hPa | 0V | 00:00:00 | 00:00:00 | 00:00:00 | |
| AKAW682 | 2026-08-31 11:53:16 | 50.13427 | 21.39227 | 85° | 122km/h | 12639m | 7.1m/s | 0°C | 0% | 0hPa | 0V | 00:00:00 | 00:00:00 | 00:00:00 | |
| SP9KGR-15 | 2026-08-31 11:53:15 | 50.13423 | 21.39179 | 84° | 122km/h | 12633m | 4.2m/s | 0°C | 0% | 0hPa | 0V | 00:00:00 | 00:00:00 | 00:00:00 | |
| MIELECB | 2026-08-31 11:53:14 | 50.13419 | 21.39131 | 83° | 120km/h | 12628m | 5.6m/s | 0°C | 0% | 0hPa | 0V | 00:00:00 | 00:00:00 | 00:00:00 | |
| SQ9PSP-11 | 2026-08-31 11:53:13 | 50.13416 | 21.39085 | 86° | 119km/h | 12623m | 4.3m/s | 0°C | 0% | 0hPa | 0V | 00:00:00 | 00:00:00 | 00:00:00 | |
| MIELECB | 2026-08-31 11:53:08 | 50.13403 | 21.38860 | 86° | 110km/h | 12598m | 5.3m/s | 0°C | 0% | 0hPa | 0V | 00:00:00 | 00:00:00 | 00:00:00 | |
| AKAW68 | 2026-08-31 11:53:05 | 50.13391 | 21.38732 | 78° | 110km/h | 12581m | 4.5m/s | 0°C | 0% | 0hPa | 0V | 00:00:00 | 00:00:00 | 00:00:00 | |
| MIELECB | 2026-08-31 11:53:02 | 50.13380 | 21.38600 | 86° | 117km/h | 12567m | 5.5m/s | 0°C | 0% | 0hPa | 0V | 00:00:00 | 00:00:00 | 00:00:00 | |
| SP9KGR-15 | 2026-08-31 11:53:00 | 50.13376 | 21.38509 | 87° | 113km/h | 12557m | 4.8m/s | 0°C | 0% | 0hPa | 0V | 00:00:00 | 00:00:00 | 00:00:00 | |
| SQ9PSP-11 | 2026-08-31 11:52:57 | 50.13366 | 21.38378 | 81° | 119km/h | 12538m | 4.7m/s | 0°C | 0% | 0hPa | 0V | 00:00:00 | 00:00:00 | 00:00:00 | |
| MIELECB | 2026-08-31 11:52:56 | 50.13360 | 21.38331 | 80° | 122km/h | 12533m | 5.6m/s | 0°C | 0% | 0hPa | 0V | 00:00:00 | 00:00:00 | 00:00:00 | |
| AKAW682 | 2026-08-31 11:52:55 | 50.13354 | 21.38285 | 79° | 117km/h | 12528m | 5.2m/s | 0°C | 0% | 0hPa | 0V | 00:00:00 | 00:00:00 | 00:00:00 | |
| MIELECB | 2026-08-31 11:52:51 | 50.13338 | 21.38110 | 86° | 108km/h | 12508m | 4.8m/s | 0°C | 0% | 0hPa | 0V | 00:00:00 | 00:00:00 | 00:00:00 | |
| SP9KGR-15 | 2026-08-31 11:52:45 | 50.13318 | 21.37851 | 81° | 111km/h | 12473m | 6.9m/s | 0°C | 0% | 0hPa | 0V | 00:00:00 | 00:00:00 | 00:00:00 | |
| AKAW68 | 2026-08-31 11:52:44 | 50.13313 | 21.37807 | 80° | 113km/h | 12468m | 3.1m/s | 0°C | 0% | 0hPa | 0V | 00:00:00 | 00:00:00 | 00:00:00 | |
| SQ9PSP-11 | 2026-08-31 11:52:41 | 50.13297 | 21.37673 | 79° | 115km/h | 12454m | 5.9m/s | 0°C | 0% | 0hPa | 0V | 00:00:00 | 00:00:00 | 00:00:00 | |
| MIELECB | 2026-08-31 11:52:40 | 50.13292 | 21.37628 | 82° | 119km/h | 12447m | 8.3m/s | 0°C | 0% | 0hPa | 0V | 00:00:00 | 00:00:00 | 00:00:00 | |
| MIELECB | 2026-08-31 11:52:35 | 50.13269 | 21.37406 | 81° | 113km/h | 12418m | 3.2m/s | 0°C | 0% | 0hPa | 0V | 00:00:00 | 00:00:00 | 00:00:00 | |
| AKAW682 | 2026-08-31 11:52:34 | 50.13263 | 21.37362 | 80° | 115km/h | 12414m | 5.4m/s | 0°C | 0% | 0hPa | 0V | 00:00:00 | 00:00:00 | 00:00:00 | |
| SP9KGR-15 | 2026-08-31 11:52:29 | 50.13236 | 21.37138 | 83° | 108km/h | 12394m | 2.5m/s | 0°C | 0% | 0hPa | 0V | 00:00:00 | 00:00:00 | 00:00:00 | |
| MIELECB | 2026-08-31 11:52:28 | 50.13233 | 21.37097 | 85° | 102km/h | 12390m | 7.1m/s | 0°C | 0% | 0hPa | 0V | 00:00:00 | 00:00:00 | 00:00:00 | |
| SQ9PSP-11 | 2026-08-31 11:52:25 | 50.13222 | 21.36974 | 80° | 106km/h | 12370m | 7.1m/s | 0°C | 0% | 0hPa | 0V | 00:00:00 | 00:00:00 | 00:00:00 | |
| AKAW68 | 2026-08-31 11:52:23 | 50.13211 | 21.36891 | 79° | 115km/h | 12358m | 8.5m/s | 0°C | 0% | 0hPa | 0V | 00:00:00 | 00:00:00 | 00:00:00 | |
| MIELECB | 2026-08-31 11:52:18 | 50.13192 | 21.36677 | 81° | 102km/h | 12329m | 6.6m/s | 0°C | 0% | 0hPa | 0V | 00:00:00 | 00:00:00 | 00:00:00 | |
| SP9KGR-15 | 2026-08-31 11:52:14 | 50.13179 | 21.36512 | 84° | 110km/h | 12305m | 3.5m/s | 0°C | 0% | 0hPa | 0V | 00:00:00 | 00:00:00 | 00:00:00 | |
| MIELECB | 2026-08-31 11:52:13 | 50.13175 | 21.36469 | 85° | 110km/h | 12300m | 6.3m/s | 0°C | 0% | 0hPa | 0V | 00:00:00 | 00:00:00 | 00:00:00 | |
| SQ9PSP-11 | 2026-08-31 11:52:10 | 50.13169 | 21.36341 | 84° | 111km/h | 12283m | 6.1m/s | 0°C | 0% | 0hPa | 0V | 00:00:00 | 00:00:00 | 00:00:00 | |
| MIELECB | 2026-08-31 11:52:07 | 50.13160 | 21.36208 | 86° | 113km/h | 12269m | 5.1m/s | 0°C | 0% | 0hPa | 0V | 00:00:00 | 00:00:00 | 00:00:00 | |
| AKAW68 | 2026-08-31 11:52:02 | 50.13145 | 21.36008 | 85° | 97km/h | 12239m | 7.1m/s | 0°C | 0% | 0hPa | 0V | 00:00:00 | 00:00:00 | 00:00:00 | |
| SP9KGR-15 | 2026-08-31 11:51:57 | 50.13131 | 21.35792 | 87° | 117km/h | 12214m | 7.5m/s | 0°C | 0% | 0hPa | 0V | 00:00:00 | 00:00:00 | 00:00:00 | |
| MIELECB | 2026-08-31 11:51:55 | 50.13127 | 21.35708 | 88° | 100km/h | 12203m | 3.4m/s | 0°C | 0% | 0hPa | 0V | 00:00:00 | 00:00:00 | 00:00:00 | |
| AKAW682 | 2026-08-31 11:51:53 | 50.13123 | 21.35630 | 85° | 99km/h | 12193m | 7.1m/s | 0°C | 0% | 0hPa | 0V | 00:00:00 | 00:00:00 | 00:00:00 | |
| MIELECB | 2026-08-31 11:51:49 | 50.13112 | 21.35461 | 87° | 113km/h | 12172m | 5.1m/s | 0°C | 0% | 0hPa | 0V | 00:00:00 | 00:00:00 | 00:00:00 | |
| MIELECB | 2026-08-31 11:51:42 | 50.13096 | 21.35170 | 84° | 108km/h | 12137m | 2.9m/s | 0°C | 0% | 0hPa | 0V | 00:00:00 | 00:00:00 | 00:00:00 | |
| AKAW68 | 2026-08-31 11:51:41 | 50.13092 | 21.35127 | 84° | 110km/h | 12133m | 5.7m/s | 0°C | 0% | 0hPa | 0V | 00:00:00 | 00:00:00 | 00:00:00 | |
| SQ9PSP-11 | 2026-08-31 11:51:40 | 50.13089 | 21.35085 | 84° | 108km/h | 12126m | 7.8m/s | 0°C | 0% | 0hPa | 0V | 00:00:00 | 00:00:00 | 00:00:00 | |
| MIELECB | 2026-08-31 11:51:37 | 50.13076 | 21.34958 | 84° | 110km/h | 12109m | 4.6m/s | 0°C | 0% | 0hPa | 0V | 00:00:00 | 00:00:00 | 00:00:00 | |
| AKAW682 | 2026-08-31 11:51:32 | 50.13058 | 21.34753 | 80° | 108km/h | 12079m | 7.3m/s | 0°C | 0% | 0hPa | 0V | 00:00:00 | 00:00:00 | 00:00:00 | |
| MIELECB | 2026-08-31 11:51:31 | 50.13053 | 21.34711 | 81° | 108km/h | 12073m | 3.8m/s | 0°C | 0% | 0hPa | 0V | 00:00:00 | 00:00:00 | 00:00:00 | |
| MIELECB | 2026-08-31 11:51:26 | 50.13035 | 21.34501 | 86° | 100km/h | 12048m | 3.3m/s | 0°C | 0% | 0hPa | 0V | 00:00:00 | 00:00:00 | 00:00:00 | |
| SQ9PSP-11 | 2026-08-31 11:51:25 | 50.13033 | 21.34462 | 86° | 102km/h | 12043m | 5.8m/s | 0°C | 0% | 0hPa | 0V | 00:00:00 | 00:00:00 | 00:00:00 | |
| AKAW68 | 2026-08-31 11:51:20 | 50.13015 | 21.34259 | 81° | 102km/h | 12014m | 4.4m/s | 0°C | 0% | 0hPa | 0V | 00:00:00 | 00:00:00 | 00:00:00 | |
| MIELECB | 2026-08-31 11:51:15 | 50.12997 | 21.34061 | 86° | 111km/h | 11987m | 4.3m/s | 0°C | 0% | 0hPa | 0V | 00:00:00 | 00:00:00 | 00:00:00 | |
| AKAW682 | 2026-08-31 11:51:13 | 50.12992 | 21.33930 | 86° | 111km/h | 11973m | 4.9m/s | 0°C | 0% | 0hPa | 0V | 00:00:00 | 00:00:00 | 00:00:00 | |
| SP9KGR-15 | 2026-08-31 11:51:09 | 50.12982 | 21.33810 | 81° | 97km/h | 11957m | 5.7m/s | 0°C | 0% | 0hPa | 0V | 00:00:00 | 00:00:00 | 00:00:00 | |
| MIELECB | 2026-08-31 11:51:03 | 50.12961 | 21.33575 | 86° | 108km/h | 11927m | 4.2m/s | 0°C | 0% | 0hPa | 0V | 00:00:00 | 00:00:00 | 00:00:00 | |
| AKAW68 | 2026-08-31 11:50:59 | 50.12947 | 21.33413 | 84° | 104km/h | 11903m | 6.0m/s | 0°C | 0% | 0hPa | 0V | 00:00:00 | 00:00:00 | 00:00:00 | |
| MIELECB | 2026-08-31 11:50:58 | 50.12943 | 21.33372 | 84° | 104km/h | 11896m | 7.0m/s | 0°C | 0% | 0hPa | 0V | 00:00:00 | 00:00:00 | 00:00:00 | |
| SQ9PSP-11 | 2026-08-31 11:50:54 | 50.12931 | 21.33210 | 83° | 102km/h | 11873m | 4.5m/s | 0°C | 0% | 0hPa | 0V | 00:00:00 | 00:00:00 | 00:00:00 | |
| SP9KGR-15 | 2026-08-31 11:50:52 | 50.12923 | 21.33129 | 85° | 104km/h | 11863m | 6.2m/s | 0°C | 0% | 0hPa | 0V | 00:00:00 | 00:00:00 | 00:00:00 | |
| AKAW682 | 2026-08-31 11:50:51 | 50.12920 | 21.33087 | 85° | 106km/h | 11859m | 3.1m/s | 0°C | 0% | 0hPa | 0V | 00:00:00 | 00:00:00 | 00:00:00 | |
| MIELECB | 2026-08-31 11:50:47 | 50.12904 | 21.32927 | 81° | 102km/h | 11839m | 5.0m/s | 0°C | 0% | 0hPa | 0V | 00:00:00 | 00:00:00 | 00:00:00 | |
| AKAW68 | 2026-08-31 11:50:39 | 50.12869 | 21.32594 | 83° | 102km/h | 11799m | 6.4m/s | 0°C | 0% | 0hPa | 0V | 00:00:00 | 00:00:00 | 00:00:00 | |
| SP9KGR-15 | 2026-08-31 11:50:37 | 50.12864 | 21.32513 | 83° | 102km/h | 11787m | 7.2m/s | 0°C | 0% | 0hPa | 0V | 00:00:00 | 00:00:00 | 00:00:00 | |
| MIELECB | 2026-08-31 11:50:36 | 50.12859 | 21.32474 | 80° | 100km/h | 11782m | 4.2m/s | 0°C | 0% | 0hPa | 0V | 00:00:00 | 00:00:00 | 00:00:00 | |
| MIELECB | 2026-08-31 11:50:31 | 50.12836 | 21.32230 | 82° | 106km/h | 11753m | 2.5m/s | 0°C | 0% | 0hPa | 0V | 00:00:00 | 00:00:00 | 00:00:00 | |
| AKAW682 | 2026-08-31 11:50:29 | 50.12831 | 21.32188 | 83° | 108km/h | 11750m | 4.3m/s | 0°C | 0% | 0hPa | 0V | 00:00:00 | 00:00:00 | 00:00:00 | |
| MIELECB | 2026-08-31 11:50:24 | 50.12821 | 21.31982 | 87° | 102km/h | 11723m | 4.2m/s | 0°C | 0% | 0hPa | 0V | 00:00:00 | 00:00:00 | 00:00:00 | |
| SQ9PSP-11 | 2026-08-31 11:50:23 | 50.12819 | 21.31942 | 84° | 102km/h | 11717m | 7.1m/s | 0°C | 0% | 0hPa | 0V | 00:00:00 | 00:00:00 | 00:00:00 | |
| SP9KGR-15 | 2026-08-31 11:50:21 | 50.12810 | 21.31858 | 79° | 113km/h | 11707m | 3.1m/s | 0°C | 0% | 0hPa | 0V | 00:00:00 | 00:00:00 | 00:00:00 | |
| MIELECB | 2026-08-31 11:50:19 | 50.12798 | 21.31772 | 80° | 110km/h | 11698m | 8.8m/s | 0°C | 0% | 0hPa | 0V | 00:00:00 | 00:00:00 | 00:00:00 | |
| AKAW68 | 2026-08-31 11:50:18 | 50.12794 | 21.31731 | 87° | 100km/h | 11691m | 5.2m/s | 0°C | 0% | 0hPa | 0V | 00:00:00 | 00:00:00 | 00:00:00 | |
| MIELECB | 2026-08-31 11:50:13 | 50.12784 | 21.31533 | 80° | 108km/h | 11668m | 3.8m/s | 0°C | 0% | 0hPa | 0V | 00:00:00 | 00:00:00 | 00:00:00 | |
| AKAW682 | 2026-08-31 11:50:10 | 50.12767 | 21.31369 | 83° | 111km/h | 11648m | 5.8m/s | 0°C | 0% | 0hPa | 0V | 00:00:00 | 00:00:00 | 00:00:00 | |
| SQ9PSP-11 | 2026-08-31 11:50:09 | 50.12763 | 21.31326 | 83° | 108km/h | 11640m | 9.2m/s | 0°C | 0% | 0hPa | 0V | 00:00:00 | 00:00:00 | 00:00:00 | |
| MIELECB | 2026-08-31 11:50:08 | 50.12763 | 21.31326 | 83° | 108km/h | 11640m | 9.2m/s | 0°C | 0% | 0hPa | 0V | 00:00:00 | 00:00:00 | 00:00:00 | |
| SP9KGR-15 | 2026-08-31 11:50:05 | 50.12749 | 21.31206 | 81° | 104km/h | 11621m | 5.5m/s | 0°C | 0% | 0hPa | 0V | 00:00:00 | 00:00:00 | 00:00:00 | |
| AKAW68 | 2026-08-31 11:49:58 | 50.12722 | 21.30934 | 81° | 100km/h | 11585m | 5.8m/s | 0°C | 0% | 0hPa | 0V | 00:00:00 | 00:00:00 | 00:00:00 | |
| MIELECB | 2026-08-31 11:49:57 | 50.12718 | 21.30894 | 83° | 104km/h | 11580m | 5.9m/s | 0°C | 0% | 0hPa | 0V | 00:00:00 | 00:00:00 | 00:00:00 | |
| SQ9PSP-11 | 2026-08-31 11:49:52 | 50.12703 | 21.30683 | 84° | 102km/h | 11556m | 3.6m/s | 0°C | 0% | 0hPa | 0V | 00:00:00 | 00:00:00 | 00:00:00 | |
| MIELECB | 2026-08-31 11:49:51 | 50.12701 | 21.30643 | 87° | 102km/h | 11550m | 7.7m/s | 0°C | 0% | 0hPa | 0V | 00:00:00 | 00:00:00 | 00:00:00 | |
| SP9KGR-15 | 2026-08-31 11:49:49 | 50.12697 | 21.30560 | 88° | 106km/h | 11540m | 4.9m/s | 0°C | 0% | 0hPa | 0V | 00:00:00 | 00:00:00 | 00:00:00 | |
| AKAW682 | 2026-08-31 11:49:48 | 50.12695 | 21.30518 | 85° | 110km/h | 11534m | 7.3m/s | 0°C | 0% | 0hPa | 0V | 00:00:00 | 00:00:00 | 00:00:00 | |
| MIELECB | 2026-08-31 11:49:46 | 50.12688 | 21.30432 | 83° | 108km/h | 11523m | 5.8m/s | 0°C | 0% | 0hPa | 0V | 00:00:00 | 00:00:00 | 00:00:00 | |
| MIELECB | 2026-08-31 11:49:41 | 50.12676 | 21.30235 | 84° | 95km/h | 11494m | 7.4m/s | 0°C | 0% | 0hPa | 0V | 00:00:00 | 00:00:00 | 00:00:00 | |
| AKAW68 | 2026-08-31 11:49:37 | 50.12660 | 21.30073 | 80° | 104km/h | 11473m | 4.2m/s | 0°C | 0% | 0hPa | 0V | 00:00:00 | 00:00:00 | 00:00:00 | |
| MIELECB | 2026-08-31 11:49:35 | 50.12649 | 21.29996 | 80° | 97km/h | 11463m | 7.2m/s | 0°C | 0% | 0hPa | 0V | 00:00:00 | 00:00:00 | 00:00:00 | |
| SP9KGR-15 | 2026-08-31 11:49:33 | 50.12640 | 21.29920 | 80° | 97km/h | 11450m | 10.2m/s | 0°C | 0% | 0hPa | 0V | 00:00:00 | 00:00:00 | 00:00:00 | |
| MIELECB | 2026-08-31 11:49:30 | 50.12630 | 21.29770 | 88° | 102km/h | 11425m | 5.5m/s | 0°C | 0% | 0hPa | 0V | 00:00:00 | 00:00:00 | 00:00:00 | |
| AKAW682 | 2026-08-31 11:49:27 | 50.12628 | 21.29689 | 89° | 99km/h | 11416m | 2.8m/s | 0°C | 0% | 0hPa | 0V | 00:00:00 | 00:00:00 | 00:00:00 | |
| MIELECB | 2026-08-31 11:49:23 | 50.12621 | 21.29529 | 82° | 108km/h | 11391m | 7.5m/s | 0°C | 0% | 0hPa | 0V | 00:00:00 | 00:00:00 | 00:00:00 | |
| SQ9PSP-11 | 2026-08-31 11:49:21 | 50.12611 | 21.29449 | 79° | 102km/h | 11381m | 6.3m/s | 0°C | 0% | 0hPa | 0V | 00:00:00 | 00:00:00 | 00:00:00 | |
| SQ9EZE-12 | 2026-08-31 11:49:20 | 50.12605 | 21.29410 | 76° | 99km/h | 11376m | 3.7m/s | 0°C | 0% | 0hPa | 0V | 00:00:00 | 00:00:00 | 00:00:00 | |
| MIELECB | 2026-08-31 11:49:18 | 50.12593 | 21.29334 | 81° | 102km/h | 11364m | 5.9m/s | 0°C | 0% | 0hPa | 0V | 00:00:00 | 00:00:00 | 00:00:00 | |
| SP9KGR-15 | 2026-08-31 11:49:17 | 50.12589 | 21.29294 | 84° | 104km/h | 11358m | 7.2m/s | 0°C | 0% | 0hPa | 0V | 00:00:00 | 00:00:00 | 00:00:00 | |
| AKAW68 | 2026-08-31 11:49:16 | 50.12587 | 21.29253 | 89° | 108km/h | 11353m | 3.1m/s | 0°C | 0% | 0hPa | 0V | 00:00:00 | 00:00:00 | 00:00:00 | |
| MIELECB | 2026-08-31 11:49:12 | 50.12573 | 21.29087 | 81° | 102km/h | 11334m | 6.8m/s | 0°C | 0% | 0hPa | 0V | 00:00:00 | 00:00:00 | 00:00:00 | |
| MIELECB | 2026-08-31 11:49:07 | 50.12556 | 21.28894 | 88° | 99km/h | 11302m | 5.2m/s | 0°C | 0% | 0hPa | 0V | 00:00:00 | 00:00:00 | 00:00:00 | |
| AKAW682 | 2026-08-31 11:49:06 | 50.12554 | 21.28856 | 89° | 97km/h | 11295m | 9.3m/s | 0°C | 0% | 0hPa | 0V | 00:00:00 | 00:00:00 | 00:00:00 | |
| SQ9PSP-11 | 2026-08-31 11:49:05 | 50.12552 | 21.28818 | 83° | 97km/h | 11288m | 4.6m/s | 0°C | 0% | 0hPa | 0V | 00:00:00 | 00:00:00 | 00:00:00 | |
| MIELECB | 2026-08-31 11:49:01 | 50.12538 | 21.28660 | 84° | 97km/h | 11268m | 3.8m/s | 0°C | 0% | 0hPa | 0V | 00:00:00 | 00:00:00 | 00:00:00 | |
| SQ9EZE-12 | 2026-08-31 11:48:59 | 50.12531 | 21.28583 | 85° | 102km/h | 11259m | 5.3m/s | 0°C | 0% | 0hPa | 0V | 00:00:00 | 00:00:00 | 00:00:00 | |
| MIELECB | 2026-08-31 11:48:56 | 50.12518 | 21.28461 | 82° | 110km/h | 11242m | 7.1m/s | 0°C | 0% | 0hPa | 0V | 00:00:00 | 00:00:00 | 00:00:00 | |
| MIELECB | 2026-08-31 11:48:50 | 50.12497 | 21.28226 | 79° | 102km/h | 11213m | 6.7m/s | 0°C | 0% | 0hPa | 0V | 00:00:00 | 00:00:00 | 00:00:00 | |
| SQ9PSP-11 | 2026-08-31 11:48:49 | 50.12492 | 21.28186 | 79° | 102km/h | 11208m | 4.4m/s | 0°C | 0% | 0hPa | 0V | 00:00:00 | 00:00:00 | 00:00:00 | |
| AKAW682 | 2026-08-31 11:48:46 | 50.12479 | 21.28068 | 84° | 102km/h | 11193m | 3.5m/s | 0°C | 0% | 0hPa | 0V | 00:00:00 | 00:00:00 | 00:00:00 | |
| MIELECB | 2026-08-31 11:48:45 | 50.12476 | 21.28029 | 83° | 97km/h | 11190m | 4.0m/s | 0°C | 0% | 0hPa | 0V | 00:00:00 | 00:00:00 | 00:00:00 | |
| SQ9EZE-12 | 2026-08-31 11:48:43 | 50.12466 | 21.27954 | 80° | 95km/h | 11181m | 4.0m/s | 0°C | 0% | 0hPa | 0V | 00:00:00 | 00:00:00 | 00:00:00 | |
| MIELECB | 2026-08-31 11:48:39 | 50.12452 | 21.27799 | 82° | 106km/h | 11163m | 5.8m/s | 0°C | 0% | 0hPa | 0V | 00:00:00 | 00:00:00 | 00:00:00 | |
| AKAW68 | 2026-08-31 11:48:35 | 50.12433 | 21.27636 | 83° | 106km/h | 11143m | 4.5m/s | 0°C | 0% | 0hPa | 0V | 00:00:00 | 00:00:00 | 00:00:00 | |
| MIELECB | 2026-08-31 11:48:34 | 50.12429 | 21.27596 | 82° | 102km/h | 11139m | 4.8m/s | 0°C | 0% | 0hPa | 0V | 00:00:00 | 00:00:00 | 00:00:00 | |
| MIELECB | 2026-08-31 11:48:28 | 50.12406 | 21.27376 | 82° | 97km/h | 11101m | 9.1m/s | 0°C | 0% | 0hPa | 0V | 00:00:00 | 00:00:00 | 00:00:00 | |
| SQ9EZE-12 | 2026-08-31 11:48:27 | 50.12402 | 21.27338 | 82° | 99km/h | 11094m | 5.6m/s | 0°C | 0% | 0hPa | 0V | 00:00:00 | 00:00:00 | 00:00:00 | |
| AKAW682 | 2026-08-31 11:48:25 | 50.12393 | 21.27262 | 79° | 102km/h | 11082m | 5.9m/s | 0°C | 0% | 0hPa | 0V | 00:00:00 | 00:00:00 | 00:00:00 | |
| MIELECB | 2026-08-31 11:48:23 | 50.12383 | 21.27180 | 80° | 108km/h | 11070m | 6.6m/s | 0°C | 0% | 0hPa | 0V | 00:00:00 | 00:00:00 | 00:00:00 | |
| MIELECB | 2026-08-31 11:48:18 | 50.12365 | 21.26992 | 79° | 91km/h | 11042m | 6.2m/s | 0°C | 0% | 0hPa | 0V | 00:00:00 | 00:00:00 | 00:00:00 | |
| AKAW68 | 2026-08-31 11:48:15 | 50.12352 | 21.26883 | 84° | 100km/h | 11026m | 5.1m/s | 0°C | 0% | 0hPa | 0V | 00:00:00 | 00:00:00 | 00:00:00 | |
| MIELECB | 2026-08-31 11:48:12 | 50.12341 | 21.26758 | 80° | 110km/h | 11011m | 4.6m/s | 0°C | 0% | 0hPa | 0V | 00:00:00 | 00:00:00 | 00:00:00 | |
| MIELECB | 2026-08-31 11:48:07 | 50.12317 | 21.26576 | 80° | 89km/h | 10989m | 6.2m/s | 0°C | 0% | 0hPa | 0V | 00:00:00 | 00:00:00 | 00:00:00 | |
| AKAW682 | 2026-08-31 11:48:05 | 50.12308 | 21.26501 | 82° | 100km/h | 10980m | 3.2m/s | 0°C | 0% | 0hPa | 0V | 00:00:00 | 00:00:00 | 00:00:00 | |
| SQ9EZE-12 | 2026-08-31 11:48:04 | 50.12305 | 21.26462 | 83° | 102km/h | 10976m | 5.3m/s | 0°C | 0% | 0hPa | 0V | 00:00:00 | 00:00:00 | 00:00:00 | |
| SQ9PSP-11 | 2026-08-31 11:48:03 | 50.12295 | 21.26384 | 75° | 97km/h | 10963m | 4.9m/s | 0°C | 0% | 0hPa | 0V | 00:00:00 | 00:00:00 | 00:00:00 | |
| MIELECB | 2026-08-31 11:48:01 | 50.12288 | 21.26347 | 75° | 99km/h | 10957m | 7.8m/s | 0°C | 0% | 0hPa | 0V | 00:00:00 | 00:00:00 | 00:00:00 | |
| SP9KGR-15 | 2026-08-31 11:47:57 | 50.12270 | 21.26202 | 83° | 89km/h | 10930m | 7.8m/s | 0°C | 0% | 0hPa | 0V | 00:00:00 | 00:00:00 | 00:00:00 | |
| AKAW68 | 2026-08-31 11:47:55 | 50.12262 | 21.26130 | 82° | 95km/h | 10919m | 8.0m/s | 0°C | 0% | 0hPa | 0V | 00:00:00 | 00:00:00 | 00:00:00 | |
| MIELECB | 2026-08-31 11:47:49 | 50.12240 | 21.25889 | 82° | 102km/h | 10885m | 5.6m/s | 0°C | 0% | 0hPa | 0V | 00:00:00 | 00:00:00 | 00:00:00 | |
| SQ9PSP-11 | 2026-08-31 11:47:47 | 50.12232 | 21.25812 | 81° | 91km/h | 10869m | 7.0m/s | 0°C | 0% | 0hPa | 0V | 00:00:00 | 00:00:00 | 00:00:00 | |
| AKAW682 | 2026-08-31 11:47:45 | 50.12225 | 21.25740 | 83° | 89km/h | 10857m | 5.2m/s | 0°C | 0% | 0hPa | 0V | 00:00:00 | 00:00:00 | 00:00:00 | |
| MIELECB | 2026-08-31 11:47:43 | 50.12219 | 21.25673 | 83° | 86km/h | 10842m | 5.4m/s | 0°C | 0% | 0hPa | 0V | 00:00:00 | 00:00:00 | 00:00:00 | |
| SQ9EZE-12 | 2026-08-31 11:47:37 | 50.12189 | 21.25441 | 83° | 108km/h | 10809m | 5.9m/s | 0°C | 0% | 0hPa | 0V | 00:00:00 | 00:00:00 | 00:00:00 | |
| SP9KGR-15 | 2026-08-31 11:47:36 | 50.12186 | 21.25399 | 84° | 104km/h | 10802m | 9.2m/s | 0°C | 0% | 0hPa | 0V | 00:00:00 | 00:00:00 | 00:00:00 | |
| AKAW68 | 2026-08-31 11:47:34 | 50.12180 | 21.25322 | 84° | 93km/h | 10788m | 8.5m/s | 0°C | 0% | 0hPa | 0V | 00:00:00 | 00:00:00 | 00:00:00 | |
| SQ9PSP-11 | 2026-08-31 11:47:32 | 50.12171 | 21.25253 | 78° | 93km/h | 10776m | 4.6m/s | 0°C | 0% | 0hPa | 0V | 00:00:00 | 00:00:00 | 00:00:00 | |
| MIELECB | 2026-08-31 11:47:31 | 50.12166 | 21.25217 | 77° | 93km/h | 10770m | 5.8m/s | 0°C | 0% | 0hPa | 0V | 00:00:00 | 00:00:00 | 00:00:00 | |
| MIELECB | 2026-08-31 11:47:25 | 50.12145 | 21.24996 | 84° | 97km/h | 10738m | 5.9m/s | 0°C | 0% | 0hPa | 0V | 00:00:00 | 00:00:00 | 00:00:00 | |
| AKAW682 | 2026-08-31 11:47:24 | 50.12142 | 21.24958 | 83° | 95km/h | 10734m | 3.2m/s | 0°C | 0% | 0hPa | 0V | 00:00:00 | 00:00:00 | 00:00:00 | |
| MIELECB | 2026-08-31 11:47:20 | 50.12118 | 21.24806 | 79° | 106km/h | 10712m | 3.2m/s | 0°C | 0% | 0hPa | 0V | 00:00:00 | 00:00:00 | 00:00:00 | |
| SQ9EZE-12 | 2026-08-31 11:47:18 | 50.12106 | 21.24684 | 84° | 104km/h | 10698m | 4.9m/s | 0°C | 0% | 0hPa | 0V | 00:00:00 | 00:00:00 | 00:00:00 | |
| MIELECB | 2026-08-31 11:47:14 | 50.12097 | 21.24569 | 89° | 95km/h | 10682m | 5.3m/s | 0°C | 0% | 0hPa | 0V | 00:00:00 | 00:00:00 | 00:00:00 | |
| AKAW68 | 2026-08-31 11:47:13 | 50.12095 | 21.24532 | 88° | 93km/h | 10676m | 7.8m/s | 0°C | 0% | 0hPa | 0V | 00:00:00 | 00:00:00 | 00:00:00 | |
| MIELECB | 2026-08-31 11:47:08 | 50.12083 | 21.24345 | 83° | 99km/h | 10647m | 6.0m/s | 0°C | 0% | 0hPa | 0V | 00:00:00 | 00:00:00 | 00:00:00 | |
| AKAW682 | 2026-08-31 11:47:02 | 50.12056 | 21.24115 | 83° | 99km/h | 10611m | 8.2m/s | 0°C | 0% | 0hPa | 0V | 00:00:00 | 00:00:00 | 00:00:00 | |
| MIELECB | 2026-08-31 11:47:01 | 50.12053 | 21.24076 | 84° | 104km/h | 10604m | 5.9m/s | 0°C | 0% | 0hPa | 0V | 00:00:00 | 00:00:00 | 00:00:00 | |
| SQ9EZE-12 | 2026-08-31 11:47:00 | 50.12047 | 21.23996 | 82° | 100km/h | 10596m | 5.7m/s | 0°C | 0% | 0hPa | 0V | 00:00:00 | 00:00:00 | 00:00:00 | |
| SP9KGR-15 | 2026-08-31 11:46:58 | 50.12042 | 21.23958 | 79° | 95km/h | 10591m | 4.7m/s | 0°C | 0% | 0hPa | 0V | 00:00:00 | 00:00:00 | 00:00:00 | |
| MIELECB | 2026-08-31 11:46:55 | 50.12028 | 21.23856 | 80° | 89km/h | 10574m | 6.4m/s | 0°C | 0% | 0hPa | 0V | 00:00:00 | 00:00:00 | 00:00:00 | |
| AKAW68 | 2026-08-31 11:46:53 | 50.12019 | 21.23782 | 81° | 100km/h | 10567m | 6.3m/s | 0°C | 0% | 0hPa | 0V | 00:00:00 | 00:00:00 | 00:00:00 | |
| MIELECB | 2026-08-31 11:46:49 | 50.12001 | 21.23628 | 81° | 97km/h | 10542m | 6.1m/s | 0°C | 0% | 0hPa | 0V | 00:00:00 | 00:00:00 | 00:00:00 | |
| SQ9PSP-11 | 2026-08-31 11:46:46 | 50.11990 | 21.23514 | 80° | 97km/h | 10521m | 7.6m/s | 0°C | 0% | 0hPa | 0V | 00:00:00 | 00:00:00 | 00:00:00 | |
| MIELECB | 2026-08-31 11:46:44 | 50.11976 | 21.23440 | 72° | 100km/h | 10510m | 5.8m/s | 0°C | 0% | 0hPa | 0V | 00:00:00 | 00:00:00 | 00:00:00 | |
| AKAW682 | 2026-08-31 11:46:42 | 50.11959 | 21.23362 | 77° | 102km/h | 10498m | 4.9m/s | 0°C | 0% | 0hPa | 0V | 00:00:00 | 00:00:00 | 00:00:00 | |
| MIELECB | 2026-08-31 11:46:39 | 50.11946 | 21.23247 | 85° | 99km/h | 10483m | 3.5m/s | 0°C | 0% | 0hPa | 0V | 00:00:00 | 00:00:00 | 00:00:00 | |
| AKAW68 | 2026-08-31 11:46:33 | 50.11919 | 21.23013 | 78° | 99km/h | 10451m | 3.9m/s | 0°C | 0% | 0hPa | 0V | 00:00:00 | 00:00:00 | 00:00:00 | |
| SQ9PSP-11 | 2026-08-31 11:46:31 | 50.11908 | 21.22941 | 77° | 93km/h | 10442m | 4.9m/s | 0°C | 0% | 0hPa | 0V | 00:00:00 | 00:00:00 | 00:00:00 | |
| MIELECB | 2026-08-31 11:46:28 | 50.11886 | 21.22792 | 74° | 100km/h | 10416m | 3.4m/s | 0°C | 0% | 0hPa | 0V | 00:00:00 | 00:00:00 | 00:00:00 | |
| SP9KGR-15 | 2026-08-31 11:46:26 | 50.11879 | 21.22754 | 73° | 100km/h | 10411m | 6.4m/s | 0°C | 0% | 0hPa | 0V | 00:00:00 | 00:00:00 | 00:00:00 | |
| AKAW682 | 2026-08-31 11:46:21 | 50.11855 | 21.22569 | 84° | 97km/h | 10385m | 3.8m/s | 0°C | 0% | 0hPa | 0V | 00:00:00 | 00:00:00 | 00:00:00 | |
| SQ9EZE-12 | 2026-08-31 11:46:19 | 50.11850 | 21.22492 | 84° | 97km/h | 10375m | 2.6m/s | 0°C | 0% | 0hPa | 0V | 00:00:00 | 00:00:00 | 00:00:00 | |
| SQ9PSP-11 | 2026-08-31 11:46:16 | 50.11836 | 21.22374 | 76° | 111km/h | 10359m | 4.2m/s | 0°C | 0% | 0hPa | 0V | 00:00:00 | 00:00:00 | 00:00:00 | |
| MIELECB | 2026-08-31 11:46:15 | 50.11829 | 21.22333 | 77° | 108km/h | 10353m | 8.1m/s | 0°C | 0% | 0hPa | 0V | 00:00:00 | 00:00:00 | 00:00:00 | |
| AKAW68 | 2026-08-31 11:46:12 | 50.11814 | 21.22220 | 80° | 89km/h | 10337m | 3.7m/s | 0°C | 0% | 0hPa | 0V | 00:00:00 | 00:00:00 | 00:00:00 | |
| MIELECB | 2026-08-31 11:46:09 | 50.11805 | 21.22108 | 85° | 102km/h | 10320m | 6.3m/s | 0°C | 0% | 0hPa | 0V | 00:00:00 | 00:00:00 | 00:00:00 | |
| MIELECB | 2026-08-31 11:46:04 | 50.11778 | 21.21923 | 75° | 100km/h | 10294m | 4.0m/s | 0°C | 0% | 0hPa | 0V | 00:00:00 | 00:00:00 | 00:00:00 | |
| SQ9EZE-12 | 2026-08-31 11:46:03 | 50.11772 | 21.21885 | 79° | 99km/h | 10290m | 3.5m/s | 0°C | 0% | 0hPa | 0V | 00:00:00 | 00:00:00 | 00:00:00 | |
| AKAW682 | 2026-08-31 11:46:01 | 50.11766 | 21.21808 | 87° | 102km/h | 10279m | 8.1m/s | 0°C | 0% | 0hPa | 0V | 00:00:00 | 00:00:00 | 00:00:00 | |
| SQ9PSP-11 | 2026-08-31 11:46:00 | 50.11764 | 21.21768 | 87° | 100km/h | 10273m | 5.1m/s | 0°C | 0% | 0hPa | 0V | 00:00:00 | 00:00:00 | 00:00:00 | |
| MIELECB | 2026-08-31 11:45:58 | 50.11757 | 21.21692 | 77° | 97km/h | 10264m | 7.0m/s | 0°C | 0% | 0hPa | 0V | 00:00:00 | 00:00:00 | 00:00:00 | |
| SP9KGR-15 | 2026-08-31 11:45:54 | 50.11733 | 21.21536 | 82° | 104km/h | 10242m | 4.8m/s | 0°C | 0% | 0hPa | 0V | 00:00:00 | 00:00:00 | 00:00:00 | |
| MIELECB | 2026-08-31 11:45:53 | 50.11728 | 21.21497 | 81° | 97km/h | 10236m | 7.8m/s | 0°C | 0% | 0hPa | 0V | 00:00:00 | 00:00:00 | 00:00:00 | |
| AKAW68 | 2026-08-31 11:45:52 | 50.11724 | 21.21461 | 82° | 89km/h | 10229m | 5.0m/s | 0°C | 0% | 0hPa | 0V | 00:00:00 | 00:00:00 | 00:00:00 | |
| MIELECB | 2026-08-31 11:45:47 | 50.11709 | 21.21282 | 78° | 93km/h | 10204m | 4.4m/s | 0°C | 0% | 0hPa | 0V | 00:00:00 | 00:00:00 | 00:00:00 | |
| SQ9PSP-11 | 2026-08-31 11:45:44 | 50.11691 | 21.21176 | 78° | 89km/h | 10190m | 3.8m/s | 0°C | 0% | 0hPa | 0V | 00:00:00 | 00:00:00 | 00:00:00 | |
| AKAW682 | 2026-08-31 11:45:40 | 50.11677 | 21.21029 | 84° | 99km/h | 10169m | 7.1m/s | 0°C | 0% | 0hPa | 0V | 00:00:00 | 00:00:00 | 00:00:00 | |
| SP9KGR-15 | 2026-08-31 11:45:38 | 50.11669 | 21.20954 | 79° | 89km/h | 10159m | 6.9m/s | 0°C | 0% | 0hPa | 0V | 00:00:00 | 00:00:00 | 00:00:00 | |
| MIELECB | 2026-08-31 11:45:36 | 50.11660 | 21.20888 | 80° | 86km/h | 10148m | 4.2m/s | 0°C | 0% | 0hPa | 0V | 00:00:00 | 00:00:00 | 00:00:00 | |
| AKAW68 | 2026-08-31 11:45:31 | 50.11635 | 21.20705 | 77° | 110km/h | 10122m | 5.4m/s | 0°C | 0% | 0hPa | 0V | 00:00:00 | 00:00:00 | 00:00:00 | |
| MIELECB | 2026-08-31 11:45:30 | 50.11629 | 21.20663 | 80° | 110km/h | 10116m | 5.6m/s | 0°C | 0% | 0hPa | 0V | 00:00:00 | 00:00:00 | 00:00:00 | |
| SQ9PSP-11 | 2026-08-31 11:45:28 | 50.11621 | 21.20581 | 85° | 102km/h | 10106m | 4.8m/s | 0°C | 0% | 0hPa | 0V | 00:00:00 | 00:00:00 | 00:00:00 | |
| MIELECB | 2026-08-31 11:45:24 | 50.11603 | 21.20436 | 76° | 84km/h | 10086m | 3.9m/s | 0°C | 0% | 0hPa | 0V | 00:00:00 | 00:00:00 | 00:00:00 | |
| SP9KGR-15 | 2026-08-31 11:45:22 | 50.11592 | 21.20369 | 77° | 95km/h | 10075m | 4.1m/s | 0°C | 0% | 0hPa | 0V | 00:00:00 | 00:00:00 | 00:00:00 | |
| MIELECB | 2026-08-31 11:45:20 | 50.11578 | 21.20257 | 81° | 93km/h | 10061m | 4.4m/s | 0°C | 0% | 0hPa | 0V | 00:00:00 | 00:00:00 | 00:00:00 | |
| MIELECB | 2026-08-31 11:45:14 | 50.11549 | 21.20078 | 75° | 97km/h | 10035m | 3.6m/s | 0°C | 0% | 0hPa | 0V | 00:00:00 | 00:00:00 | 00:00:00 | |
| SQ9PSP-11 | 2026-08-31 11:45:12 | 50.11539 | 21.20004 | 85° | 95km/h | 10025m | 5.1m/s | 0°C | 0% | 0hPa | 0V | 00:00:00 | 00:00:00 | 00:00:00 | |
| AKAW68 | 2026-08-31 11:45:10 | 50.11537 | 21.19932 | 89° | 89km/h | 10017m | 4.7m/s | 0°C | 0% | 0hPa | 0V | 00:00:00 | 00:00:00 | 00:00:00 | |
| MIELECB | 2026-08-31 11:45:08 | 50.11530 | 21.19864 | 75° | 84km/h | 10008m | 6.4m/s | 0°C | 0% | 0hPa | 0V | 00:00:00 | 00:00:00 | 00:00:00 | |
| SP9KGR-15 | 2026-08-31 11:45:07 | 50.11524 | 21.19833 | 74° | 80km/h | 10003m | 3.8m/s | 0°C | 0% | 0hPa | 0V | 00:00:00 | 00:00:00 | 00:00:00 | |
| AKAW682 | 2026-08-31 11:44:58 | 50.11483 | 21.19509 | 78° | 84km/h | 9955m | 4.1m/s | 0°C | 0% | 0hPa | 0V | 00:00:00 | 00:00:00 | 00:00:00 | |
| MIELECB | 2026-08-31 11:44:57 | 50.11478 | 21.19477 | 76° | 82km/h | 9950m | 5.6m/s | 0°C | 0% | 0hPa | 0V | 00:00:00 | 00:00:00 | 00:00:00 | |
| SQ9PSP-11 | 2026-08-31 11:44:56 | 50.11473 | 21.19447 | 77° | 80km/h | 9944m | 5.6m/s | 0°C | 0% | 0hPa | 0V | 00:00:00 | 00:00:00 | 00:00:00 | |
| MIELECB | 2026-08-31 11:44:52 | 50.11456 | 21.19304 | 80° | 100km/h | 9926m | 6.0m/s | 0°C | 0% | 0hPa | 0V | 00:00:00 | 00:00:00 | 00:00:00 | |
| SP9KGR-15 | 2026-08-31 11:44:51 | 50.11451 | 21.19266 | 77° | 95km/h | 9920m | 4.9m/s | 0°C | 0% | 0hPa | 0V | 00:00:00 | 00:00:00 | 00:00:00 | |
| AKAW68 | 2026-08-31 11:44:50 | 50.11444 | 21.19230 | 73° | 93km/h | 9914m | 8.3m/s | 0°C | 0% | 0hPa | 0V | 00:00:00 | 00:00:00 | 00:00:00 | |
| MIELECB | 2026-08-31 11:44:47 | 50.11421 | 21.19092 | 84° | 93km/h | 9895m | 3.1m/s | 0°C | 0% | 0hPa | 0V | 00:00:00 | 00:00:00 | 00:00:00 | |
| MIELECB | 2026-08-31 11:44:41 | 50.11401 | 21.18931 | 75° | 84km/h | 9874m | 5.1m/s | 0°C | 0% | 0hPa | 0V | 00:00:00 | 00:00:00 | 00:00:00 | |
| SQ9PSP-11 | 2026-08-31 11:44:40 | 50.11395 | 21.18899 | 73° | 86km/h | 9867m | 7.9m/s | 0°C | 0% | 0hPa | 0V | 00:00:00 | 00:00:00 | 00:00:00 | |
| AKAW682 | 2026-08-31 11:44:37 | 50.11377 | 21.18787 | 83° | 102km/h | 9849m | 6.2m/s | 0°C | 0% | 0hPa | 0V | 00:00:00 | 00:00:00 | 00:00:00 | |
| MIELECB | 2026-08-31 11:44:36 | 50.11373 | 21.18748 | 86° | 99km/h | 9844m | 5.2m/s | 0°C | 0% | 0hPa | 0V | 00:00:00 | 00:00:00 | 00:00:00 | |
| SP9KGR-15 | 2026-08-31 11:44:35 | 50.11371 | 21.18710 | 86° | 93km/h | 9838m | 5.3m/s | 0°C | 0% | 0hPa | 0V | 00:00:00 | 00:00:00 | 00:00:00 | |
| MIELECB | 2026-08-31 11:44:30 | 50.11343 | 21.18535 | 73° | 97km/h | 9810m | 5.8m/s | 0°C | 0% | 0hPa | 0V | 00:00:00 | 00:00:00 | 00:00:00 | |
| AKAW68 | 2026-08-31 11:44:29 | 50.11336 | 21.18499 | 76° | 97km/h | 9805m | 4.4m/s | 0°C | 0% | 0hPa | 0V | 00:00:00 | 00:00:00 | 00:00:00 | |
| MIELECB | 2026-08-31 11:44:25 | 50.11324 | 21.18358 | 88° | 88km/h | 9787m | 6.7m/s | 0°C | 0% | 0hPa | 0V | 00:00:00 | 00:00:00 | 00:00:00 | |
| SQ9PSP-11 | 2026-08-31 11:44:24 | 50.11322 | 21.18324 | 83° | 86km/h | 9782m | 4.4m/s | 0°C | 0% | 0hPa | 0V | 00:00:00 | 00:00:00 | 00:00:00 | |
| MIELECB | 2026-08-31 11:44:20 | 50.11301 | 21.18187 | 76° | 93km/h | 9764m | 4.0m/s | 0°C | 0% | 0hPa | 0V | 00:00:00 | 00:00:00 | 00:00:00 | |
| AKAW682 | 2026-08-31 11:44:16 | 50.11282 | 21.18037 | 89° | 91km/h | 9739m | 5.7m/s | 0°C | 0% | 0hPa | 0V | 00:00:00 | 00:00:00 | 00:00:00 | |
| MIELECB | 2026-08-31 11:44:14 | 50.11281 | 21.17967 | 89° | 86km/h | 9730m | 5.4m/s | 0°C | 0% | 0hPa | 0V | 00:00:00 | 00:00:00 | 00:00:00 | |
| SQ9PSP-11 | 2026-08-31 11:44:09 | 50.11262 | 21.17795 | 78° | 88km/h | 9706m | 7.2m/s | 0°C | 0% | 0hPa | 0V | 00:00:00 | 00:00:00 | 00:00:00 | |
| AKAW68 | 2026-08-31 11:44:08 | 50.11257 | 21.17761 | 81° | 91km/h | 9700m | 5.0m/s | 0°C | 0% | 0hPa | 0V | 00:00:00 | 00:00:00 | 00:00:00 | |
| SP9KGR-15 | 2026-08-31 11:44:04 | 50.11242 | 21.17617 | 81° | 93km/h | 9683m | 5.0m/s | 0°C | 0% | 0hPa | 0V | 00:00:00 | 00:00:00 | 00:00:00 | |
| MIELECB | 2026-08-31 11:44:03 | 50.11238 | 21.17580 | 83° | 93km/h | 9678m | 5.8m/s | 0°C | 0% | 0hPa | 0V | 00:00:00 | 00:00:00 | 00:00:00 | |
| MIELECB | 2026-08-31 11:43:57 | 50.11210 | 21.17366 | 85° | 75km/h | 9640m | 7.2m/s | 0°C | 0% | 0hPa | 0V | 00:00:00 | 00:00:00 | 00:00:00 | |
| AKAW682 | 2026-08-31 11:43:56 | 50.11209 | 21.17336 | 86° | 80km/h | 9634m | 4.2m/s | 0°C | 0% | 0hPa | 0V | 00:00:00 | 00:00:00 | 00:00:00 | |
| SQ9PSP-11 | 2026-08-31 11:43:53 | 50.11201 | 21.17237 | 83° | 91km/h | 9621m | 6.6m/s | 0°C | 0% | 0hPa | 0V | 00:00:00 | 00:00:00 | 00:00:00 | |
| MIELECB | 2026-08-31 11:43:52 | 50.11197 | 21.17201 | 82° | 93km/h | 9616m | 3.9m/s | 0°C | 0% | 0hPa | 0V | 00:00:00 | 00:00:00 | 00:00:00 | |
| SP9KGR-15 | 2026-08-31 11:43:49 | 50.11179 | 21.17069 | 78° | 84km/h | 9597m | 4.3m/s | 0°C | 0% | 0hPa | 0V | 00:00:00 | 00:00:00 | 00:00:00 | |
| AKAW68 | 2026-08-31 11:43:48 | 50.11179 | 21.17069 | 78° | 84km/h | 9597m | 4.3m/s | 0°C | 0% | 0hPa | 0V | 00:00:00 | 00:00:00 | 00:00:00 | |
| MIELECB | 2026-08-31 11:43:46 | 50.11171 | 21.17004 | 81° | 84km/h | 9585m | 8.3m/s | 0°C | 0% | 0hPa | 0V | 00:00:00 | 00:00:00 | 00:00:00 | |
| MIELECB | 2026-08-31 11:43:41 | 50.11149 | 21.16834 | 81° | 88km/h | 9558m | 5.9m/s | 0°C | 0% | 0hPa | 0V | 00:00:00 | 00:00:00 | 00:00:00 | |
| SQ9PSP-11 | 2026-08-31 11:43:38 | 50.11142 | 21.16738 | 86° | 77km/h | 9541m | 6.1m/s | 0°C | 0% | 0hPa | 0V | 00:00:00 | 00:00:00 | 00:00:00 | |
| MIELECB | 2026-08-31 11:43:36 | 50.11137 | 21.16677 | 83° | 77km/h | 9532m | 5.8m/s | 0°C | 0% | 0hPa | 0V | 00:00:00 | 00:00:00 | 00:00:00 | |
| AKAW682 | 2026-08-31 11:43:31 | 50.11108 | 21.16511 | 76° | 91km/h | 9509m | 6.4m/s | 0°C | 0% | 0hPa | 0V | 00:00:00 | 00:00:00 | 00:00:00 | |
| MIELECB | 2026-08-31 11:43:30 | 50.11103 | 21.16477 | 79° | 88km/h | 9503m | 4.5m/s | 0°C | 0% | 0hPa | 0V | 00:00:00 | 00:00:00 | 00:00:00 | |
| AKAW68 | 2026-08-31 11:43:27 | 50.11093 | 21.16378 | 82° | 88km/h | 9487m | 6.3m/s | 0°C | 0% | 0hPa | 0V | 00:00:00 | 00:00:00 | 00:00:00 | |
| MIELECB | 2026-08-31 11:43:25 | 50.11084 | 21.16313 | 74° | 82km/h | 9477m | 4.0m/s | 0°C | 0% | 0hPa | 0V | 00:00:00 | 00:00:00 | 00:00:00 | |
| SQ9PSP-11 | 2026-08-31 11:43:23 | 50.11071 | 21.16250 | 74° | 86km/h | 9467m | 5.9m/s | 0°C | 0% | 0hPa | 0V | 00:00:00 | 00:00:00 | 00:00:00 | |
| MIELECB | 2026-08-31 11:43:19 | 50.11049 | 21.16127 | 79° | 80km/h | 9444m | 3.7m/s | 0°C | 0% | 0hPa | 0V | 00:00:00 | 00:00:00 | 00:00:00 | |
| MIELECB | 2026-08-31 11:43:14 | 50.11021 | 21.15969 | 75° | 88km/h | 9414m | 4.4m/s | 0°C | 0% | 0hPa | 0V | 00:00:00 | 00:00:00 | 00:00:00 | |
| AKAW682 | 2026-08-31 11:43:10 | 50.10998 | 21.15829 | 76° | 89km/h | 9396m | 3.6m/s | 0°C | 0% | 0hPa | 0V | 00:00:00 | 00:00:00 | 00:00:00 | |
| MIELECB | 2026-08-31 11:43:08 | 50.10987 | 21.15763 | 80° | 84km/h | 9386m | 3.0m/s | 0°C | 0% | 0hPa | 0V | 00:00:00 | 00:00:00 | 00:00:00 | |
| SQ9PSP-11 | 2026-08-31 11:43:07 | 50.10984 | 21.15732 | 79° | 78km/h | 9382m | 5.9m/s | 0°C | 0% | 0hPa | 0V | 00:00:00 | 00:00:00 | 00:00:00 | |
| AKAW68 | 2026-08-31 11:43:06 | 50.10979 | 21.15703 | 75° | 71km/h | 9377m | 4.0m/s | 0°C | 0% | 0hPa | 0V | 00:00:00 | 00:00:00 | 00:00:00 | |
| MIELECB | 2026-08-31 11:43:03 | 50.10959 | 21.15619 | 70° | 80km/h | 9360m | 6.7m/s | 0°C | 0% | 0hPa | 0V | 00:00:00 | 00:00:00 | 00:00:00 | |
| MIELECB | 2026-08-31 11:42:57 | 50.10937 | 21.15437 | 78° | 73km/h | 9327m | 5.1m/s | 0°C | 0% | 0hPa | 0V | 00:00:00 | 00:00:00 | 00:00:00 | |
| MIELECB | 2026-08-31 11:42:52 | 50.10916 | 21.15279 | 80° | 84km/h | 9298m | 4.9m/s | 0°C | 0% | 0hPa | 0V | 00:00:00 | 00:00:00 | 00:00:00 | |
| AKAW68 | 2026-08-31 11:42:46 | 50.10895 | 21.15106 | 77° | 84km/h | 9267m | 6.8m/s | 0°C | 0% | 0hPa | 0V | 00:00:00 | 00:00:00 | 00:00:00 | |
| AKAW682 | 2026-08-31 11:42:42 | 50.10879 | 21.14970 | 82° | 80km/h | 9242m | 5.8m/s | 0°C | 0% | 0hPa | 0V | 00:00:00 | 00:00:00 | 00:00:00 | |
| MIELECB | 2026-08-31 11:42:41 | 50.10875 | 21.14940 | 80° | 75km/h | 9238m | 3.7m/s | 0°C | 0% | 0hPa | 0V | 00:00:00 | 00:00:00 | 00:00:00 | |
| MIELECB | 2026-08-31 11:42:36 | 50.10849 | 21.14797 | 77° | 86km/h | 9208m | 5.2m/s | 0°C | 0% | 0hPa | 0V | 00:00:00 | 00:00:00 | 00:00:00 | |
| MIELECB | 2026-08-31 11:42:31 | 50.10831 | 21.14632 | 77° | 71km/h | 9181m | 3.3m/s | 0°C | 0% | 0hPa | 0V | 00:00:00 | 00:00:00 | 00:00:00 | |
| AKAW68 | 2026-08-31 11:42:27 | 50.10803 | 21.14490 | 79° | 80km/h | 9161m | 5.4m/s | 0°C | 0% | 0hPa | 0V | 00:00:00 | 00:00:00 | 00:00:00 | |
| SQ9PSP-11 | 2026-08-31 11:42:20 | 50.10769 | 21.14314 | 68° | 78km/h | 9128m | 3.5m/s | 0°C | 0% | 0hPa | 0V | 00:00:00 | 00:00:00 | 00:00:00 | |
| AKAW682 | 2026-08-31 11:42:18 | 50.10758 | 21.14254 | 81° | 77km/h | 9114m | 5.0m/s | 0°C | 0% | 0hPa | 0V | 00:00:00 | 00:00:00 | 00:00:00 | |
| MIELECB | 2026-08-31 11:42:14 | 50.10744 | 21.14133 | 78° | 78km/h | 9091m | 4.2m/s | 0°C | 0% | 0hPa | 0V | 00:00:00 | 00:00:00 | 00:00:00 | |
| MIELECB | 2026-08-31 11:42:08 | 50.10714 | 21.13963 | 76° | 78km/h | 9053m | 6.7m/s | 0°C | 0% | 0hPa | 0V | 00:00:00 | 00:00:00 | 00:00:00 | |
| AKAW68 | 2026-08-31 11:42:05 | 50.10698 | 21.13874 | 74° | 73km/h | 9037m | 3.4m/s | 0°C | 0% | 0hPa | 0V | 00:00:00 | 00:00:00 | 00:00:00 | |
| MIELECB | 2026-08-31 11:42:02 | 50.10687 | 21.13790 | 78° | 73km/h | 9022m | 4.8m/s | 0°C | 0% | 0hPa | 0V | 00:00:00 | 00:00:00 | 00:00:00 | |
| MIELECB | 2026-08-31 11:41:57 | 50.10664 | 21.13638 | 72° | 80km/h | 8988m | 10.6m/s | 0°C | 0% | 0hPa | 0V | 00:00:00 | 00:00:00 | 00:00:00 | |
| AKAW682 | 2026-08-31 11:41:53 | 50.10637 | 21.13534 | 78° | 71km/h | 8966m | 5.1m/s | 0°C | 0% | 0hPa | 0V | 00:00:00 | 00:00:00 | 00:00:00 | |
| MIELECB | 2026-08-31 11:41:51 | 50.10631 | 21.13477 | 85° | 77km/h | 8954m | 7.7m/s | 0°C | 0% | 0hPa | 0V | 00:00:00 | 00:00:00 | 00:00:00 | |
| OE3JTB-15 | 2026-08-31 11:41:50 | 50.10627 | 21.13447 | 72° | 78km/h | 8949m | 0.8m/s | 0°C | 0% | 0hPa | 0V | 00:00:00 | 00:00:00 | 00:00:00 | |
| SQ9PSP-11 | 2026-08-31 11:41:49 | 50.10620 | 21.13419 | 70° | 77km/h | 8946m | 5.9m/s | 0°C | 0% | 0hPa | 0V | 00:00:00 | 00:00:00 | 00:00:00 | |
| MIELECB | 2026-08-31 11:41:46 | 50.10599 | 21.13332 | 76° | 82km/h | 8927m | 3.1m/s | 0°C | 0% | 0hPa | 0V | 00:00:00 | 00:00:00 | 00:00:00 | |
| AKAW68 | 2026-08-31 11:41:44 | 50.10588 | 21.13271 | 73° | 78km/h | 8917m | 4.2m/s | 0°C | 0% | 0hPa | 0V | 00:00:00 | 00:00:00 | 00:00:00 | |
| MIELECB | 2026-08-31 11:41:40 | 50.10562 | 21.13162 | 70° | 80km/h | 8894m | 3.6m/s | 0°C | 0% | 0hPa | 0V | 00:00:00 | 00:00:00 | 00:00:00 | |
| MIELECB | 2026-08-31 11:41:34 | 50.10525 | 21.12970 | 73° | 82km/h | 8863m | 6.0m/s | 0°C | 0% | 0hPa | 0V | 00:00:00 | 00:00:00 | 00:00:00 | |
| SQ9PSP-11 | 2026-08-31 11:41:33 | 50.10518 | 21.12941 | 69° | 75km/h | 8857m | 5.6m/s | 0°C | 0% | 0hPa | 0V | 00:00:00 | 00:00:00 | 00:00:00 | |
| AKAW682 | 2026-08-31 11:41:32 | 50.10511 | 21.12914 | 70° | 71km/h | 8850m | 7.6m/s | 0°C | 0% | 0hPa | 0V | 00:00:00 | 00:00:00 | 00:00:00 | |
| MIELECB | 2026-08-31 11:41:29 | 50.10498 | 21.12828 | 81° | 84km/h | 8832m | 5.2m/s | 0°C | 0% | 0hPa | 0V | 00:00:00 | 00:00:00 | 00:00:00 | |
| SP9KGR-15 | 2026-08-31 11:41:25 | 50.10468 | 21.12699 | 66° | 82km/h | 8814m | 3.3m/s | 0°C | 0% | 0hPa | 0V | 00:00:00 | 00:00:00 | 00:00:00 | |
| MIELECB | 2026-08-31 11:41:22 | 50.10447 | 21.12617 | 72° | 75km/h | 8795m | 4.4m/s | 0°C | 0% | 0hPa | 0V | 00:00:00 | 00:00:00 | 00:00:00 | |
| AKAW68 | 2026-08-31 11:41:21 | 50.10441 | 21.12589 | 74° | 75km/h | 8789m | 7.9m/s | 0°C | 0% | 0hPa | 0V | 00:00:00 | 00:00:00 | 00:00:00 | |
| SQ9PSP-11 | 2026-08-31 11:41:18 | 50.10421 | 21.12499 | 68° | 89km/h | 8765m | 5.8m/s | 0°C | 0% | 0hPa | 0V | 00:00:00 | 00:00:00 | 00:00:00 | |
| MIELECB | 2026-08-31 11:41:16 | 50.10404 | 21.12431 | 69° | 95km/h | 8755m | 3.7m/s | 0°C | 0% | 0hPa | 0V | 00:00:00 | 00:00:00 | 00:00:00 | |
| AKAW682 | 2026-08-31 11:41:12 | 50.10371 | 21.12278 | 69° | 66km/h | 8730m | 4.3m/s | 0°C | 0% | 0hPa | 0V | 00:00:00 | 00:00:00 | 00:00:00 | |
| MIELECB | 2026-08-31 11:41:10 | 50.10364 | 21.12253 | 66° | 68km/h | 8725m | 5.7m/s | 0°C | 0% | 0hPa | 0V | 00:00:00 | 00:00:00 | 00:00:00 | |
| SP9KGR-15 | 2026-08-31 11:41:05 | 50.10324 | 21.12122 | 72° | 64km/h | 8695m | 4.7m/s | 0°C | 0% | 0hPa | 0V | 00:00:00 | 00:00:00 | 00:00:00 | |
| MIELECB | 2026-08-31 11:41:04 | 50.10319 | 21.12098 | 75° | 66km/h | 8688m | 8.7m/s | 0°C | 0% | 0hPa | 0V | 00:00:00 | 00:00:00 | 00:00:00 | |
| SQ9PSP-11 | 2026-08-31 11:41:02 | 50.10308 | 21.12045 | 71° | 75km/h | 8675m | 5.2m/s | 0°C | 0% | 0hPa | 0V | 00:00:00 | 00:00:00 | 00:00:00 | |
| AKAW68 | 2026-08-31 11:41:01 | 50.10301 | 21.12016 | 70° | 84km/h | 8669m | 7.3m/s | 0°C | 0% | 0hPa | 0V | 00:00:00 | 00:00:00 | 00:00:00 | |
| MIELECB | 2026-08-31 11:40:59 | 50.10285 | 21.11950 | 69° | 91km/h | 8655m | 7.1m/s | 0°C | 0% | 0hPa | 0V | 00:00:00 | 00:00:00 | 00:00:00 | |
| MIELECB | 2026-08-31 11:40:53 | 50.10232 | 21.11781 | 74° | 78km/h | 8624m | 5.1m/s | 0°C | 0% | 0hPa | 0V | 00:00:00 | 00:00:00 | 00:00:00 | |
| MIELECB | 2026-08-31 11:40:47 | 50.10189 | 21.11614 | 63° | 68km/h | 8585m | 4.4m/s | 0°C | 0% | 0hPa | 0V | 00:00:00 | 00:00:00 | 00:00:00 | |
| SQ9PSP-11 | 2026-08-31 11:40:46 | 50.10181 | 21.11592 | 68° | 62km/h | 8579m | 7.2m/s | 0°C | 0% | 0hPa | 0V | 00:00:00 | 00:00:00 | 00:00:00 | |
| AKAW682 | 2026-08-31 11:40:44 | 50.10169 | 21.11539 | 73° | 75km/h | 8564m | 7.2m/s | 0°C | 0% | 0hPa | 0V | 00:00:00 | 00:00:00 | 00:00:00 | |
| AKAW68 | 2026-08-31 11:40:41 | 50.10145 | 21.11442 | 69° | 89km/h | 8543m | 5.3m/s | 0°C | 0% | 0hPa | 0V | 00:00:00 | 00:00:00 | 00:00:00 | |
| MIELECB | 2026-08-31 11:40:35 | 50.10106 | 21.11279 | 76° | 75km/h | 8510m | 2.1m/s | 0°C | 0% | 0hPa | 0V | 00:00:00 | 00:00:00 | 00:00:00 | |
| SQ9PSP-11 | 2026-08-31 11:40:31 | 50.10075 | 21.11169 | 61° | 77km/h | 8486m | 4.9m/s | 0°C | 0% | 0hPa | 0V | 00:00:00 | 00:00:00 | 00:00:00 | |
| MIELECB | 2026-08-31 11:40:29 | 50.10056 | 21.11118 | 66° | 73km/h | 8473m | 2.6m/s | 0°C | 0% | 0hPa | 0V | 00:00:00 | 00:00:00 | 00:00:00 | |
| AKAW682 | 2026-08-31 11:40:24 | 50.10017 | 21.10973 | 63° | 69km/h | 8441m | 6.9m/s | 0°C | 0% | 0hPa | 0V | 00:00:00 | 00:00:00 | 00:00:00 | |
| AKAW68 | 2026-08-31 11:40:20 | 50.09992 | 21.10895 | 65° | 75km/h | 8419m | 4.2m/s | 0°C | 0% | 0hPa | 0V | 00:00:00 | 00:00:00 | 00:00:00 | |
| MIELECB | 2026-08-31 11:40:19 | 50.09984 | 21.10867 | 65° | 82km/h | 8411m | 11.5m/s | 0°C | 0% | 0hPa | 0V | 00:00:00 | 00:00:00 | 00:00:00 | |
| SQ9PSP-11 | 2026-08-31 11:40:15 | 50.09953 | 21.10749 | 72° | 68km/h | 8380m | 5.7m/s | 0°C | 0% | 0hPa | 0V | 00:00:00 | 00:00:00 | 00:00:00 | |
| MIELECB | 2026-08-31 11:40:13 | 50.09941 | 21.10701 | 69° | 64km/h | 8367m | 4.2m/s | 0°C | 0% | 0hPa | 0V | 00:00:00 | 00:00:00 | 00:00:00 | |
| MIELECB | 2026-08-31 11:40:09 | 50.09912 | 21.10574 | 69° | 84km/h | 8336m | 6.2m/s | 0°C | 0% | 0hPa | 0V | 00:00:00 | 00:00:00 | 00:00:00 | |
| MIELECB | 2026-08-31 11:40:02 | 50.09867 | 21.10398 | 72° | 66km/h | 8302m | 5.1m/s | 0°C | 0% | 0hPa | 0V | 00:00:00 | 00:00:00 | 00:00:00 | |
| AKAW68 | 2026-08-31 11:40:00 | 50.09856 | 21.10347 | 70° | 71km/h | 8289m | 4.1m/s | 0°C | 0% | 0hPa | 0V | 00:00:00 | 00:00:00 | 00:00:00 | |
| SQ9PSP-11 | 2026-08-31 11:39:59 | 50.09849 | 21.10320 | 70° | 75km/h | 8285m | 4.2m/s | 0°C | 0% | 0hPa | 0V | 00:00:00 | 00:00:00 | 00:00:00 | |
| MIELECB | 2026-08-31 11:39:56 | 50.09833 | 21.10237 | 78° | 77km/h | 8267m | 6.3m/s | 0°C | 0% | 0hPa | 0V | 00:00:00 | 00:00:00 | 00:00:00 | |
| SP9KGR-15 | 2026-08-31 11:39:55 | 50.09829 | 21.10207 | 81° | 77km/h | 8260m | 6.7m/s | 0°C | 0% | 0hPa | 0V | 00:00:00 | 00:00:00 | 00:00:00 | |
| MIELECB | 2026-08-31 11:39:50 | 50.09799 | 21.10068 | 65° | 80km/h | 8232m | 5.4m/s | 0°C | 0% | 0hPa | 0V | 00:00:00 | 00:00:00 | 00:00:00 | |
| MIELECB | 2026-08-31 11:39:45 | 50.09758 | 21.09925 | 68° | 71km/h | 8207m | 4.2m/s | 0°C | 0% | 0hPa | 0V | 00:00:00 | 00:00:00 | 00:00:00 | |
| SQ9PSP-11 | 2026-08-31 11:39:44 | 50.09752 | 21.09899 | 72° | 68km/h | 8201m | 7.2m/s | 0°C | 0% | 0hPa | 0V | 00:00:00 | 00:00:00 | 00:00:00 | |
| AKAW68 | 2026-08-31 11:39:39 | 50.09724 | 21.09765 | 72° | 84km/h | 8174m | 3.4m/s | 0°C | 0% | 0hPa | 0V | 00:00:00 | 00:00:00 | 00:00:00 | |
| AKAW682 | 2026-08-31 11:39:38 | 50.09717 | 21.09735 | 71° | 80km/h | 8169m | 5.6m/s | 0°C | 0% | 0hPa | 0V | 00:00:00 | 00:00:00 | 00:00:00 | |
| MIELECB | 2026-08-31 11:39:34 | 50.09688 | 21.09634 | 67° | 64km/h | 8146m | 4.3m/s | 0°C | 0% | 0hPa | 0V | 00:00:00 | 00:00:00 | 00:00:00 | |
| MIELECB | 2026-08-31 11:39:29 | 50.09656 | 21.09501 | 68° | 71km/h | 8120m | 5.1m/s | 0°C | 0% | 0hPa | 0V | 00:00:00 | 00:00:00 | 00:00:00 | |
| SQ9PSP-11 | 2026-08-31 11:39:28 | 50.09649 | 21.09475 | 68° | 66km/h | 8114m | 6.1m/s | 0°C | 0% | 0hPa | 0V | 00:00:00 | 00:00:00 | 00:00:00 | |
| MIELECB | 2026-08-31 11:39:22 | 50.09609 | 21.09317 | 61° | 80km/h | 8075m | 3.3m/s | 0°C | 0% | 0hPa | 0V | 00:00:00 | 00:00:00 | 00:00:00 | |
| SP9KGR-15 | 2026-08-31 11:39:21 | 50.09599 | 21.09290 | 62° | 80km/h | 8071m | 3.5m/s | 0°C | 0% | 0hPa | 0V | 00:00:00 | 00:00:00 | 00:00:00 | |
| AKAW68 | 2026-08-31 11:39:18 | 50.09577 | 21.09207 | 77° | 71km/h | 8054m | 5.6m/s | 0°C | 0% | 0hPa | 0V | 00:00:00 | 00:00:00 | 00:00:00 | |
| MIELECB | 2026-08-31 11:39:16 | 50.09568 | 21.09153 | 76° | 71km/h | 8044m | 4.6m/s | 0°C | 0% | 0hPa | 0V | 00:00:00 | 00:00:00 | 00:00:00 | |
| AKAW682 | 2026-08-31 11:39:14 | 50.09555 | 21.09101 | 64° | 73km/h | 8034m | 5.2m/s | 0°C | 0% | 0hPa | 0V | 00:00:00 | 00:00:00 | 00:00:00 | |
| SQ9PSP-11 | 2026-08-31 11:39:13 | 50.09546 | 21.09075 | 60° | 77km/h | 8028m | 5.8m/s | 0°C | 0% | 0hPa | 0V | 00:00:00 | 00:00:00 | 00:00:00 | |
| MIELECB | 2026-08-31 11:39:09 | 50.09516 | 21.08979 | 75° | 64km/h | 8007m | 5.7m/s | 0°C | 0% | 0hPa | 0V | 00:00:00 | 00:00:00 | 00:00:00 | |
| MIELECB | 2026-08-31 11:39:04 | 50.09489 | 21.08847 | 66° | 88km/h | 7979m | 5.0m/s | 0°C | 0% | 0hPa | 0V | 00:00:00 | 00:00:00 | 00:00:00 | |
| MIELECB | 2026-08-31 11:38:58 | 50.09452 | 21.08690 | 87° | 58km/h | 7942m | 6.3m/s | 0°C | 0% | 0hPa | 0V | 00:00:00 | 00:00:00 | 00:00:00 | |
| AKAW68 | 2026-08-31 11:38:57 | 50.09449 | 21.08666 | 75° | 62km/h | 7935m | 5.4m/s | 0°C | 0% | 0hPa | 0V | 00:00:00 | 00:00:00 | 00:00:00 | |
| MIELECB | 2026-08-31 11:38:52 | 50.09411 | 21.08551 | 65° | 75km/h | 7904m | 6.4m/s | 0°C | 0% | 0hPa | 0V | 00:00:00 | 00:00:00 | 00:00:00 | |
| AKAW682 | 2026-08-31 11:38:47 | 50.09389 | 21.08425 | 86° | 58km/h | 7873m | 5.5m/s | 0°C | 0% | 0hPa | 0V | 00:00:00 | 00:00:00 | 00:00:00 | |
| MIELECB | 2026-08-31 11:38:46 | 50.09387 | 21.08403 | 81° | 60km/h | 7867m | 4.9m/s | 0°C | 0% | 0hPa | 0V | 00:00:00 | 00:00:00 | 00:00:00 | |
| SQ9PSP-11 | 2026-08-31 11:38:42 | 50.09362 | 21.08318 | 55° | 66km/h | 7841m | 5.1m/s | 0°C | 0% | 0hPa | 0V | 00:00:00 | 00:00:00 | 00:00:00 | |
| MIELECB | 2026-08-31 11:38:41 | 50.09352 | 21.08296 | 59° | 62km/h | 7836m | 5.4m/s | 0°C | 0% | 0hPa | 0V | 00:00:00 | 00:00:00 | 00:00:00 | |
| AKAW68 | 2026-08-31 11:38:36 | 50.09319 | 21.08182 | 66° | 55km/h | 7803m | 8.3m/s | 0°C | 0% | 0hPa | 0V | 00:00:00 | 00:00:00 | 00:00:00 | |
| MIELECB | 2026-08-31 11:38:35 | 50.09314 | 21.08163 | 70° | 51km/h | 7797m | 4.2m/s | 0°C | 0% | 0hPa | 0V | 00:00:00 | 00:00:00 | 00:00:00 | |
| MIELECB | 2026-08-31 11:38:30 | 50.09286 | 21.08054 | 75° | 68km/h | 7767m | 7.5m/s | 0°C | 0% | 0hPa | 0V | 00:00:00 | 00:00:00 | 00:00:00 | |
| SQ9PSP-11 | 2026-08-31 11:38:27 | 50.09270 | 21.07986 | 66° | 68km/h | 7749m | 7.6m/s | 0°C | 0% | 0hPa | 0V | 00:00:00 | 00:00:00 | 00:00:00 | |
| MIELECB | 2026-08-31 11:38:24 | 50.09246 | 21.07923 | 60° | 53km/h | 7730m | 4.2m/s | 0°C | 0% | 0hPa | 0V | 00:00:00 | 00:00:00 | 00:00:00 | |
| AKAW682 | 2026-08-31 11:38:17 | 50.09195 | 21.07745 | 67° | 62km/h | 7681m | 4.9m/s | 0°C | 0% | 0hPa | 0V | 00:00:00 | 00:00:00 | 00:00:00 | |
| AKAW68 | 2026-08-31 11:38:16 | 50.09195 | 21.07745 | 67° | 62km/h | 7681m | 4.9m/s | 0°C | 0% | 0hPa | 0V | 00:00:00 | 00:00:00 | 00:00:00 | |
| SQ9PSP-11 | 2026-08-31 11:38:11 | 50.09173 | 21.07630 | 77° | 62km/h | 7647m | 5.8m/s | 0°C | 0% | 0hPa | 0V | 00:00:00 | 00:00:00 | 00:00:00 | |
| MIELECB | 2026-08-31 11:38:10 | 50.09169 | 21.07608 | 71° | 60km/h | 7640m | 7.2m/s | 0°C | 0% | 0hPa | 0V | 00:00:00 | 00:00:00 | 00:00:00 | |
| MIELECB | 2026-08-31 11:38:04 | 50.09133 | 21.07477 | 77° | 68km/h | 7604m | 4.9m/s | 0°C | 0% | 0hPa | 0V | 00:00:00 | 00:00:00 | 00:00:00 | |
| AKAW68 | 2026-08-31 11:37:55 | 50.09088 | 21.07251 | 79° | 73km/h | 7551m | 7.9m/s | 0°C | 0% | 0hPa | 0V | 00:00:00 | 00:00:00 | 00:00:00 | |
| MIELECB | 2026-08-31 11:37:54 | 50.09084 | 21.07224 | 77° | 69km/h | 7544m | 5.6m/s | 0°C | 0% | 0hPa | 0V | 00:00:00 | 00:00:00 | 00:00:00 | |
| SP9KGR-15 | 2026-08-31 11:37:41 | 50.09018 | 21.06937 | 80° | 69km/h | 7476m | 6.0m/s | 0°C | 0% | 0hPa | 0V | 00:00:00 | 00:00:00 | 00:00:00 | |
| SQ9PSP-11 | 2026-08-31 11:37:39 | 50.09006 | 21.06887 | 65° | 68km/h | 7467m | 4.4m/s | 0°C | 0% | 0hPa | 0V | 00:00:00 | 00:00:00 | 00:00:00 | |
| AKAW68 | 2026-08-31 11:37:34 | 50.08977 | 21.06775 | 76° | 58km/h | 7443m | 5.2m/s | 0°C | 0% | 0hPa | 0V | 00:00:00 | 00:00:00 | 00:00:00 | |
| SP9KGR-15 | 2026-08-31 11:37:25 | 50.08917 | 21.06547 | 74° | 64km/h | 7393m | 5.4m/s | 0°C | 0% | 0hPa | 0V | 00:00:00 | 00:00:00 | 00:00:00 | |
| SQ9PSP-11 | 2026-08-31 11:37:23 | 50.08909 | 21.06501 | 78° | 58km/h | 7381m | 8.7m/s | 0°C | 0% | 0hPa | 0V | 00:00:00 | 00:00:00 | 00:00:00 | |
| AKAW68 | 2026-08-31 11:37:10 | 50.08835 | 21.06212 | 62° | 68km/h | 7312m | 4.1m/s | 0°C | 0% | 0hPa | 0V | 00:00:00 | 00:00:00 | 00:00:00 | |
| SQ9PSP-11 | 2026-08-31 11:37:08 | 50.08819 | 21.06173 | 63° | 51km/h | 7301m | 5.8m/s | 0°C | 0% | 0hPa | 0V | 00:00:00 | 00:00:00 | 00:00:00 | |
| SQ9PSP-11 | 2026-08-31 11:36:52 | 50.08732 | 21.05830 | 71° | 62km/h | 7202m | 5.0m/s | 0°C | 0% | 0hPa | 0V | 00:00:00 | 00:00:00 | 00:00:00 | |
| AKAW68 | 2026-08-31 11:36:50 | 50.08721 | 21.05782 | 71° | 66km/h | 7191m | 5.0m/s | 0°C | 0% | 0hPa | 0V | 00:00:00 | 00:00:00 | 00:00:00 | |
| SP9KGR-15 | 2026-08-31 11:36:43 | 50.08677 | 21.05610 | 79° | 64km/h | 7155m | 4.9m/s | 0°C | 0% | 0hPa | 0V | 00:00:00 | 00:00:00 | 00:00:00 | |
| SQ9PSP-11 | 2026-08-31 11:36:37 | 50.08643 | 21.05473 | 73° | 60km/h | 7124m | 7.0m/s | 0°C | 0% | 0hPa | 0V | 00:00:00 | 00:00:00 | 00:00:00 | |
| MIELECB | 2026-08-31 11:36:34 | 50.08625 | 21.05403 | 58° | 73km/h | 7106m | 3.9m/s | 0°C | 0% | 0hPa | 0V | 00:00:00 | 00:00:00 | 00:00:00 | |
| AKAW68 | 2026-08-31 11:36:29 | 50.08583 | 21.05288 | 68° | 57km/h | 7078m | 4.6m/s | 0°C | 0% | 0hPa | 0V | 00:00:00 | 00:00:00 | 00:00:00 | |
| MIELECB | 2026-08-31 11:36:28 | 50.08573 | 21.05246 | 73° | 57km/h | 7068m | 2.5m/s | 0°C | 0% | 0hPa | 0V | 00:00:00 | 00:00:00 | 00:00:00 | |
| SQ9PSP-11 | 2026-08-31 11:36:21 | 50.08534 | 21.05135 | 63° | 53km/h | 7035m | 7.9m/s | 0°C | 0% | 0hPa | 0V | 00:00:00 | 00:00:00 | 00:00:00 | |
| MIELECB | 2026-08-31 11:36:20 | 50.08528 | 21.05115 | 70° | 60km/h | 7028m | 4.6m/s | 0°C | 0% | 0hPa | 0V | 00:00:00 | 00:00:00 | 00:00:00 | |
| SP9KGR-15 | 2026-08-31 11:36:17 | 50.08510 | 21.05051 | 60° | 62km/h | 7008m | 5.5m/s | 0°C | 0% | 0hPa | 0V | 00:00:00 | 00:00:00 | 00:00:00 | |
| MIELECB | 2026-08-31 11:36:14 | 50.08486 | 21.04990 | 58° | 66km/h | 6992m | 4.1m/s | 0°C | 0% | 0hPa | 0V | 00:00:00 | 00:00:00 | 00:00:00 | |
| MIELECB | 2026-08-31 11:36:08 | 50.08436 | 21.04866 | 52° | 55km/h | 6960m | 4.1m/s | 0°C | 0% | 0hPa | 0V | 00:00:00 | 00:00:00 | 00:00:00 | |
| SQ9PSP-11 | 2026-08-31 11:36:06 | 50.08420 | 21.04831 | 57° | 58km/h | 6950m | 8.2m/s | 0°C | 0% | 0hPa | 0V | 00:00:00 | 00:00:00 | 00:00:00 | |
| MIELECB | 2026-08-31 11:36:01 | 50.08375 | 21.04729 | 49° | 58km/h | 6916m | 4.8m/s | 0°C | 0% | 0hPa | 0V | 00:00:00 | 00:00:00 | 00:00:00 | |
| MIELECB | 2026-08-31 11:35:53 | 50.08306 | 21.04575 | 70° | 51km/h | 6873m | 4.6m/s | 0°C | 0% | 0hPa | 0V | 00:00:00 | 00:00:00 | 00:00:00 | |
| SQ9PSP-11 | 2026-08-31 11:35:51 | 50.08296 | 21.04538 | 63° | 49km/h | 6860m | 4.1m/s | 0°C | 0% | 0hPa | 0V | 00:00:00 | 00:00:00 | 00:00:00 | |
| SQ9PSP-11 | 2026-08-31 11:35:36 | 50.08162 | 21.04251 | 58° | 68km/h | 6777m | 4.3m/s | 0°C | 0% | 0hPa | 0V | 00:00:00 | 00:00:00 | 00:00:00 | |
| MIELECB | 2026-08-31 11:35:30 | 50.08121 | 21.04129 | 50° | 58km/h | 6752m | 4.3m/s | 0°C | 0% | 0hPa | 0V | 00:00:00 | 00:00:00 | 00:00:00 | |
| SP9KGR-15 | 2026-08-31 11:35:24 | 50.08067 | 21.04012 | 57° | 64km/h | 6721m | 3.2m/s | 0°C | 0% | 0hPa | 0V | 00:00:00 | 00:00:00 | 00:00:00 | |
| SQ9PSP-11 | 2026-08-31 11:35:20 | 50.08032 | 21.03936 | 49° | 66km/h | 6700m | 6.0m/s | 0°C | 0% | 0hPa | 0V | 00:00:00 | 00:00:00 | 00:00:00 | |
| AKAW68 | 2026-08-31 11:35:12 | 50.07956 | 21.03785 | 49° | 55km/h | 6658m | 5.7m/s | 0°C | 0% | 0hPa | 0V | 00:00:00 | 00:00:00 | 00:00:00 | |
| MIELECB | 2026-08-31 11:35:09 | 50.07925 | 21.03736 | 49° | 57km/h | 6638m | 4.8m/s | 0°C | 0% | 0hPa | 0V | 00:00:00 | 00:00:00 | 00:00:00 | |
| SQ9PSP-11 | 2026-08-31 11:35:04 | 50.07882 | 21.03641 | 52° | 62km/h | 6616m | 3.2m/s | 0°C | 0% | 0hPa | 0V | 00:00:00 | 00:00:00 | 00:00:00 | |
| MIELECB | 2026-08-31 11:34:59 | 50.07840 | 21.03568 | 51° | 49km/h | 6591m | 8.2m/s | 0°C | 0% | 0hPa | 0V | 00:00:00 | 00:00:00 | 00:00:00 | |
| SP9KGR-15 | 2026-08-31 11:34:53 | 50.07785 | 21.03462 | 58° | 58km/h | 6550m | 4.5m/s | 0°C | 0% | 0hPa | 0V | 00:00:00 | 00:00:00 | 00:00:00 | |
| SQ9PSP-11 | 2026-08-31 11:34:49 | 50.07749 | 21.03389 | 34° | 47km/h | 6530m | 4.6m/s | 0°C | 0% | 0hPa | 0V | 00:00:00 | 00:00:00 | 00:00:00 | |
| SQ9PSP-11 | 2026-08-31 11:34:33 | 50.07621 | 21.03193 | 52° | 40km/h | 6437m | 7.8m/s | 0°C | 0% | 0hPa | 0V | 00:00:00 | 00:00:00 | 00:00:00 | |
| SP9KGR-15 | 2026-08-31 11:34:26 | 50.07569 | 21.03083 | 51° | 51km/h | 6402m | 7.8m/s | 0°C | 0% | 0hPa | 0V | 00:00:00 | 00:00:00 | 00:00:00 | |
| SQ9PSP-11 | 2026-08-31 11:34:17 | 50.07494 | 21.02964 | 36° | 40km/h | 6352m | 4.1m/s | 0°C | 0% | 0hPa | 0V | 00:00:00 | 00:00:00 | 00:00:00 | |
| SP9KGR-15 | 2026-08-31 11:34:11 | 50.07451 | 21.02875 | 59° | 57km/h | 6319m | 3.9m/s | 0°C | 0% | 0hPa | 0V | 00:00:00 | 00:00:00 | 00:00:00 | |
| SQ9PSP-11 | 2026-08-31 11:34:01 | 50.07371 | 21.02719 | 42° | 46km/h | 6267m | 7.8m/s | 0°C | 0% | 0hPa | 0V | 00:00:00 | 00:00:00 | 00:00:00 | |
| SP9KGR-15 | 2026-08-31 11:33:55 | 50.07322 | 21.02641 | 39° | 51km/h | 6230m | 6.4m/s | 0°C | 0% | 0hPa | 0V | 00:00:00 | 00:00:00 | 00:00:00 | |
| SQ9PSP-11 | 2026-08-31 11:33:46 | 50.07251 | 21.02545 | 50° | 35km/h | 6182m | 2.0m/s | 0°C | 0% | 0hPa | 0V | 00:00:00 | 00:00:00 | 00:00:00 | |
| SP9KGR-15 | 2026-08-31 11:33:36 | 50.07170 | 21.02402 | 60° | 49km/h | 6126m | 5.0m/s | 0°C | 0% | 0hPa | 0V | 00:00:00 | 00:00:00 | 00:00:00 | |
| SQ9PSP-11 | 2026-08-31 11:33:30 | 50.07123 | 21.02321 | 52° | 47km/h | 6090m | 2.8m/s | 0°C | 0% | 0hPa | 0V | 00:00:00 | 00:00:00 | 00:00:00 | |
| SQ9PSP-11 | 2026-08-31 11:33:16 | 50.07001 | 21.02136 | 51° | 40km/h | 6005m | 2.6m/s | 0°C | 0% | 0hPa | 0V | 00:00:00 | 00:00:00 | 00:00:00 | |
| MIELECB | 2026-08-31 11:33:04 | 50.06908 | 21.02014 | 41° | 51km/h | 5939m | 4.7m/s | 0°C | 0% | 0hPa | 0V | 00:00:00 | 00:00:00 | 00:00:00 | |
| SQ9PSP-11 | 2026-08-31 11:32:59 | 50.06862 | 21.01964 | 38° | 44km/h | 5913m | 7.7m/s | 0°C | 0% | 0hPa | 0V | 00:00:00 | 00:00:00 | 00:00:00 | |
| MIELECB | 2026-08-31 11:32:56 | 50.06836 | 21.01931 | 36° | 37km/h | 5895m | 7.2m/s | 0°C | 0% | 0hPa | 0V | 00:00:00 | 00:00:00 | 00:00:00 | |
| SP9KGR-15 | 2026-08-31 11:32:55 | 50.06825 | 21.01911 | 60° | 37km/h | 5882m | 3.7m/s | 0°C | 0% | 0hPa | 0V | 00:00:00 | 00:00:00 | 00:00:00 | |
| MIELECB | 2026-08-31 11:32:49 | 50.06789 | 21.01850 | 30° | 46km/h | 5854m | 5.5m/s | 0°C | 0% | 0hPa | 0V | 00:00:00 | 00:00:00 | 00:00:00 | |
| SQ9PSP-11 | 2026-08-31 11:32:44 | 50.06746 | 21.01793 | 56° | 35km/h | 5814m | 5.7m/s | 0°C | 0% | 0hPa | 0V | 00:00:00 | 00:00:00 | 00:00:00 | |
| MIELECB | 2026-08-31 11:32:41 | 50.06734 | 21.01770 | 51° | 40km/h | 5804m | 5.5m/s | 0°C | 0% | 0hPa | 0V | 00:00:00 | 00:00:00 | 00:00:00 | |
| SP9KGR-15 | 2026-08-31 11:32:38 | 50.06713 | 21.01733 | 37° | 42km/h | 5785m | 4.5m/s | 0°C | 0% | 0hPa | 0V | 00:00:00 | 00:00:00 | 00:00:00 | |
| MIELECB | 2026-08-31 11:32:35 | 50.06692 | 21.01702 | 57° | 38km/h | 5770m | 5.8m/s | 0°C | 0% | 0hPa | 0V | 00:00:00 | 00:00:00 | 00:00:00 | |
| AKAW68 | 2026-08-31 11:32:32 | 50.06676 | 21.01666 | 43° | 40km/h | 5752m | 3.9m/s | 0°C | 0% | 0hPa | 0V | 00:00:00 | 00:00:00 | 00:00:00 | |
| SQ9PSP-11 | 2026-08-31 11:32:28 | 50.06646 | 21.01622 | 59° | 42km/h | 5730m | 4.0m/s | 0°C | 0% | 0hPa | 0V | 00:00:00 | 00:00:00 | 00:00:00 | |
| MIELECB | 2026-08-31 11:32:21 | 50.06608 | 21.01551 | 26° | 35km/h | 5692m | 6.2m/s | 0°C | 0% | 0hPa | 0V | 00:00:00 | 00:00:00 | 00:00:00 | |
| SP9KGR-15 | 2026-08-31 11:32:20 | 50.06599 | 21.01545 | 26° | 38km/h | 5686m | 3.6m/s | 0°C | 0% | 0hPa | 0V | 00:00:00 | 00:00:00 | 00:00:00 | |
| MIELECB | 2026-08-31 11:32:15 | 50.06554 | 21.01490 | 41° | 44km/h | 5659m | 5.1m/s | 0°C | 0% | 0hPa | 0V | 00:00:00 | 00:00:00 | 00:00:00 | |
| SQ9PSP-11 | 2026-08-31 11:32:13 | 50.06537 | 21.01450 | 66° | 40km/h | 5646m | 6.8m/s | 0°C | 0% | 0hPa | 0V | 00:00:00 | 00:00:00 | 00:00:00 | |
| MIELECB | 2026-08-31 11:32:10 | 50.06525 | 21.01422 | 49° | 46km/h | 5632m | 6.9m/s | 0°C | 0% | 0hPa | 0V | 00:00:00 | 00:00:00 | 00:00:00 | |
| MIELECB | 2026-08-31 11:32:02 | 50.06463 | 21.01352 | 40° | 35km/h | 5585m | 4.5m/s | 0°C | 0% | 0hPa | 0V | 00:00:00 | 00:00:00 | 00:00:00 | |
| SP9KGR-15 | 2026-08-31 11:31:59 | 50.06447 | 21.01324 | 57° | 29km/h | 5567m | 3.8m/s | 0°C | 0% | 0hPa | 0V | 00:00:00 | 00:00:00 | 00:00:00 | |
| SQ9PSP-11 | 2026-08-31 11:31:57 | 50.06438 | 21.01310 | 41° | 22km/h | 5559m | 7.7m/s | 0°C | 0% | 0hPa | 0V | 00:00:00 | 00:00:00 | 00:00:00 | |
| MIELECB | 2026-08-31 11:31:56 | 50.06433 | 21.01306 | 21° | 27km/h | 5552m | 5.2m/s | 0°C | 0% | 0hPa | 0V | 00:00:00 | 00:00:00 | 00:00:00 | |
| MIELECB | 2026-08-31 11:31:49 | 50.06387 | 21.01234 | 47° | 35km/h | 5509m | 4.9m/s | 0°C | 0% | 0hPa | 0V | 00:00:00 | 00:00:00 | 00:00:00 | |
| MIELECB | 2026-08-31 11:31:43 | 50.06336 | 21.01170 | 58° | 46km/h | 5478m | 4.4m/s | 0°C | 0% | 0hPa | 0V | 00:00:00 | 00:00:00 | 00:00:00 | |
| SQ9PSP-11 | 2026-08-31 11:31:42 | 50.06321 | 21.01146 | 25° | 44km/h | 5464m | 6.2m/s | 0°C | 0% | 0hPa | 0V | 00:00:00 | 00:00:00 | 00:00:00 | |
| MIELECB | 2026-08-31 11:31:31 | 50.06246 | 21.01045 | 60° | 35km/h | 5399m | 6.4m/s | 0°C | 0% | 0hPa | 0V | 00:00:00 | 00:00:00 | 00:00:00 | |
| SQ9PSP-11 | 2026-08-31 11:31:26 | 50.06211 | 21.00997 | 24° | 38km/h | 5368m | 5.0m/s | 0°C | 0% | 0hPa | 0V | 00:00:00 | 00:00:00 | 00:00:00 | |
| MIELECB | 2026-08-31 11:31:20 | 50.06160 | 21.00949 | 36° | 40km/h | 5333m | 5.8m/s | 0°C | 0% | 0hPa | 0V | 00:00:00 | 00:00:00 | 00:00:00 | |
| SP9KGR-15 | 2026-08-31 11:31:10 | 50.06083 | 21.00833 | 43° | 40km/h | 5267m | 4.6m/s | 0°C | 0% | 0hPa | 0V | 00:00:00 | 00:00:00 | 00:00:00 | |
| MIELECB | 2026-08-31 11:31:02 | 50.06036 | 21.00792 | 25° | 29km/h | 5230m | 8.6m/s | 0°C | 0% | 0hPa | 0V | 00:00:00 | 00:00:00 | 00:00:00 | |
| SQ9PSP-11 | 2026-08-31 11:30:54 | 50.05992 | 21.00736 | 42° | 42km/h | 5176m | 8.3m/s | 0°C | 0% | 0hPa | 0V | 00:00:00 | 00:00:00 | 00:00:00 | |
| SP9KGR-15 | 2026-08-31 11:30:53 | 50.05984 | 21.00725 | 36° | 44km/h | 5169m | 3.5m/s | 0°C | 0% | 0hPa | 0V | 00:00:00 | 00:00:00 | 00:00:00 | |
| MIELECB | 2026-08-31 11:30:48 | 50.05964 | 21.00684 | 64° | 35km/h | 5143m | 5.1m/s | 0°C | 0% | 0hPa | 0V | 00:00:00 | 00:00:00 | 00:00:00 | |
| SQ9PSP-11 | 2026-08-31 11:30:39 | 50.05914 | 21.00610 | 47° | 16km/h | 5089m | 2.6m/s | 0°C | 0% | 0hPa | 0V | 00:00:00 | 00:00:00 | 00:00:00 | |
| SP9KGR-15 | 2026-08-31 11:30:38 | 50.05901 | 21.00596 | 29° | 44km/h | 5077m | 6.9m/s | 0°C | 0% | 0hPa | 0V | 00:00:00 | 00:00:00 | 00:00:00 | |
| SQ9PSP-11 | 2026-08-31 11:30:23 | 50.05821 | 21.00508 | 64° | 31km/h | 4996m | 3.6m/s | 0°C | 0% | 0hPa | 0V | 00:00:00 | 00:00:00 | 00:00:00 | |
| SP9KGR-15 | 2026-08-31 11:30:22 | 50.05815 | 21.00499 | 37° | 38km/h | 4992m | 6.3m/s | 0°C | 0% | 0hPa | 0V | 00:00:00 | 00:00:00 | 00:00:00 | |
| SQ9PSP-11 | 2026-08-31 11:30:07 | 50.05702 | 21.00414 | 2° | 38km/h | 4900m | 3.6m/s | 0°C | 0% | 0hPa | 0V | 00:00:00 | 00:00:00 | 00:00:00 | |
| AKAW68 | 2026-08-31 11:30:03 | 50.05680 | 21.00399 | 67° | 27km/h | 4874m | 6.4m/s | 0°C | 0% | 0hPa | 0V | 00:00:00 | 00:00:00 | 00:00:00 | |
| SP9KGR-15 | 2026-08-31 11:29:59 | 50.05655 | 21.00371 | 10° | 29km/h | 4852m | 5.8m/s | 0°C | 0% | 0hPa | 0V | 00:00:00 | 00:00:00 | 00:00:00 | |
| SQ9PSP-11 | 2026-08-31 11:29:52 | 50.05622 | 21.00343 | 33° | 37km/h | 4810m | 6.6m/s | 0°C | 0% | 0hPa | 0V | 00:00:00 | 00:00:00 | 00:00:00 | |
| SP9KGR-15 | 2026-08-31 11:29:44 | 50.05592 | 21.00312 | 347° | 22km/h | 4775m | 5.8m/s | 0°C | 0% | 0hPa | 0V | 00:00:00 | 00:00:00 | 00:00:00 | |
| SQ9PSP-11 | 2026-08-31 11:29:37 | 50.05547 | 21.00291 | 13° | 26km/h | 4740m | 4.9m/s | 0°C | 0% | 0hPa | 0V | 00:00:00 | 00:00:00 | 00:00:00 | |
| SP9KGR-15 | 2026-08-31 11:29:25 | 50.05516 | 21.00245 | 32° | 24km/h | 4668m | 6.1m/s | 0°C | 0% | 0hPa | 0V | 00:00:00 | 00:00:00 | 00:00:00 | |
| SQ9PSP-11 | 2026-08-31 11:29:21 | 50.05500 | 21.00215 | 62° | 11km/h | 4646m | 4.7m/s | 0°C | 0% | 0hPa | 0V | 00:00:00 | 00:00:00 | 00:00:00 | |
| SP9KGR-15 | 2026-08-31 11:29:09 | 50.05478 | 21.00166 | 51° | 16km/h | 4580m | 5.0m/s | 0°C | 0% | 0hPa | 0V | 00:00:00 | 00:00:00 | 00:00:00 | |
| SQ9PSP-11 | 2026-08-31 11:29:06 | 50.05467 | 21.00143 | 51° | 20km/h | 4560m | 6.6m/s | 0°C | 0% | 0hPa | 0V | 00:00:00 | 00:00:00 | 00:00:00 | |
| SQ9PSP-11 | 2026-08-31 11:28:50 | 50.05419 | 21.00023 | 31° | 29km/h | 4465m | 4.6m/s | 0°C | 0% | 0hPa | 0V | 00:00:00 | 00:00:00 | 00:00:00 | |
| SP9KGR-15 | 2026-08-31 11:28:49 | 50.05414 | 21.00018 | 30° | 22km/h | 4460m | 6.2m/s | 0°C | 0% | 0hPa | 0V | 00:00:00 | 00:00:00 | 00:00:00 | |
| SQ9EZE-15 | 2026-08-31 11:28:43 | 50.05403 | 20.99990 | 48° | 22km/h | 4428m | 4.4m/s | 0°C | 0% | 0hPa | 0V | 00:00:00 | 00:00:00 | 00:00:00 | |
| SQ9PSP-11 | 2026-08-31 11:28:35 | 50.05381 | 20.99930 | 28° | 29km/h | 4375m | 3.2m/s | 0°C | 0% | 0hPa | 0V | 00:00:00 | 00:00:00 | 00:00:00 | |
| SP9KGR-15 | 2026-08-31 11:28:32 | 50.05370 | 20.99908 | 86° | 26km/h | 4357m | 5.9m/s | 0°C | 0% | 0hPa | 0V | 00:00:00 | 00:00:00 | 00:00:00 | |
| AKAW68 | 2026-08-31 11:28:26 | 50.05367 | 20.99834 | 68° | 38km/h | 4333m | 4.7m/s | 0°C | 0% | 0hPa | 0V | 00:00:00 | 00:00:00 | 00:00:00 | |
| SQ9EZE-15 | 2026-08-31 11:28:22 | 50.05353 | 20.99807 | 48° | 13km/h | 4312m | 3.3m/s | 0°C | 0% | 0hPa | 0V | 00:00:00 | 00:00:00 | 00:00:00 | |
| SQ9PSP-11 | 2026-08-31 11:28:19 | 50.05342 | 20.99784 | 60° | 42km/h | 4296m | 4.6m/s | 0°C | 0% | 0hPa | 0V | 00:00:00 | 00:00:00 | 00:00:00 | |
| SP9KGR-15 | 2026-08-31 11:28:16 | 50.05323 | 20.99743 | 48° | 29km/h | 4288m | 4.6m/s | 0°C | 0% | 0hPa | 0V | 00:00:00 | 00:00:00 | 00:00:00 | |
| SQ9PSP-11 | 2026-08-31 11:28:03 | 50.05260 | 20.99646 | 15° | 38km/h | 4212m | 2.3m/s | 0°C | 0% | 0hPa | 0V | 00:00:00 | 00:00:00 | 00:00:00 | |
| SQ9EZE-12 | 2026-08-31 11:27:49 | 50.05193 | 20.99510 | 85° | 33km/h | 4142m | 6.7m/s | 0°C | 0% | 0hPa | 0V | 00:00:00 | 00:00:00 | 00:00:00 | |
| SQ9PSP-11 | 2026-08-31 11:27:46 | 50.05186 | 20.99460 | 70° | 53km/h | 4128m | 3.9m/s | 0°C | 0% | 0hPa | 0V | 00:00:00 | 00:00:00 | 00:00:00 | |
| SP9KGR-15 | 2026-08-31 11:27:37 | 50.05125 | 20.99349 | 37° | 38km/h | 4086m | 3.5m/s | 0°C | 0% | 0hPa | 0V | 00:00:00 | 00:00:00 | 00:00:00 | |
| SQ9PSP-11 | 2026-08-31 11:27:30 | 50.05096 | 20.99243 | 75° | 35km/h | 4053m | 2.1m/s | 0°C | 0% | 0hPa | 0V | 00:00:00 | 00:00:00 | 00:00:00 | |
| SP9KGR-15 | 2026-08-31 11:27:20 | 50.05075 | 20.99103 | 72° | 35km/h | 4005m | 6.3m/s | 0°C | 0% | 0hPa | 0V | 00:00:00 | 00:00:00 | 00:00:00 | |
| SQ9PSP-11 | 2026-08-31 11:27:15 | 50.05068 | 20.99015 | 50° | 51km/h | 3984m | 4.2m/s | 0°C | 0% | 0hPa | 0V | 00:00:00 | 00:00:00 | 00:00:00 | |
| SQ9PSP-11 | 2026-08-31 11:26:59 | 50.04994 | 20.98755 | 50° | 58km/h | 3901m | 2.0m/s | 0°C | 0% | 0hPa | 0V | 00:00:00 | 00:00:00 | 00:00:00 | |
| SP9KGR-15 | 2026-08-31 11:26:55 | 50.04965 | 20.98706 | 59° | 27km/h | 3889m | 5.4m/s | 0°C | 0% | 0hPa | 0V | 00:00:00 | 00:00:00 | 00:00:00 | |
| SQ9PSP-11 | 2026-08-31 11:26:44 | 50.04928 | 20.98543 | 48° | 46km/h | 3830m | 7.1m/s | 0°C | 0% | 0hPa | 0V | 00:00:00 | 00:00:00 | 00:00:00 | |
| SQ9PSP-11 | 2026-08-31 11:26:28 | 50.04863 | 20.98307 | 74° | 37km/h | 3754m | 5.6m/s | 0°C | 0% | 0hPa | 0V | 00:00:00 | 00:00:00 | 00:00:00 | |
| SQ9PSP-11 | 2026-08-31 11:26:12 | 50.04798 | 20.98034 | 73° | 29km/h | 3681m | 6.8m/s | 0°C | 0% | 0hPa | 0V | 00:00:00 | 00:00:00 | 00:00:00 | |
| MIELECB | 2026-08-31 11:26:11 | 50.04795 | 20.98023 | 62° | 35km/h | 3674m | 7.0m/s | 0°C | 0% | 0hPa | 0V | 00:00:00 | 00:00:00 | 00:00:00 | |
| SP9KGR-15 | 2026-08-31 11:26:03 | 50.04753 | 20.97897 | 74° | 51km/h | 3630m | 6.6m/s | 0°C | 0% | 0hPa | 0V | 00:00:00 | 00:00:00 | 00:00:00 | |
| SQ9PSP-11 | 2026-08-31 11:25:57 | 50.04723 | 20.97810 | 91° | 53km/h | 3605m | 3.1m/s | 0°C | 0% | 0hPa | 0V | 00:00:00 | 00:00:00 | 00:00:00 | |
| SQ9PSP-11 | 2026-08-31 11:25:41 | 50.04669 | 20.97570 | 86° | 44km/h | 3516m | 2.5m/s | 0°C | 0% | 0hPa | 0V | 00:00:00 | 00:00:00 | 00:00:00 | |
| SQ9PSP-11 | 2026-08-31 11:25:26 | 50.04617 | 20.97351 | 90° | 47km/h | 3447m | 3.4m/s | 0°C | 0% | 0hPa | 0V | 00:00:00 | 00:00:00 | 00:00:00 | |
| SP9KGR-15 | 2026-08-31 11:25:12 | 50.04597 | 20.97167 | 93° | 31km/h | 3372m | 5.2m/s | 0°C | 0% | 0hPa | 0V | 00:00:00 | 00:00:00 | 00:00:00 | |
| SQ9PSP-11 | 2026-08-31 11:25:10 | 50.04601 | 20.97139 | 106° | 37km/h | 3361m | 2.7m/s | 0°C | 0% | 0hPa | 0V | 00:00:00 | 00:00:00 | 00:00:00 | |
| SQ9PSP-11 | 2026-08-31 11:24:54 | 50.04554 | 20.96921 | 42° | 51km/h | 3274m | 3.0m/s | 0°C | 0% | 0hPa | 0V | 00:00:00 | 00:00:00 | 00:00:00 | |
| SQ9PSP-11 | 2026-08-31 11:24:39 | 50.04483 | 20.96721 | 32° | 29km/h | 3182m | 4.0m/s | 0°C | 0% | 0hPa | 0V | 00:00:00 | 00:00:00 | 00:00:00 | |
| SQ9PSP-11 | 2026-08-31 11:24:22 | 50.04396 | 20.96489 | 69° | 22km/h | 3098m | 3.2m/s | 0°C | 0% | 0hPa | 0V | 00:00:00 | 00:00:00 | 00:00:00 | |
| SP9KGR-15 | 2026-08-31 11:24:13 | 50.04356 | 20.96362 | 75° | 42km/h | 3052m | 5.4m/s | 0°C | 0% | 0hPa | 0V | 00:00:00 | 00:00:00 | 00:00:00 | |
| SQ9PSP-11 | 2026-08-31 11:24:06 | 50.04339 | 20.96286 | 37° | 33km/h | 3012m | 4.0m/s | 0°C | 0% | 0hPa | 0V | 00:00:00 | 00:00:00 | 00:00:00 | |
| SP9KGR-15 | 2026-08-31 11:23:58 | 50.04290 | 20.96179 | 88° | 27km/h | 2969m | 5.2m/s | 0°C | 0% | 0hPa | 0V | 00:00:00 | 00:00:00 | 00:00:00 | |
| SQ9PSP-11 | 2026-08-31 11:23:51 | 50.04263 | 20.96116 | 93° | 26km/h | 2936m | 2.7m/s | 0°C | 0% | 0hPa | 0V | 00:00:00 | 00:00:00 | 00:00:00 | |
| SQ9EZE-12 | 2026-08-31 11:23:45 | 50.04229 | 20.96029 | 46° | 47km/h | 2899m | 5.7m/s | 0°C | 0% | 0hPa | 0V | 00:00:00 | 00:00:00 | 00:00:00 | |
| SP9KGR-15 | 2026-08-31 11:23:42 | 50.04210 | 20.95994 | 64° | 37km/h | 2884m | 5.0m/s | 0°C | 0% | 0hPa | 0V | 00:00:00 | 00:00:00 | 00:00:00 | |
| SQ9PSP-11 | 2026-08-31 11:23:36 | 50.04190 | 20.95885 | 36° | 18km/h | 2854m | 4.2m/s | 0°C | 0% | 0hPa | 0V | 00:00:00 | 00:00:00 | 00:00:00 | |
| SP9KGR-15 | 2026-08-31 11:23:06 | 50.04041 | 20.95472 | 63° | 55km/h | 2698m | 1.1m/s | 0°C | 0% | 0hPa | 0V | 00:00:00 | 00:00:00 | 00:00:00 | |
| SQ9EZE-12 | 2026-08-31 11:22:50 | 50.03949 | 20.95284 | 32° | 27km/h | 2615m | 4.4m/s | 0°C | 0% | 0hPa | 0V | 00:00:00 | 00:00:00 | 00:00:00 | |
| SP9KGR-15 | 2026-08-31 11:22:45 | 50.03926 | 20.95236 | 43° | 53km/h | 2584m | 3.1m/s | 0°C | 0% | 0hPa | 0V | 00:00:00 | 00:00:00 | 00:00:00 | |
| SQ9EZE-15 | 2026-08-31 11:22:19 | 50.03745 | 20.94949 | 23° | 49km/h | 2455m | 2.9m/s | 0°C | 0% | 0hPa | 0V | 00:00:00 | 00:00:00 | 00:00:00 | |
| SQ9PSP-11 | 2026-08-31 11:22:14 | 50.03718 | 20.94914 | 62° | 37km/h | 2434m | 4.6m/s | 0°C | 0% | 0hPa | 0V | 00:00:00 | 00:00:00 | 00:00:00 | |
| SP9KGR-15 | 2026-08-31 11:22:02 | 50.03657 | 20.94786 | 77° | 33km/h | 2381m | 5.2m/s | 0°C | 0% | 0hPa | 0V | 00:00:00 | 00:00:00 | 00:00:00 | |
| SQ9PSP-11 | 2026-08-31 11:21:59 | 50.03642 | 20.94753 | 32° | 40km/h | 2366m | 4.4m/s | 0°C | 0% | 0hPa | 0V | 00:00:00 | 00:00:00 | 00:00:00 | |
| SQ9EZE-15 | 2026-08-31 11:21:58 | 50.03632 | 20.94745 | 26° | 51km/h | 2362m | 0.5m/s | 0°C | 0% | 0hPa | 0V | 00:00:00 | 00:00:00 | 00:00:00 | |
| SQ9PSP-11 | 2026-08-31 11:21:44 | 50.03543 | 20.94597 | 88° | 22km/h | 2302m | 3.8m/s | 0°C | 0% | 0hPa | 0V | 00:00:00 | 00:00:00 | 00:00:00 | |
| SP9KGR-15 | 2026-08-31 11:21:24 | 50.03468 | 20.94480 | 37° | 20km/h | 2195m | 4.6m/s | 0°C | 0% | 0hPa | 0V | 00:00:00 | 00:00:00 | 00:00:00 | |
| SQ9PSP-11 | 2026-08-31 11:21:22 | 50.03461 | 20.94459 | 72° | 38km/h | 2185m | 3.0m/s | 0°C | 0% | 0hPa | 0V | 00:00:00 | 00:00:00 | 00:00:00 |